﻿<?xml version="1.0" encoding="utf-8"?><gpx creator="Garmin Desktop App" version="1.1" xsi:schemaLocation="http://www.topografix.com/GPX/1/1 http://www.topografix.com/GPX/1/1/gpx.xsd http://www.garmin.com/xmlschemas/WaypointExtension/v1 http://www8.garmin.com/xmlschemas/WaypointExtensionv1.xsd http://www.garmin.com/xmlschemas/TrackPointExtension/v1 http://www.garmin.com/xmlschemas/TrackPointExtensionv1.xsd http://www.garmin.com/xmlschemas/GpxExtensions/v3 http://www8.garmin.com/xmlschemas/GpxExtensionsv3.xsd http://www.garmin.com/xmlschemas/ActivityExtension/v1 http://www8.garmin.com/xmlschemas/ActivityExtensionv1.xsd http://www.garmin.com/xmlschemas/AdventuresExtensions/v1 http://www8.garmin.com/xmlschemas/AdventuresExtensionv1.xsd http://www.garmin.com/xmlschemas/PressureExtension/v1 http://www.garmin.com/xmlschemas/PressureExtensionv1.xsd http://www.garmin.com/xmlschemas/TripExtensions/v1 http://www.garmin.com/xmlschemas/TripExtensionsv1.xsd http://www.garmin.com/xmlschemas/TripMetaDataExtensions/v1 http://www.garmin.com/xmlschemas/TripMetaDataExtensionsv1.xsd http://www.garmin.com/xmlschemas/ViaPointTransportationModeExtensions/v1 http://www.garmin.com/xmlschemas/ViaPointTransportationModeExtensionsv1.xsd http://www.garmin.com/xmlschemas/CreationTimeExtension/v1 http://www.garmin.com/xmlschemas/CreationTimeExtensionsv1.xsd http://www.garmin.com/xmlschemas/AccelerationExtension/v1 http://www.garmin.com/xmlschemas/AccelerationExtensionv1.xsd http://www.garmin.com/xmlschemas/PowerExtension/v1 http://www.garmin.com/xmlschemas/PowerExtensionv1.xsd http://www.garmin.com/xmlschemas/VideoExtension/v1 http://www.garmin.com/xmlschemas/VideoExtensionv1.xsd" xmlns="http://www.topografix.com/GPX/1/1" xmlns:xsi="http://www.w3.org/2001/XMLSchema-instance" xmlns:wptx1="http://www.garmin.com/xmlschemas/WaypointExtension/v1" xmlns:gpxtrx="http://www.garmin.com/xmlschemas/GpxExtensions/v3" xmlns:gpxtpx="http://www.garmin.com/xmlschemas/TrackPointExtension/v1" xmlns:gpxx="http://www.garmin.com/xmlschemas/GpxExtensions/v3" xmlns:trp="http://www.garmin.com/xmlschemas/TripExtensions/v1" xmlns:adv="http://www.garmin.com/xmlschemas/AdventuresExtensions/v1" xmlns:prs="http://www.garmin.com/xmlschemas/PressureExtension/v1" xmlns:tmd="http://www.garmin.com/xmlschemas/TripMetaDataExtensions/v1" xmlns:vptm="http://www.garmin.com/xmlschemas/ViaPointTransportationModeExtensions/v1" xmlns:ctx="http://www.garmin.com/xmlschemas/CreationTimeExtension/v1" xmlns:gpxacc="http://www.garmin.com/xmlschemas/AccelerationExtension/v1" xmlns:gpxpx="http://www.garmin.com/xmlschemas/PowerExtension/v1" xmlns:vidx1="http://www.garmin.com/xmlschemas/VideoExtension/v1">

  <metadata>
    <link href="http://www.garmin.com">
      <text>Garmin International</text>
    </link>
    <time>2024-02-21T14:41:01Z</time>
    <bounds maxlat="50.692306011915207" maxlon="6.307480037212372" minlat="50.659752041101456" minlon="6.106193996965885" />
  </metadata>

  <trk>
    <name>EIF2 Rattenhaus Dartsch Hof 22 km</name>
    <extensions>
      <gpxx:TrackExtension>
        <gpxx:DisplayColor>Blue</gpxx:DisplayColor>
      </gpxx:TrackExtension>
    </extensions>
    <trkseg>
      <trkpt lat="50.68887697532773" lon="6.10633397474885">
        <ele>293.85163399999999</ele>
        <time>2023-10-21T09:08:15Z</time>
      </trkpt>
      <trkpt lat="50.688818972557783" lon="6.106214029714465">
        <ele>293.85163399999999</ele>
        <time>2023-10-21T09:08:30Z</time>
      </trkpt>
      <trkpt lat="50.688726017251611" lon="6.106198020279408">
        <ele>293.85163399999999</ele>
        <time>2023-10-21T09:08:37Z</time>
      </trkpt>
      <trkpt lat="50.68861898034811" lon="6.106203971430659">
        <ele>293.85163399999999</ele>
        <time>2023-10-21T09:08:44Z</time>
      </trkpt>
      <trkpt lat="50.688528958708048" lon="6.106219980865717">
        <ele>293.85163399999999</ele>
        <time>2023-10-21T09:08:52Z</time>
      </trkpt>
      <trkpt lat="50.688438015058637" lon="6.106205983087421">
        <ele>293.85163399999999</ele>
        <time>2023-10-21T09:08:59Z</time>
      </trkpt>
      <trkpt lat="50.688328966498375" lon="6.106211012229323">
        <ele>293.85163399999999</ele>
        <time>2023-10-21T09:09:07Z</time>
      </trkpt>
      <trkpt lat="50.688233999535441" lon="6.106221992522478">
        <ele>293.85163399999999</ele>
        <time>2023-10-21T09:09:16Z</time>
      </trkpt>
      <trkpt lat="50.688139032572508" lon="6.106218975037336">
        <ele>293.85163399999999</ele>
        <time>2023-10-21T09:09:24Z</time>
      </trkpt>
      <trkpt lat="50.688038030639291" lon="6.106210006400943">
        <ele>293.85163399999999</ele>
        <time>2023-10-21T09:09:33Z</time>
      </trkpt>
      <trkpt lat="50.687941974028945" lon="6.106211012229323">
        <ele>293.621263</ele>
        <time>2023-10-21T09:09:40Z</time>
      </trkpt>
      <trkpt lat="50.687848012894392" lon="6.106193996965885">
        <ele>293.33219200000002</ele>
        <time>2023-10-21T09:09:47Z</time>
      </trkpt>
      <trkpt lat="50.687753967940807" lon="6.106210006400943">
        <ele>293.04333500000001</ele>
        <time>2023-10-21T09:09:54Z</time>
      </trkpt>
      <trkpt lat="50.687660006806254" lon="6.106240013614297">
        <ele>292.75033200000001</ele>
        <time>2023-10-21T09:10:02Z</time>
      </trkpt>
      <trkpt lat="50.687584988772869" lon="6.10633397474885">
        <ele>292.45773600000001</ele>
        <time>2023-10-21T09:10:10Z</time>
      </trkpt>
      <trkpt lat="50.687503013759851" lon="6.106417961418629">
        <ele>292.15906999999999</ele>
        <time>2023-10-21T09:10:16Z</time>
      </trkpt>
      <trkpt lat="50.687433024868369" lon="6.106545031070709">
        <ele>291.833234</ele>
        <time>2023-10-21T09:10:27Z</time>
      </trkpt>
      <trkpt lat="50.687036979943514" lon="6.10706202685833">
        <ele>290.25327299999998</ele>
        <time>2023-10-21T09:11:07Z</time>
      </trkpt>
      <trkpt lat="50.686966991052032" lon="6.107176020741463">
        <ele>289.94597499999998</ele>
        <time>2023-10-21T09:11:14Z</time>
      </trkpt>
      <trkpt lat="50.686907982453704" lon="6.107291020452976">
        <ele>289.65954099999999</ele>
        <time>2023-10-21T09:11:21Z</time>
      </trkpt>
      <trkpt lat="50.686762975528836" lon="6.107489001005888">
        <ele>289.06402500000002</ele>
        <time>2023-10-21T09:11:37Z</time>
      </trkpt>
      <trkpt lat="50.686586033552885" lon="6.107592014595866">
        <ele>288.47858200000002</ele>
        <time>2023-10-21T09:11:50Z</time>
      </trkpt>
      <trkpt lat="50.686488971114159" lon="6.107596959918737">
        <ele>288.179552</ele>
        <time>2023-10-21T09:11:57Z</time>
      </trkpt>
      <trkpt lat="50.68638201802969" lon="6.107582040131092">
        <ele>287.84661999999997</ele>
        <time>2023-10-21T09:12:05Z</time>
      </trkpt>
      <trkpt lat="50.686281016096473" lon="6.107602994889021">
        <ele>287.53088600000001</ele>
        <time>2023-10-21T09:12:14Z</time>
      </trkpt>
      <trkpt lat="50.686188982799649" lon="6.10760198906064">
        <ele>287.24574200000001</ele>
        <time>2023-10-21T09:12:22Z</time>
      </trkpt>
      <trkpt lat="50.68599896505475" lon="6.107680024579167">
        <ele>286.633531</ele>
        <time>2023-10-21T09:12:40Z</time>
      </trkpt>
      <trkpt lat="50.685906009748578" lon="6.107684969902039">
        <ele>286.34512799999999</ele>
        <time>2023-10-21T09:12:49Z</time>
      </trkpt>
      <trkpt lat="50.685710962861776" lon="6.107760993763804">
        <ele>285.72194500000001</ele>
        <time>2023-10-21T09:13:04Z</time>
      </trkpt>
      <trkpt lat="50.685614990070462" lon="6.107775997370482">
        <ele>285.422957</ele>
        <time>2023-10-21T09:13:12Z</time>
      </trkpt>
      <trkpt lat="50.68552304059267" lon="6.107765017077327">
        <ele>285.13700299999999</ele>
        <time>2023-10-21T09:13:19Z</time>
      </trkpt>
      <trkpt lat="50.685422038659453" lon="6.107785971835256">
        <ele>284.82126799999998</ele>
        <time>2023-10-21T09:13:27Z</time>
      </trkpt>
      <trkpt lat="50.68533101119101" lon="6.107810027897358">
        <ele>284.53532100000001</ele>
        <time>2023-10-21T09:13:35Z</time>
      </trkpt>
      <trkpt lat="50.685238977894187" lon="6.107812039554119">
        <ele>284.250157</ele>
        <time>2023-10-21T09:13:42Z</time>
      </trkpt>
      <trkpt lat="50.685141999274492" lon="6.107887979596853">
        <ele>283.91451999999998</ele>
        <time>2023-10-21T09:13:50Z</time>
      </trkpt>
      <trkpt lat="50.685149962082505" lon="6.10803198069334">
        <ele>283.63066700000002</ele>
        <time>2023-10-21T09:14:01Z</time>
      </trkpt>
      <trkpt lat="50.685209976509213" lon="6.108152009546757">
        <ele>283.330489</ele>
        <time>2023-10-21T09:14:06Z</time>
      </trkpt>
      <trkpt lat="50.685249958187342" lon="6.108284024521709">
        <ele>283.04316399999999</ele>
        <time>2023-10-21T09:14:13Z</time>
      </trkpt>
      <trkpt lat="50.685294969007373" lon="6.108420984819531">
        <ele>282.74409400000002</ele>
        <time>2023-10-21T09:14:20Z</time>
      </trkpt>
      <trkpt lat="50.68533101119101" lon="6.108571020886302">
        <ele>282.45901099999998</ele>
        <time>2023-10-21T09:14:27Z</time>
      </trkpt>
      <trkpt lat="50.685367975383997" lon="6.108714016154409">
        <ele>282.18447800000001</ele>
        <time>2023-10-21T09:14:35Z</time>
      </trkpt>
      <trkpt lat="50.685405023396015" lon="6.10884896479547">
        <ele>281.92305399999998</ele>
        <time>2023-10-21T09:14:44Z</time>
      </trkpt>
      <trkpt lat="50.685464031994343" lon="6.108965976163745">
        <ele>281.657284</ele>
        <time>2023-10-21T09:14:50Z</time>
      </trkpt>
      <trkpt lat="50.6855249684304" lon="6.109084999188781">
        <ele>281.38523099999998</ele>
        <time>2023-10-21T09:14:59Z</time>
      </trkpt>
      <trkpt lat="50.68558800034225" lon="6.109196981415153">
        <ele>281.11904199999998</ele>
        <time>2023-10-21T09:15:04Z</time>
      </trkpt>
      <trkpt lat="50.685643991455436" lon="6.109309969469905">
        <ele>280.86406699999998</ele>
        <time>2023-10-21T09:15:12Z</time>
      </trkpt>
      <trkpt lat="50.685708029195666" lon="6.109421029686928">
        <ele>280.59732400000001</ele>
        <time>2023-10-21T09:15:21Z</time>
      </trkpt>
      <trkpt lat="50.685770977288485" lon="6.109544998034835">
        <ele>280.31483200000002</ele>
        <time>2023-10-21T09:15:28Z</time>
      </trkpt>
      <trkpt lat="50.685941968113184" lon="6.110102981328964">
        <ele>279.19445200000001</ele>
        <time>2023-10-21T09:15:59Z</time>
      </trkpt>
      <trkpt lat="50.685973986983299" lon="6.110260980203748">
        <ele>278.89964099999997</ele>
        <time>2023-10-21T09:16:07Z</time>
      </trkpt>
      <trkpt lat="50.686005000025034" lon="6.110417973250151">
        <ele>278.60737</ele>
        <time>2023-10-21T09:16:16Z</time>
      </trkpt>
      <trkpt lat="50.686034001410007" lon="6.110556023195386">
        <ele>278.34896500000002</ele>
        <time>2023-10-21T09:16:24Z</time>
      </trkpt>
      <trkpt lat="50.686093010008335" lon="6.110682003200054">
        <ele>278.07050400000003</ele>
        <time>2023-10-21T09:16:31Z</time>
      </trkpt>
      <trkpt lat="50.686133997514844" lon="6.110818963497877">
        <ele>277.801219</ele>
        <time>2023-10-21T09:16:39Z</time>
      </trkpt>
      <trkpt lat="50.686184959486127" lon="6.110941004008055">
        <ele>277.88239399999998</ele>
        <time>2023-10-21T09:16:46Z</time>
      </trkpt>
      <trkpt lat="50.686204992234707" lon="6.111085005104542">
        <ele>278.07892399999997</ele>
        <time>2023-10-21T09:16:53Z</time>
      </trkpt>
      <trkpt lat="50.686225024983287" lon="6.111224982887507">
        <ele>278.27024899999998</ele>
        <time>2023-10-21T09:17:00Z</time>
      </trkpt>
      <trkpt lat="50.686268024146557" lon="6.111365966498852">
        <ele>278.47886299999999</ele>
        <time>2023-10-21T09:17:07Z</time>
      </trkpt>
      <trkpt lat="50.686293002218008" lon="6.111521031707525">
        <ele>278.69209000000001</ele>
        <time>2023-10-21T09:17:15Z</time>
      </trkpt>
      <trkpt lat="50.68631999194622" lon="6.111663021147251">
        <ele>278.88973600000003</ele>
        <time>2023-10-21T09:17:22Z</time>
      </trkpt>
      <trkpt lat="50.686371959745884" lon="6.111797969788313">
        <ele>279.10036000000002</ele>
        <time>2023-10-21T09:17:29Z</time>
      </trkpt>
      <trkpt lat="50.686401966959238" lon="6.111954040825367">
        <ele>279.31769700000001</ele>
        <time>2023-10-21T09:17:37Z</time>
      </trkpt>
      <trkpt lat="50.686420993879437" lon="6.112100975587964">
        <ele>279.51770399999998</ele>
        <time>2023-10-21T09:17:45Z</time>
      </trkpt>
      <trkpt lat="50.686433985829353" lon="6.112252017483115">
        <ele>279.72085600000003</ele>
        <time>2023-10-21T09:17:54Z</time>
      </trkpt>
      <trkpt lat="50.686477990821004" lon="6.11239199526608">
        <ele>279.92919599999999</ele>
        <time>2023-10-21T09:18:01Z</time>
      </trkpt>
      <trkpt lat="50.686535993590951" lon="6.112525016069412">
        <ele>280.14444400000002</ele>
        <time>2023-10-21T09:18:09Z</time>
      </trkpt>
      <trkpt lat="50.686557032167912" lon="6.112681003287435">
        <ele>280.35705400000001</ele>
        <time>2023-10-21T09:18:17Z</time>
      </trkpt>
      <trkpt lat="50.686627021059394" lon="6.112796002998948">
        <ele>280.56965400000001</ele>
        <time>2023-10-21T09:18:24Z</time>
      </trkpt>
      <trkpt lat="50.686702961102128" lon="6.112877978011966">
        <ele>280.76336400000002</ele>
        <time>2023-10-21T09:18:38Z</time>
      </trkpt>
      <trkpt lat="50.68679197691381" lon="6.11295098438859">
        <ele>280.97441199999997</ele>
        <time>2023-10-21T09:18:45Z</time>
      </trkpt>
      <trkpt lat="50.686852997168899" lon="6.113073024898768">
        <ele>281.1816</ele>
        <time>2023-10-21T09:18:55Z</time>
      </trkpt>
      <trkpt lat="50.686914017423987" lon="6.113191964104772">
        <ele>281.38566300000002</ele>
        <time>2023-10-21T09:19:03Z</time>
      </trkpt>
      <trkpt lat="50.68698400631547" lon="6.11329497769475">
        <ele>281.59163899999999</ele>
        <time>2023-10-21T09:19:10Z</time>
      </trkpt>
      <trkpt lat="50.687055001035333" lon="6.113395979627967">
        <ele>281.80677300000002</ele>
        <time>2023-10-21T09:19:17Z</time>
      </trkpt>
      <trkpt lat="50.68709397688508" lon="6.113525982946158">
        <ele>282.011888</ele>
        <time>2023-10-21T09:19:24Z</time>
      </trkpt>
      <trkpt lat="50.68713697604835" lon="6.113657997921109">
        <ele>282.223546</ele>
        <time>2023-10-21T09:19:31Z</time>
      </trkpt>
      <trkpt lat="50.687187016010284" lon="6.1137880012393">
        <ele>282.44041399999998</ele>
        <time>2023-10-21T09:19:38Z</time>
      </trkpt>
      <trkpt lat="50.687230015173554" lon="6.113924961537123">
        <ele>282.65843799999999</ele>
        <time>2023-10-21T09:19:45Z</time>
      </trkpt>
      <trkpt lat="50.687267985194921" lon="6.114059993997216">
        <ele>282.86909400000002</ele>
        <time>2023-10-21T09:19:53Z</time>
      </trkpt>
      <trkpt lat="50.687321964651346" lon="6.114187985658646">
        <ele>283.08838800000001</ele>
        <time>2023-10-21T09:20:00Z</time>
      </trkpt>
      <trkpt lat="50.687378961592913" lon="6.11430499702692">
        <ele>283.298855</ele>
        <time>2023-10-21T09:20:06Z</time>
      </trkpt>
      <trkpt lat="50.687425984069705" lon="6.114430977031589">
        <ele>283.507362</ele>
        <time>2023-10-21T09:20:12Z</time>
      </trkpt>
      <trkpt lat="50.687464959919453" lon="6.114560980349779">
        <ele>283.71247499999998</ele>
        <time>2023-10-21T09:20:20Z</time>
      </trkpt>
      <trkpt lat="50.687518017366529" lon="6.114705987274647">
        <ele>283.95119</ele>
        <time>2023-10-21T09:20:28Z</time>
      </trkpt>
      <trkpt lat="50.687567973509431" lon="6.114830961450934">
        <ele>284.16199499999999</ele>
        <time>2023-10-21T09:20:35Z</time>
      </trkpt>
      <trkpt lat="50.687616001814604" lon="6.114953001961112">
        <ele>284.366784</ele>
        <time>2023-10-21T09:20:41Z</time>
      </trkpt>
      <trkpt lat="50.687662018463016" lon="6.11507898196578">
        <ele>284.57415700000001</ele>
        <time>2023-10-21T09:20:48Z</time>
      </trkpt>
      <trkpt lat="50.687732007354498" lon="6.115193981677294">
        <ele>284.80157000000003</ele>
        <time>2023-10-21T09:20:56Z</time>
      </trkpt>
      <trkpt lat="50.687792021781206" lon="6.115306969732046">
        <ele>285.01181600000001</ele>
        <time>2023-10-21T09:21:03Z</time>
      </trkpt>
      <trkpt lat="50.687829991802573" lon="6.115446025505662">
        <ele>285.22769599999998</ele>
        <time>2023-10-21T09:21:12Z</time>
      </trkpt>
      <trkpt lat="50.687885982915759" lon="6.115564964711666">
        <ele>285.43907999999999</ele>
        <time>2023-10-21T09:21:19Z</time>
      </trkpt>
      <trkpt lat="50.687933005392551" lon="6.115712989121676">
        <ele>285.44468499999999</ele>
        <time>2023-10-21T09:21:27Z</time>
      </trkpt>
      <trkpt lat="50.688001988455653" lon="6.115813991054893">
        <ele>285.1952</ele>
        <time>2023-10-21T09:21:33Z</time>
      </trkpt>
      <trkpt lat="50.688068959861994" lon="6.115929996594787">
        <ele>284.93154500000003</ele>
        <time>2023-10-21T09:21:40Z</time>
      </trkpt>
      <trkpt lat="50.688126040622592" lon="6.116055976599455">
        <ele>284.67149699999999</ele>
        <time>2023-10-21T09:21:49Z</time>
      </trkpt>
      <trkpt lat="50.688173985108733" lon="6.116190003231168">
        <ele>284.41294099999999</ele>
        <time>2023-10-21T09:21:57Z</time>
      </trkpt>
      <trkpt lat="50.688379006460309" lon="6.116673974320293">
        <ele>283.41191700000002</ele>
        <time>2023-10-21T09:22:25Z</time>
      </trkpt>
      <trkpt lat="50.688413036987185" lon="6.116824010387063">
        <ele>283.14433300000002</ele>
        <time>2023-10-21T09:22:33Z</time>
      </trkpt>
      <trkpt lat="50.688440026715398" lon="6.116964993998408">
        <ele>282.89692500000001</ele>
        <time>2023-10-21T09:22:41Z</time>
      </trkpt>
      <trkpt lat="50.688459975644946" lon="6.117115030065179">
        <ele>282.63946299999998</ele>
        <time>2023-10-21T09:22:49Z</time>
      </trkpt>
      <trkpt lat="50.688520995900035" lon="6.117236986756325">
        <ele>282.37842000000001</ele>
        <time>2023-10-21T09:22:57Z</time>
      </trkpt>
      <trkpt lat="50.688857026398182" lon="6.118641961365938">
        <ele>281.04769599999997</ele>
        <time>2023-10-21T09:24:09Z</time>
      </trkpt>
      <trkpt lat="50.688842022791505" lon="6.118798032402992">
        <ele>281.11476199999998</ele>
        <time>2023-10-21T09:24:17Z</time>
      </trkpt>
      <trkpt lat="50.688846968114376" lon="6.118948990479112">
        <ele>281.17903200000001</ele>
        <time>2023-10-21T09:24:25Z</time>
      </trkpt>
      <trkpt lat="50.688899019733071" lon="6.119069019332528">
        <ele>281.24082700000002</ele>
        <time>2023-10-21T09:24:31Z</time>
      </trkpt>
      <trkpt lat="50.689575020223856" lon="6.120673986151815">
        <ele>282.007972</ele>
        <time>2023-10-21T09:26:15Z</time>
      </trkpt>
      <trkpt lat="50.689650038257241" lon="6.120754033327103">
        <ele>282.00832500000001</ele>
        <time>2023-10-21T09:26:22Z</time>
      </trkpt>
      <trkpt lat="50.689725978299975" lon="6.1208560410887">
        <ele>282.008715</ele>
        <time>2023-10-21T09:26:30Z</time>
      </trkpt>
      <trkpt lat="50.689793033525348" lon="6.120952013880014">
        <ele>282.00906800000001</ele>
        <time>2023-10-21T09:26:37Z</time>
      </trkpt>
      <trkpt lat="50.689881965517998" lon="6.121003981679678">
        <ele>282.00943899999999</ele>
        <time>2023-10-21T09:26:45Z</time>
      </trkpt>
      <trkpt lat="50.689980033785105" lon="6.121075982227922">
        <ele>282.009861</ele>
        <time>2023-10-21T09:26:52Z</time>
      </trkpt>
      <trkpt lat="50.690068965777755" lon="6.121121998876333">
        <ele>282.01022599999999</ele>
        <time>2023-10-21T09:27:01Z</time>
      </trkpt>
      <trkpt lat="50.690168961882591" lon="6.121144965291023">
        <ele>282.01062100000001</ele>
        <time>2023-10-21T09:27:07Z</time>
      </trkpt>
      <trkpt lat="50.690271975472569" lon="6.121187964454293">
        <ele>282.01103699999999</ele>
        <time>2023-10-21T09:27:16Z</time>
      </trkpt>
      <trkpt lat="50.690360991284251" lon="6.121240016072989">
        <ele>282.01140800000002</ele>
        <time>2023-10-21T09:27:25Z</time>
      </trkpt>
      <trkpt lat="50.690354034304619" lon="6.121398014947772">
        <ele>282.011799</ele>
        <time>2023-10-21T09:27:33Z</time>
      </trkpt>
      <trkpt lat="50.690321009606123" lon="6.121540004387498">
        <ele>282.01217300000002</ele>
        <time>2023-10-21T09:27:41Z</time>
      </trkpt>
      <trkpt lat="50.690329978242517" lon="6.121708983555436">
        <ele>282.01259299999998</ele>
        <time>2023-10-21T09:27:50Z</time>
      </trkpt>
      <trkpt lat="50.690312962979078" lon="6.121853990480304">
        <ele>282.01295800000003</ele>
        <time>2023-10-21T09:27:57Z</time>
      </trkpt>
      <trkpt lat="50.690287984907627" lon="6.122006960213184">
        <ele>282.01334900000001</ele>
        <time>2023-10-21T09:28:06Z</time>
      </trkpt>
      <trkpt lat="50.690270969644189" lon="6.122148027643561">
        <ele>282.01370400000002</ele>
        <time>2023-10-21T09:28:13Z</time>
      </trkpt>
      <trkpt lat="50.690193017944694" lon="6.122433012351394">
        <ele>282.01449200000002</ele>
        <time>2023-10-21T09:28:27Z</time>
      </trkpt>
      <trkpt lat="50.690124034881592" lon="6.122547006234527">
        <ele>282.20999599999999</ele>
        <time>2023-10-21T09:28:35Z</time>
      </trkpt>
      <trkpt lat="50.690038958564401" lon="6.122636022046208">
        <ele>282.44908800000002</ele>
        <time>2023-10-21T09:28:41Z</time>
      </trkpt>
      <trkpt lat="50.689939968287945" lon="6.122701987624168">
        <ele>282.70099399999998</ele>
        <time>2023-10-21T09:28:48Z</time>
      </trkpt>
      <trkpt lat="50.689874002709985" lon="6.12281396985054">
        <ele>282.92814099999998</ele>
        <time>2023-10-21T09:28:56Z</time>
      </trkpt>
      <trkpt lat="50.689791021868587" lon="6.1228989623487">
        <ele>283.160055</ele>
        <time>2023-10-21T09:29:04Z</time>
      </trkpt>
      <trkpt lat="50.689714998006821" lon="6.122981021180749">
        <ele>283.37584099999998</ele>
        <time>2023-10-21T09:29:12Z</time>
      </trkpt>
      <trkpt lat="50.689636962488294" lon="6.123056039214134">
        <ele>283.58992699999999</ele>
        <time>2023-10-21T09:29:21Z</time>
      </trkpt>
      <trkpt lat="50.68956102244556" lon="6.12313499674201">
        <ele>283.80323099999998</ele>
        <time>2023-10-21T09:29:27Z</time>
      </trkpt>
      <trkpt lat="50.68947896361351" lon="6.123214038088918">
        <ele>284.028414</ele>
        <time>2023-10-21T09:29:36Z</time>
      </trkpt>
      <trkpt lat="50.689402017742395" lon="6.123290983960033">
        <ele>284.242076</ele>
        <time>2023-10-21T09:29:43Z</time>
      </trkpt>
      <trkpt lat="50.689231026917696" lon="6.123446971178055">
        <ele>284.70999499999999</ele>
        <time>2023-10-21T09:29:59Z</time>
      </trkpt>
      <trkpt lat="50.689163971692324" lon="6.123568005859852">
        <ele>284.94864100000001</ele>
        <time>2023-10-21T09:30:09Z</time>
      </trkpt>
      <trkpt lat="50.689089959487319" lon="6.12367001362145">
        <ele>285.17892599999999</ele>
        <time>2023-10-21T09:30:18Z</time>
      </trkpt>
      <trkpt lat="50.689033968374133" lon="6.123784007504582">
        <ele>285.393145</ele>
        <time>2023-10-21T09:30:26Z</time>
      </trkpt>
      <trkpt lat="50.688974037766457" lon="6.123911999166012">
        <ele>285.62960099999998</ele>
        <time>2023-10-21T09:30:34Z</time>
      </trkpt>
      <trkpt lat="50.688932966440916" lon="6.124038984999061">
        <ele>285.841272</ele>
        <time>2023-10-21T09:30:42Z</time>
      </trkpt>
      <trkpt lat="50.688664996996522" lon="6.12494096159935">
        <ele>286.82030400000002</ele>
        <time>2023-10-21T09:31:34Z</time>
      </trkpt>
      <trkpt lat="50.68859601393342" lon="6.125041041523218">
        <ele>286.92340999999999</ele>
        <time>2023-10-21T09:31:42Z</time>
      </trkpt>
      <trkpt lat="50.688527030870318" lon="6.125170039013028">
        <ele>287.04113899999999</ele>
        <time>2023-10-21T09:31:53Z</time>
      </trkpt>
      <trkpt lat="50.688481014221907" lon="6.125297024846077">
        <ele>287.14315199999999</ele>
        <time>2023-10-21T09:32:01Z</time>
      </trkpt>
      <trkpt lat="50.688425023108721" lon="6.12541101872921">
        <ele>287.24374499999999</ele>
        <time>2023-10-21T09:32:08Z</time>
      </trkpt>
      <trkpt lat="50.68840398453176" lon="6.125549990683794">
        <ele>287.34339299999999</ele>
        <time>2023-10-21T09:32:17Z</time>
      </trkpt>
      <trkpt lat="50.688452012836933" lon="6.125686028972268">
        <ele>287.451954</ele>
        <time>2023-10-21T09:32:26Z</time>
      </trkpt>
      <trkpt lat="50.688497023656964" lon="6.125821983441711">
        <ele>287.55894599999999</ele>
        <time>2023-10-21T09:32:35Z</time>
      </trkpt>
      <trkpt lat="50.688514038920403" lon="6.125972019508481">
        <ele>287.66520700000001</ele>
        <time>2023-10-21T09:32:42Z</time>
      </trkpt>
      <trkpt lat="50.688522001728415" lon="6.126127000898123">
        <ele>287.77365099999997</ele>
        <time>2023-10-21T09:32:49Z</time>
      </trkpt>
      <trkpt lat="50.688549997285008" lon="6.126277958974242">
        <ele>287.88336600000002</ele>
        <time>2023-10-21T09:32:56Z</time>
      </trkpt>
      <trkpt lat="50.688547985628247" lon="6.126427995041013">
        <ele>287.98798900000003</ele>
        <time>2023-10-21T09:33:03Z</time>
      </trkpt>
      <trkpt lat="50.688549997285008" lon="6.126577025279403">
        <ele>288.09191499999997</ele>
        <time>2023-10-21T09:33:10Z</time>
      </trkpt>
      <trkpt lat="50.688551003113389" lon="6.126732006669045">
        <ele>288.20000700000003</ele>
        <time>2023-10-21T09:33:18Z</time>
      </trkpt>
      <trkpt lat="50.68857598118484" lon="6.126876007765532">
        <ele>288.37323199999997</ele>
        <time>2023-10-21T09:33:26Z</time>
      </trkpt>
      <trkpt lat="50.688601965084672" lon="6.12702302634716">
        <ele>288.55812800000001</ele>
        <time>2023-10-21T09:33:34Z</time>
      </trkpt>
      <trkpt lat="50.688630966469646" lon="6.127164009958506">
        <ele>288.73772100000002</ele>
        <time>2023-10-21T09:33:42Z</time>
      </trkpt>
      <trkpt lat="50.688686035573483" lon="6.127298958599567">
        <ele>288.93216699999999</ele>
        <time>2023-10-21T09:33:50Z</time>
      </trkpt>
      <trkpt lat="50.688752001151443" lon="6.127401972189546">
        <ele>289.109645</ele>
        <time>2023-10-21T09:33:56Z</time>
      </trkpt>
      <trkpt lat="50.688798017799854" lon="6.127530969679356">
        <ele>289.28897899999998</ele>
        <time>2023-10-21T09:34:03Z</time>
      </trkpt>
      <trkpt lat="50.688859960064292" lon="6.127638006582856">
        <ele>289.46464600000002</ele>
        <time>2023-10-21T09:34:07Z</time>
      </trkpt>
      <trkpt lat="50.688902959227562" lon="6.127764992415905">
        <ele>289.639096</ele>
        <time>2023-10-21T09:34:14Z</time>
      </trkpt>
      <trkpt lat="50.688971020281315" lon="6.127874040976167">
        <ele>289.82442099999997</ele>
        <time>2023-10-21T09:34:24Z</time>
      </trkpt>
      <trkpt lat="50.689049977809191" lon="6.127980994060636">
        <ele>290.02347800000001</ele>
        <time>2023-10-21T09:34:34Z</time>
      </trkpt>
      <trkpt lat="50.689135976135731" lon="6.128081995993853">
        <ele>290.22845599999999</ele>
        <time>2023-10-21T09:34:41Z</time>
      </trkpt>
      <trkpt lat="50.68921803496778" lon="6.128190960735083">
        <ele>290.43345299999999</ele>
        <time>2023-10-21T09:34:52Z</time>
      </trkpt>
      <trkpt lat="50.68930403329432" lon="6.12827000208199">
        <ele>290.62372699999997</ele>
        <time>2023-10-21T09:34:58Z</time>
      </trkpt>
      <trkpt lat="50.689372010529041" lon="6.128374021500349">
        <ele>290.80478499999998</ele>
        <time>2023-10-21T09:35:03Z</time>
      </trkpt>
      <trkpt lat="50.68941299803555" lon="6.128513999283314">
        <ele>290.99163199999998</ele>
        <time>2023-10-21T09:35:11Z</time>
      </trkpt>
      <trkpt lat="50.689354995265603" lon="6.128621958196163">
        <ele>291.16315200000003</ele>
        <time>2023-10-21T09:35:15Z</time>
      </trkpt>
      <trkpt lat="50.689276037737727" lon="6.128694964572787">
        <ele>291.33819999999997</ele>
        <time>2023-10-21T09:35:22Z</time>
      </trkpt>
      <trkpt lat="50.68917402997613" lon="6.128786997869611">
        <ele>291.56284599999998</ele>
        <time>2023-10-21T09:35:27Z</time>
      </trkpt>
      <trkpt lat="50.689114015549421" lon="6.128904009237886">
        <ele>291.396792</ele>
        <time>2023-10-21T09:35:40Z</time>
      </trkpt>
      <trkpt lat="50.688265012577176" lon="6.129950992763042">
        <ele>285.89033799999999</ele>
        <time>2023-10-21T09:37:04Z</time>
      </trkpt>
      <trkpt lat="50.688214972615242" lon="6.13007303327322">
        <ele>285.423362</ele>
        <time>2023-10-21T09:37:34Z</time>
      </trkpt>
      <trkpt lat="50.688242968171835" lon="6.130207981914282">
        <ele>284.966835</ele>
        <time>2023-10-21T09:37:42Z</time>
      </trkpt>
      <trkpt lat="50.688271969556808" lon="6.130367992445827">
        <ele>284.43199099999998</ele>
        <time>2023-10-21T09:37:50Z</time>
      </trkpt>
      <trkpt lat="50.688300970941782" lon="6.130506964400411">
        <ele>283.96166899999997</ele>
        <time>2023-10-21T09:37:57Z</time>
      </trkpt>
      <trkpt lat="50.688315974548459" lon="6.13065498881042">
        <ele>283.47997400000003</ele>
        <time>2023-10-21T09:38:05Z</time>
      </trkpt>
      <trkpt lat="50.688307005912066" lon="6.130797984078527">
        <ele>283.01813299999998</ele>
        <time>2023-10-21T09:38:10Z</time>
      </trkpt>
      <trkpt lat="50.688310023397207" lon="6.130949025973678">
        <ele>282.53260599999999</ele>
        <time>2023-10-21T09:38:18Z</time>
      </trkpt>
      <trkpt lat="50.68889700807631" lon="6.132058035582304">
        <ele>282.49155200000001</ele>
        <time>2023-10-21T09:39:42Z</time>
      </trkpt>
      <trkpt lat="50.688965991139412" lon="6.132182003930211">
        <ele>282.48789299999999</ele>
        <time>2023-10-21T09:39:49Z</time>
      </trkpt>
      <trkpt lat="50.68908903747797" lon="6.132370010018349">
        <ele>282.48141399999997</ele>
        <time>2023-10-21T09:40:07Z</time>
      </trkpt>
      <trkpt lat="50.689150979742408" lon="6.132484003901482">
        <ele>282.47808400000002</ele>
        <time>2023-10-21T09:40:14Z</time>
      </trkpt>
      <trkpt lat="50.689227003604174" lon="6.132577965036035">
        <ele>282.47470499999997</ele>
        <time>2023-10-21T09:40:23Z</time>
      </trkpt>
      <trkpt lat="50.689290035516024" lon="6.132681984454393">
        <ele>282.47151500000001</ele>
        <time>2023-10-21T09:40:32Z</time>
      </trkpt>
      <trkpt lat="50.689364969730377" lon="6.132765971124172">
        <ele>282.468298</ele>
        <time>2023-10-21T09:40:39Z</time>
      </trkpt>
      <trkpt lat="50.689426995813847" lon="6.132899997755885">
        <ele>282.46461900000003</ele>
        <time>2023-10-21T09:40:47Z</time>
      </trkpt>
      <trkpt lat="50.689701000228524" lon="6.133307022973895">
        <ele>282.326549</ele>
        <time>2023-10-21T09:41:20Z</time>
      </trkpt>
      <trkpt lat="50.689840978011489" lon="6.133417999371886">
        <ele>282.26117599999998</ele>
        <time>2023-10-21T09:41:57Z</time>
      </trkpt>
      <trkpt lat="50.689923036843538" lon="6.133496034890413">
        <ele>282.221228</ele>
        <time>2023-10-21T09:42:06Z</time>
      </trkpt>
      <trkpt lat="50.689989002421498" lon="6.133608017116785">
        <ele>282.18079299999999</ele>
        <time>2023-10-21T09:42:12Z</time>
      </trkpt>
      <trkpt lat="50.690056979656219" lon="6.133712036535144">
        <ele>282.14128499999998</ele>
        <time>2023-10-21T09:42:20Z</time>
      </trkpt>
      <trkpt lat="50.690196035429835" lon="6.13389803096652">
        <ele>282.061016</ele>
        <time>2023-10-21T09:42:37Z</time>
      </trkpt>
      <trkpt lat="50.690194023773074" lon="6.134046977385879">
        <ele>282.02161999999998</ele>
        <time>2023-10-21T09:42:45Z</time>
      </trkpt>
      <trkpt lat="50.690237022936344" lon="6.13417798653245">
        <ele>281.982619</ele>
        <time>2023-10-21T09:42:52Z</time>
      </trkpt>
      <trkpt lat="50.690392004325986" lon="6.134279994294047">
        <ele>281.90599300000002</ele>
        <time>2023-10-21T09:43:07Z</time>
      </trkpt>
      <trkpt lat="50.690435003489256" lon="6.134418966248632">
        <ele>281.86510299999998</ele>
        <time>2023-10-21T09:43:15Z</time>
      </trkpt>
      <trkpt lat="50.690669026225805" lon="6.134846024215221">
        <ele>281.68476099999998</ele>
        <time>2023-10-21T09:43:45Z</time>
      </trkpt>
      <trkpt lat="50.690732980147004" lon="6.134953983128071">
        <ele>281.427728</ele>
        <time>2023-10-21T09:43:52Z</time>
      </trkpt>
      <trkpt lat="50.690789977088571" lon="6.135093038901687">
        <ele>281.13994200000002</ele>
        <time>2023-10-21T09:43:59Z</time>
      </trkpt>
      <trkpt lat="50.690862983465195" lon="6.135190017521381">
        <ele>280.878151</ele>
        <time>2023-10-21T09:44:07Z</time>
      </trkpt>
      <trkpt lat="50.690901037305593" lon="6.135328989475966">
        <ele>280.615027</ele>
        <time>2023-10-21T09:44:14Z</time>
      </trkpt>
      <trkpt lat="50.690953005105257" lon="6.135453963652253">
        <ele>280.35511600000001</ele>
        <time>2023-10-21T09:44:23Z</time>
      </trkpt>
      <trkpt lat="50.691212005913258" lon="6.135582039132714">
        <ele>279.52173599999998</ele>
        <time>2023-10-21T09:44:49Z</time>
      </trkpt>
      <trkpt lat="50.691298004239798" lon="6.135625038295984">
        <ele>279.27423800000003</ele>
        <time>2023-10-21T09:44:56Z</time>
      </trkpt>
      <trkpt lat="50.691402023658156" lon="6.135600982233882">
        <ele>278.98587600000002</ele>
        <time>2023-10-21T09:45:05Z</time>
      </trkpt>
      <trkpt lat="50.691491039469838" lon="6.135656973347068">
        <ele>278.72301700000003</ele>
        <time>2023-10-21T09:45:10Z</time>
      </trkpt>
      <trkpt lat="50.69156102836132" lon="6.135755041614175">
        <ele>278.466319</ele>
        <time>2023-10-21T09:45:18Z</time>
      </trkpt>
      <trkpt lat="50.691648032516241" lon="6.135798962786794">
        <ele>278.21567900000002</ele>
        <time>2023-10-21T09:45:24Z</time>
      </trkpt>
      <trkpt lat="50.691697988659143" lon="6.135943969711661">
        <ele>277.92874999999998</ele>
        <time>2023-10-21T09:45:32Z</time>
      </trkpt>
      <trkpt lat="50.691678961738944" lon="6.13609098829329">
        <ele>277.66799800000001</ele>
        <time>2023-10-21T09:45:40Z</time>
      </trkpt>
      <trkpt lat="50.691660018637776" lon="6.136241024360061">
        <ele>277.40213399999999</ele>
        <time>2023-10-21T09:45:48Z</time>
      </trkpt>
      <trkpt lat="50.691514005884528" lon="6.136632040143013">
        <ele>276.49465400000003</ele>
        <time>2023-10-21T09:46:10Z</time>
      </trkpt>
      <trkpt lat="50.691457008942962" lon="6.136757014319301">
        <ele>276.07975800000003</ele>
        <time>2023-10-21T09:46:17Z</time>
      </trkpt>
      <trkpt lat="50.69141099229455" lon="6.136881988495588">
        <ele>275.690335</ele>
        <time>2023-10-21T09:46:24Z</time>
      </trkpt>
      <trkpt lat="50.691347038373351" lon="6.136985002085567">
        <ele>275.30167799999998</ele>
        <time>2023-10-21T09:46:31Z</time>
      </trkpt>
      <trkpt lat="50.691283000633121" lon="6.137107964605093">
        <ele>274.87289399999997</ele>
        <time>2023-10-21T09:46:41Z</time>
      </trkpt>
      <trkpt lat="50.691244024783373" lon="6.137246014550328">
        <ele>274.46582599999999</ele>
        <time>2023-10-21T09:46:50Z</time>
      </trkpt>
      <trkpt lat="50.691192978993058" lon="6.13737802952528">
        <ele>274.04932100000002</ele>
        <time>2023-10-21T09:46:58Z</time>
      </trkpt>
      <trkpt lat="50.691131958737969" lon="6.137499986216426">
        <ele>273.63063499999998</ele>
        <time>2023-10-21T09:47:07Z</time>
      </trkpt>
      <trkpt lat="50.691082002595067" lon="6.137622026726604">
        <ele>273.23920399999997</ele>
        <time>2023-10-21T09:47:14Z</time>
      </trkpt>
      <trkpt lat="50.691072028130293" lon="6.137770973145962">
        <ele>272.83557000000002</ele>
        <time>2023-10-21T09:47:31Z</time>
      </trkpt>
      <trkpt lat="50.691150985658169" lon="6.137856971472502">
        <ele>272.42749500000002</ele>
        <time>2023-10-21T09:47:38Z</time>
      </trkpt>
      <trkpt lat="50.691219968721271" lon="6.137957973405719">
        <ele>272.02734600000002</ele>
        <time>2023-10-21T09:47:45Z</time>
      </trkpt>
      <trkpt lat="50.691295992583036" lon="6.138059981167316">
        <ele>271.60314599999998</ele>
        <time>2023-10-21T09:47:52Z</time>
      </trkpt>
      <trkpt lat="50.69136799313128" lon="6.138146985322237">
        <ele>271.21757200000002</ele>
        <time>2023-10-21T09:48:07Z</time>
      </trkpt>
      <trkpt lat="50.691442005336285" lon="6.138233989477158">
        <ele>270.82521100000002</ele>
        <time>2023-10-21T09:48:13Z</time>
      </trkpt>
      <trkpt lat="50.691659012809396" lon="6.138545963913202">
        <ele>269.55658799999998</ele>
        <time>2023-10-21T09:48:35Z</time>
      </trkpt>
      <trkpt lat="50.691722966730595" lon="6.138649983331561">
        <ele>269.16600399999999</ele>
        <time>2023-10-21T09:48:43Z</time>
      </trkpt>
      <trkpt lat="50.691807959228754" lon="6.138715026900172">
        <ele>268.78698900000001</ele>
        <time>2023-10-21T09:48:50Z</time>
      </trkpt>
      <trkpt lat="50.691887000575662" lon="6.138798007741571">
        <ele>268.40847500000001</ele>
        <time>2023-10-21T09:48:59Z</time>
      </trkpt>
      <trkpt lat="50.691937962546945" lon="6.138915019109845">
        <ele>268.04961800000001</ele>
        <time>2023-10-21T09:49:05Z</time>
      </trkpt>
      <trkpt lat="50.692005017772317" lon="6.139013003557921">
        <ele>267.68529100000001</ele>
        <time>2023-10-21T09:49:11Z</time>
      </trkpt>
      <trkpt lat="50.692105013877153" lon="6.139058014377952">
        <ele>267.27053699999999</ele>
        <time>2023-10-21T09:49:18Z</time>
      </trkpt>
      <trkpt lat="50.692189000546932" lon="6.13914099521935">
        <ele>266.87526600000001</ele>
        <time>2023-10-21T09:49:25Z</time>
      </trkpt>
      <trkpt lat="50.692280028015375" lon="6.139188017696142">
        <ele>266.49336599999998</ele>
        <time>2023-10-21T09:49:32Z</time>
      </trkpt>
      <trkpt lat="50.692306011915207" lon="6.139344004914165">
        <ele>266.085779</ele>
        <time>2023-10-21T09:49:40Z</time>
      </trkpt>
      <trkpt lat="50.692267036065459" lon="6.139474008232355">
        <ele>265.72233</ele>
        <time>2023-10-21T09:49:48Z</time>
      </trkpt>
      <trkpt lat="50.692177014425397" lon="6.139535028487444">
        <ele>265.33166199999999</ele>
        <time>2023-10-21T09:49:55Z</time>
      </trkpt>
      <trkpt lat="50.692089004442096" lon="6.139586996287108">
        <ele>264.95687500000003</ele>
        <time>2023-10-21T09:50:03Z</time>
      </trkpt>
      <trkpt lat="50.692007029429078" lon="6.139654973521829">
        <ele>264.58742100000001</ele>
        <time>2023-10-21T09:50:10Z</time>
      </trkpt>
      <trkpt lat="50.691922036930919" lon="6.13972102291882">
        <ele>264.20959099999999</ele>
        <time>2023-10-21T09:50:16Z</time>
      </trkpt>
      <trkpt lat="50.691836960613728" lon="6.139809032902122">
        <ele>263.80414500000001</ele>
        <time>2023-10-21T09:50:24Z</time>
      </trkpt>
      <trkpt lat="50.69175498560071" lon="6.139870975166559">
        <ele>263.44149299999998</ele>
        <time>2023-10-21T09:50:30Z</time>
      </trkpt>
      <trkpt lat="50.691664963960648" lon="6.139949010685086">
        <ele>263.03197</ele>
        <time>2023-10-21T09:50:38Z</time>
      </trkpt>
      <trkpt lat="50.691573014482856" lon="6.139998966827989">
        <ele>262.64387499999998</ele>
        <time>2023-10-21T09:50:46Z</time>
      </trkpt>
      <trkpt lat="50.69149699062109" lon="6.140074990689755">
        <ele>262.28502900000001</ele>
        <time>2023-10-21T09:50:53Z</time>
      </trkpt>
      <trkpt lat="50.691420966759324" lon="6.140187978744507">
        <ele>262.02667000000002</ele>
        <time>2023-10-21T09:51:00Z</time>
      </trkpt>
      <trkpt lat="50.691339997574687" lon="6.140264002606273">
        <ele>262.33937900000001</ele>
        <time>2023-10-21T09:51:07Z</time>
      </trkpt>
      <trkpt lat="50.691263973712921" lon="6.140352012589574">
        <ele>262.65217200000001</ele>
        <time>2023-10-21T09:51:13Z</time>
      </trkpt>
      <trkpt lat="50.691184010356665" lon="6.140425018966198">
        <ele>262.95882799999998</ele>
        <time>2023-10-21T09:51:20Z</time>
      </trkpt>
      <trkpt lat="50.691112009808421" lon="6.140520991757512">
        <ele>263.27159999999998</ele>
        <time>2023-10-21T09:51:27Z</time>
      </trkpt>
      <trkpt lat="50.691031962633133" lon="6.140592992305756">
        <ele>263.57720999999998</ele>
        <time>2023-10-21T09:51:34Z</time>
      </trkpt>
      <trkpt lat="50.690944958478212" lon="6.140672033652663">
        <ele>263.91029200000003</ele>
        <time>2023-10-21T09:51:42Z</time>
      </trkpt>
      <trkpt lat="50.690860971808434" lon="6.14073003642261">
        <ele>264.21455800000001</ele>
        <time>2023-10-21T09:51:50Z</time>
      </trkpt>
      <trkpt lat="50.690770028159022" lon="6.140808993950486">
        <ele>264.559211</ele>
        <time>2023-10-21T09:51:58Z</time>
      </trkpt>
      <trkpt lat="50.690701967105269" lon="6.140922987833619">
        <ele>264.88840199999999</ele>
        <time>2023-10-21T09:52:06Z</time>
      </trkpt>
      <trkpt lat="50.690649999305606" lon="6.141039999201894">
        <ele>265.188875</ele>
        <time>2023-10-21T09:52:14Z</time>
      </trkpt>
      <trkpt lat="50.690630972385406" lon="6.141189029440284">
        <ele>265.50841100000002</ele>
        <time>2023-10-21T09:52:22Z</time>
      </trkpt>
      <trkpt lat="50.690622003749013" lon="6.141339987516403">
        <ele>265.827271</ele>
        <time>2023-10-21T09:52:31Z</time>
      </trkpt>
      <trkpt lat="50.690601971000433" lon="6.141491029411554">
        <ele>266.15159299999999</ele>
        <time>2023-10-21T09:52:39Z</time>
      </trkpt>
      <trkpt lat="50.69057104177773" lon="6.141647016629577">
        <ele>266.49531999999999</ele>
        <time>2023-10-21T09:52:47Z</time>
      </trkpt>
      <trkpt lat="50.690537011250854" lon="6.141795963048935">
        <ele>266.82827500000002</ele>
        <time>2023-10-21T09:52:55Z</time>
      </trkpt>
      <trkpt lat="50.690512033179402" lon="6.141938036307693">
        <ele>267.138126</ele>
        <time>2023-10-21T09:53:02Z</time>
      </trkpt>
      <trkpt lat="50.690456964075565" lon="6.142066027969122">
        <ele>267.46329100000003</ele>
        <time>2023-10-21T09:53:10Z</time>
      </trkpt>
      <trkpt lat="50.690380018204451" lon="6.142154959961772">
        <ele>267.78000600000001</ele>
        <time>2023-10-21T09:53:18Z</time>
      </trkpt>
      <trkpt lat="50.690299971029162" lon="6.14225696772337">
        <ele>268.645782</ele>
        <time>2023-10-21T09:53:26Z</time>
      </trkpt>
      <trkpt lat="50.690230987966061" lon="6.142353024333715">
        <ele>269.76207199999999</ele>
        <time>2023-10-21T09:53:34Z</time>
      </trkpt>
      <trkpt lat="50.690153958275914" lon="6.14242896437645">
        <ele>270.86424699999998</ele>
        <time>2023-10-21T09:53:42Z</time>
      </trkpt>
      <trkpt lat="50.69007801823318" lon="6.142524015158415">
        <ele>272.04082</ele>
        <time>2023-10-21T09:53:50Z</time>
      </trkpt>
      <trkpt lat="50.68999201990664" lon="6.142589980736375">
        <ele>273.20139399999999</ele>
        <time>2023-10-21T09:53:58Z</time>
      </trkpt>
      <trkpt lat="50.689893029630184" lon="6.142619987949729">
        <ele>274.42486400000001</ele>
        <time>2023-10-21T09:54:07Z</time>
      </trkpt>
      <trkpt lat="50.689839972183108" lon="6.142741022631526">
        <ele>275.555925</ele>
        <time>2023-10-21T09:54:14Z</time>
      </trkpt>
      <trkpt lat="50.689762020483613" lon="6.142832972109318">
        <ele>276.73767500000002</ele>
        <time>2023-10-21T09:54:22Z</time>
      </trkpt>
      <trkpt lat="50.68966998718679" lon="6.142908995971084">
        <ele>277.99791299999998</ele>
        <time>2023-10-21T09:54:30Z</time>
      </trkpt>
      <trkpt lat="50.689578959718347" lon="6.142959035933018">
        <ele>279.16734500000001</ele>
        <time>2023-10-21T09:54:38Z</time>
      </trkpt>
      <trkpt lat="50.689490027725697" lon="6.143011003732681">
        <ele>280.31912899999998</ele>
        <time>2023-10-21T09:54:47Z</time>
      </trkpt>
      <trkpt lat="50.689420960843563" lon="6.143112005665898">
        <ele>281.46121299999999</ele>
        <time>2023-10-21T09:54:56Z</time>
      </trkpt>
      <trkpt lat="50.689345020800829" lon="6.14320102147758">
        <ele>282.60972199999998</ele>
        <time>2023-10-21T09:55:06Z</time>
      </trkpt>
      <trkpt lat="50.689270002767444" lon="6.143289031460881">
        <ele>283.74390499999998</ele>
        <time>2023-10-21T09:55:15Z</time>
      </trkpt>
      <trkpt lat="50.689187021926045" lon="6.143361032009125">
        <ele>284.89334400000001</ele>
        <time>2023-10-21T09:55:23Z</time>
      </trkpt>
      <trkpt lat="50.689106974750757" lon="6.143440995365381">
        <ele>286.04272400000002</ele>
        <time>2023-10-21T09:55:32Z</time>
      </trkpt>
      <trkpt lat="50.68904503248632" lon="6.143549038097262">
        <ele>287.163341</ele>
        <time>2023-10-21T09:55:39Z</time>
      </trkpt>
      <trkpt lat="50.688973031938076" lon="6.143642999231815">
        <ele>288.29734999999999</ele>
        <time>2023-10-21T09:55:46Z</time>
      </trkpt>
      <trkpt lat="50.688889967277646" lon="6.143705025315285">
        <ele>289.41179799999998</ele>
        <time>2023-10-21T09:55:54Z</time>
      </trkpt>
      <trkpt lat="50.688797011971474" lon="6.143716005608439">
        <ele>290.065022</ele>
        <time>2023-10-21T09:56:00Z</time>
      </trkpt>
      <trkpt lat="50.688702967017889" lon="6.143692033365369">
        <ele>290.52073000000001</ele>
        <time>2023-10-21T09:56:07Z</time>
      </trkpt>
      <trkpt lat="50.688613029196858" lon="6.143602011725307">
        <ele>291.03061000000002</ele>
        <time>2023-10-21T09:56:16Z</time>
      </trkpt>
      <trkpt lat="50.688530970364809" lon="6.14352498203516">
        <ele>291.487235</ele>
        <time>2023-10-21T09:56:24Z</time>
      </trkpt>
      <trkpt lat="50.688455030322075" lon="6.14341601729393">
        <ele>291.97867000000002</ele>
        <time>2023-10-21T09:56:32Z</time>
      </trkpt>
      <trkpt lat="50.688369031995535" lon="6.143345022574067">
        <ele>292.44314200000002</ele>
        <time>2023-10-21T09:56:41Z</time>
      </trkpt>
      <trkpt lat="50.688272975385189" lon="6.143276961520314">
        <ele>292.94671399999999</ele>
        <time>2023-10-21T09:56:48Z</time>
      </trkpt>
      <trkpt lat="50.688191000372171" lon="6.143212001770735">
        <ele>293.385852</ele>
        <time>2023-10-21T09:56:56Z</time>
      </trkpt>
      <trkpt lat="50.688106007874012" lon="6.143152993172407">
        <ele>293.83023700000001</ele>
        <time>2023-10-21T09:57:03Z</time>
      </trkpt>
      <trkpt lat="50.688020009547472" lon="6.143083004280925">
        <ele>294.29331200000001</ele>
        <time>2023-10-21T09:57:10Z</time>
      </trkpt>
      <trkpt lat="50.687934011220932" lon="6.143016032874584">
        <ele>294.75229000000002</ele>
        <time>2023-10-21T09:57:18Z</time>
      </trkpt>
      <trkpt lat="50.687853964045644" lon="6.142930034548044">
        <ele>295.21550999999999</ele>
        <time>2023-10-21T09:57:26Z</time>
      </trkpt>
      <trkpt lat="50.68775799125433" lon="6.142871025949717">
        <ele>295.70853899999997</ele>
        <time>2023-10-21T09:57:34Z</time>
      </trkpt>
      <trkpt lat="50.68767299875617" lon="6.142803970724344">
        <ele>296.163231</ele>
        <time>2023-10-21T09:57:42Z</time>
      </trkpt>
      <trkpt lat="50.687593035399914" lon="6.142736999318004">
        <ele>296.59664700000002</ele>
        <time>2023-10-21T09:57:49Z</time>
      </trkpt>
      <trkpt lat="50.687505025416613" lon="6.14268402568996">
        <ele>297.04741000000001</ele>
        <time>2023-10-21T09:57:56Z</time>
      </trkpt>
      <trkpt lat="50.687417015433311" lon="6.142615964636207">
        <ele>297.51631600000002</ele>
        <time>2023-10-21T09:58:03Z</time>
      </trkpt>
      <trkpt lat="50.687332022935152" lon="6.142563996836543">
        <ele>297.95259099999998</ele>
        <time>2023-10-21T09:58:10Z</time>
      </trkpt>
      <trkpt lat="50.687240995466709" lon="6.142499959096313">
        <ele>298.397719</ele>
        <time>2023-10-21T09:58:17Z</time>
      </trkpt>
      <trkpt lat="50.687159020453691" lon="6.142431981861591">
        <ele>298.635017</ele>
        <time>2023-10-21T09:58:24Z</time>
      </trkpt>
      <trkpt lat="50.687064975500107" lon="6.142370039597154">
        <ele>298.89600899999999</ele>
        <time>2023-10-21T09:58:31Z</time>
      </trkpt>
      <trkpt lat="50.686973026022315" lon="6.142307007685304">
        <ele>299.15292199999999</ele>
        <time>2023-10-21T09:58:39Z</time>
      </trkpt>
      <trkpt lat="50.686876969411969" lon="6.142298961058259">
        <ele>299.39920000000001</ele>
        <time>2023-10-21T09:58:48Z</time>
      </trkpt>
      <trkpt lat="50.686785019934177" lon="6.142369033768773">
        <ele>299.660843</ele>
        <time>2023-10-21T09:58:56Z</time>
      </trkpt>
      <trkpt lat="50.686690974980593" lon="6.142422007396817">
        <ele>299.91655800000001</ele>
        <time>2023-10-21T09:59:04Z</time>
      </trkpt>
      <trkpt lat="50.686606988310814" lon="6.142475986853242">
        <ele>300.14891599999999</ele>
        <time>2023-10-21T09:59:11Z</time>
      </trkpt>
      <trkpt lat="50.686509003862739" lon="6.14253600127995">
        <ele>300.41820100000001</ele>
        <time>2023-10-21T09:59:24Z</time>
      </trkpt>
      <trkpt lat="50.686414958909154" lon="6.142548993229866">
        <ele>300.65993500000002</ele>
        <time>2023-10-21T09:59:31Z</time>
      </trkpt>
      <trkpt lat="50.686314040794969" lon="6.14259802736342">
        <ele>300.93062600000002</ele>
        <time>2023-10-21T09:59:39Z</time>
      </trkpt>
      <trkpt lat="50.68623399361968" lon="6.14266399294138">
        <ele>301.16188</ele>
        <time>2023-10-21T09:59:47Z</time>
      </trkpt>
      <trkpt lat="50.686144977807999" lon="6.142718978226185">
        <ele>301.40673600000002</ele>
        <time>2023-10-21T09:59:54Z</time>
      </trkpt>
      <trkpt lat="50.686057973653078" lon="6.142757032066584">
        <ele>301.637992</ele>
        <time>2023-10-21T10:00:02Z</time>
      </trkpt>
      <trkpt lat="50.685969041660428" lon="6.142791984602809">
        <ele>301.87296500000002</ele>
        <time>2023-10-21T10:00:09Z</time>
      </trkpt>
      <trkpt lat="50.685884971171618" lon="6.142846969887614">
        <ele>302.10593999999998</ele>
        <time>2023-10-21T10:00:16Z</time>
      </trkpt>
      <trkpt lat="50.685800984501839" lon="6.142907990142703">
        <ele>302.34281700000003</ele>
        <time>2023-10-21T10:00:24Z</time>
      </trkpt>
      <trkpt lat="50.685710040852427" lon="6.142963981255889">
        <ele>302.59303599999998</ele>
        <time>2023-10-21T10:00:32Z</time>
      </trkpt>
      <trkpt lat="50.685624964535236" lon="6.143030030652881">
        <ele>302.83571499999999</ele>
        <time>2023-10-21T10:00:40Z</time>
      </trkpt>
      <trkpt lat="50.685537038370967" lon="6.143073029816151">
        <ele>303.01354400000002</ele>
        <time>2023-10-21T10:00:47Z</time>
      </trkpt>
      <trkpt lat="50.685425978153944" lon="6.143132038414478">
        <ele>303.143553</ele>
        <time>2023-10-21T10:00:55Z</time>
      </trkpt>
      <trkpt lat="50.685332017019391" lon="6.143166990950704">
        <ele>303.25075700000002</ele>
        <time>2023-10-21T10:01:03Z</time>
      </trkpt>
      <trkpt lat="50.685243001207709" lon="6.143189035356045">
        <ele>303.350751</ele>
        <time>2023-10-21T10:01:12Z</time>
      </trkpt>
      <trkpt lat="50.685077039524913" lon="6.143302023410797">
        <ele>303.55141800000001</ele>
        <time>2023-10-21T10:01:53Z</time>
      </trkpt>
      <trkpt lat="50.685022976249456" lon="6.143424985930324">
        <ele>303.65665899999999</ele>
        <time>2023-10-21T10:02:20Z</time>
      </trkpt>
      <trkpt lat="50.684924991801381" lon="6.143447030335665">
        <ele>303.76653299999998</ele>
        <time>2023-10-21T10:02:27Z</time>
      </trkpt>
      <trkpt lat="50.684832036495209" lon="6.143463039770722">
        <ele>303.87037500000002</ele>
        <time>2023-10-21T10:02:35Z</time>
      </trkpt>
      <trkpt lat="50.684752995148301" lon="6.143533028662205">
        <ele>303.97093899999999</ele>
        <time>2023-10-21T10:02:41Z</time>
      </trkpt>
      <trkpt lat="50.684660961851478" lon="6.143589019775391">
        <ele>304.08039000000002</ele>
        <time>2023-10-21T10:02:48Z</time>
      </trkpt>
      <trkpt lat="50.684571024030447" lon="6.143607962876558">
        <ele>304.18117899999999</ele>
        <time>2023-10-21T10:02:55Z</time>
      </trkpt>
      <trkpt lat="50.684484019875526" lon="6.143662026152015">
        <ele>304.28494899999998</ele>
        <time>2023-10-21T10:03:02Z</time>
      </trkpt>
      <trkpt lat="50.684397015720606" lon="6.143709970638156">
        <ele>304.387249</ele>
        <time>2023-10-21T10:03:09Z</time>
      </trkpt>
      <trkpt lat="50.684303976595402" lon="6.143753975629807">
        <ele>304.49501700000002</ele>
        <time>2023-10-21T10:03:17Z</time>
      </trkpt>
      <trkpt lat="50.68421496078372" lon="6.143771996721625">
        <ele>304.59461499999998</ele>
        <time>2023-10-21T10:03:24Z</time>
      </trkpt>
      <trkpt lat="50.684134997427464" lon="6.143855983391404">
        <ele>304.70127000000002</ele>
        <time>2023-10-21T10:03:32Z</time>
      </trkpt>
      <trkpt lat="50.684052016586065" lon="6.143913986161351">
        <ele>304.80202700000001</ele>
        <time>2023-10-21T10:03:39Z</time>
      </trkpt>
      <trkpt lat="50.6839569658041" lon="6.143963020294905">
        <ele>304.91296499999999</ele>
        <time>2023-10-21T10:03:46Z</time>
      </trkpt>
      <trkpt lat="50.683858981356025" lon="6.144001996144652">
        <ele>305.00523199999998</ele>
        <time>2023-10-21T10:03:54Z</time>
      </trkpt>
      <trkpt lat="50.683766026049852" lon="6.144062010571361">
        <ele>305.079476</ele>
        <time>2023-10-21T10:04:01Z</time>
      </trkpt>
      <trkpt lat="50.683679021894932" lon="6.144107021391392">
        <ele>305.14713</ele>
        <time>2023-10-21T10:04:09Z</time>
      </trkpt>
      <trkpt lat="50.683586988598108" lon="6.144152032211423">
        <ele>305.21830499999999</ele>
        <time>2023-10-21T10:04:16Z</time>
      </trkpt>
      <trkpt lat="50.683498978614807" lon="6.144195031374693">
        <ele>305.28637900000001</ele>
        <time>2023-10-21T10:04:23Z</time>
      </trkpt>
      <trkpt lat="50.683404011651874" lon="6.144262002781034">
        <ele>305.363271</ele>
        <time>2023-10-21T10:04:32Z</time>
      </trkpt>
      <trkpt lat="50.683308038860559" lon="6.144302990287542">
        <ele>305.43676399999998</ele>
        <time>2023-10-21T10:04:42Z</time>
      </trkpt>
      <trkpt lat="50.683221034705639" lon="6.144370967522264">
        <ele>305.50850500000001</ele>
        <time>2023-10-21T10:04:50Z</time>
      </trkpt>
      <trkpt lat="50.683135036379099" lon="6.144428970292211">
        <ele>305.57761599999998</ele>
        <time>2023-10-21T10:04:58Z</time>
      </trkpt>
      <trkpt lat="50.683039985597134" lon="6.144466018304229">
        <ele>305.649923</ele>
        <time>2023-10-21T10:05:04Z</time>
      </trkpt>
      <trkpt lat="50.682940995320678" lon="6.144512034952641">
        <ele>305.72618499999999</ele>
        <time>2023-10-21T10:05:12Z</time>
      </trkpt>
      <trkpt lat="50.682853991165757" lon="6.144566014409065">
        <ele>305.79526900000002</ele>
        <time>2023-10-21T10:05:19Z</time>
      </trkpt>
      <trkpt lat="50.68275198340416" lon="6.144553022459149">
        <ele>305.87088799999998</ele>
        <time>2023-10-21T10:05:26Z</time>
      </trkpt>
      <trkpt lat="50.682660033926368" lon="6.144484039396048">
        <ele>305.94615900000002</ele>
        <time>2023-10-21T10:05:34Z</time>
      </trkpt>
      <trkpt lat="50.682563977316022" lon="6.144457971677184">
        <ele>306.01813700000002</ele>
        <time>2023-10-21T10:05:41Z</time>
      </trkpt>
      <trkpt lat="50.682473033666611" lon="6.144421007484198">
        <ele>306.08757800000001</ele>
        <time>2023-10-21T10:05:48Z</time>
      </trkpt>
      <trkpt lat="50.682373037561774" lon="6.144381025806069">
        <ele>306.16381100000001</ele>
        <time>2023-10-21T10:05:56Z</time>
      </trkpt>
      <trkpt lat="50.682282010093331" lon="6.144355041906238">
        <ele>306.23214999999999</ele>
        <time>2023-10-21T10:06:03Z</time>
      </trkpt>
      <trkpt lat="50.682186037302017" lon="6.144326962530613">
        <ele>306.29053099999999</ele>
        <time>2023-10-21T10:06:13Z</time>
      </trkpt>
      <trkpt lat="50.68208796903491" lon="6.144309025257826">
        <ele>306.25885099999999</ele>
        <time>2023-10-21T10:06:21Z</time>
      </trkpt>
      <trkpt lat="50.681985039263964" lon="6.144282035529614">
        <ele>306.225325</ele>
        <time>2023-10-21T10:06:28Z</time>
      </trkpt>
      <trkpt lat="50.681887976825237" lon="6.144249010831118">
        <ele>306.19346300000001</ele>
        <time>2023-10-21T10:06:36Z</time>
      </trkpt>
      <trkpt lat="50.681788986548781" lon="6.144229983910918">
        <ele>306.16144100000002</ele>
        <time>2023-10-21T10:06:46Z</time>
      </trkpt>
      <trkpt lat="50.681694019585848" lon="6.144285975024104">
        <ele>306.12887799999999</ele>
        <time>2023-10-21T10:06:54Z</time>
      </trkpt>
      <trkpt lat="50.681668035686016" lon="6.144437016919255">
        <ele>306.09704199999999</ele>
        <time>2023-10-21T10:07:04Z</time>
      </trkpt>
      <trkpt lat="50.681670969352126" lon="6.144590992480516">
        <ele>306.06569500000001</ele>
        <time>2023-10-21T10:07:12Z</time>
      </trkpt>
      <trkpt lat="50.681648002937436" lon="6.144729964435101">
        <ele>306.03646700000002</ele>
        <time>2023-10-21T10:07:20Z</time>
      </trkpt>
      <trkpt lat="50.681630987673998" lon="6.144884023815393">
        <ele>306.00466299999999</ele>
        <time>2023-10-21T10:07:28Z</time>
      </trkpt>
      <trkpt lat="50.68161103874445" lon="6.145028024911881">
        <ele>305.97466900000001</ele>
        <time>2023-10-21T10:07:36Z</time>
      </trkpt>
      <trkpt lat="50.681585976853967" lon="6.145187029615045">
        <ele>305.94133900000003</ele>
        <time>2023-10-21T10:07:44Z</time>
      </trkpt>
      <trkpt lat="50.6815480068326" lon="6.145334970206022">
        <ele>305.90884899999998</ele>
        <time>2023-10-21T10:07:51Z</time>
      </trkpt>
      <trkpt lat="50.681543983519077" lon="6.145491963252425">
        <ele>305.87688100000003</ele>
        <time>2023-10-21T10:08:00Z</time>
      </trkpt>
      <trkpt lat="50.681516993790865" lon="6.145634958520532">
        <ele>305.84652199999999</ele>
        <time>2023-10-21T10:08:09Z</time>
      </trkpt>
      <trkpt lat="50.681458991020918" lon="6.145768985152245">
        <ele>305.81350500000002</ele>
        <time>2023-10-21T10:08:18Z</time>
      </trkpt>
      <trkpt lat="50.681393025442958" lon="6.145883984863758">
        <ele>305.78193700000003</ele>
        <time>2023-10-21T10:08:26Z</time>
      </trkpt>
      <trkpt lat="50.681293029338121" lon="6.145897982642055">
        <ele>305.74970100000002</ele>
        <time>2023-10-21T10:08:35Z</time>
      </trkpt>
      <trkpt lat="50.681215999647975" lon="6.145985992625356">
        <ele>305.71917500000001</ele>
        <time>2023-10-21T10:08:44Z</time>
      </trkpt>
      <trkpt lat="50.681126983836293" lon="6.146092023700476">
        <ele>306.237121</ele>
        <time>2023-10-21T10:08:53Z</time>
      </trkpt>
      <trkpt lat="50.681040985509753" lon="6.146149020642042">
        <ele>306.69800800000002</ele>
        <time>2023-10-21T10:09:00Z</time>
      </trkpt>
      <trkpt lat="50.680959010496736" lon="6.146244993433356">
        <ele>307.20248900000001</ele>
        <time>2023-10-21T10:09:09Z</time>
      </trkpt>
      <trkpt lat="50.680874017998576" lon="6.146313976496458">
        <ele>307.67478499999999</ele>
        <time>2023-10-21T10:09:17Z</time>
      </trkpt>
      <trkpt lat="50.680789025500417" lon="6.146390000358224">
        <ele>308.15750000000003</ele>
        <time>2023-10-21T10:09:25Z</time>
      </trkpt>
      <trkpt lat="50.680707972496748" lon="6.146473987028003">
        <ele>308.63640400000003</ele>
        <time>2023-10-21T10:09:34Z</time>
      </trkpt>
      <trkpt lat="50.680633960291743" lon="6.146560991182923">
        <ele>309.09235200000001</ele>
        <time>2023-10-21T10:09:40Z</time>
      </trkpt>
      <trkpt lat="50.680544022470713" lon="6.14659896120429">
        <ele>309.55269099999998</ele>
        <time>2023-10-21T10:09:48Z</time>
      </trkpt>
      <trkpt lat="50.680466992780566" lon="6.146702980622649">
        <ele>310.05346800000001</ele>
        <time>2023-10-21T10:09:57Z</time>
      </trkpt>
      <trkpt lat="50.680384011939168" lon="6.14676701836288">
        <ele>310.50991399999998</ele>
        <time>2023-10-21T10:10:05Z</time>
      </trkpt>
      <trkpt lat="50.680308993905783" lon="6.14687698893249">
        <ele>311.01582200000001</ele>
        <time>2023-10-21T10:10:13Z</time>
      </trkpt>
      <trkpt lat="50.680245961993933" lon="6.146992994472385">
        <ele>311.49415800000003</ele>
        <time>2023-10-21T10:10:21Z</time>
      </trkpt>
      <trkpt lat="50.680187037214637" lon="6.147127021104097">
        <ele>312.005042</ele>
        <time>2023-10-21T10:10:30Z</time>
      </trkpt>
      <trkpt lat="50.680160969495773" lon="6.147271022200584">
        <ele>312.47384099999999</ele>
        <time>2023-10-21T10:10:39Z</time>
      </trkpt>
      <trkpt lat="50.680134985595942" lon="6.147407982498407">
        <ele>312.921603</ele>
        <time>2023-10-21T10:10:47Z</time>
      </trkpt>
      <trkpt lat="50.680118976160884" lon="6.147559024393559">
        <ele>313.400937</ele>
        <time>2023-10-21T10:10:55Z</time>
      </trkpt>
      <trkpt lat="50.680061979219317" lon="6.147688021883369">
        <ele>313.89332899999999</ele>
        <time>2023-10-21T10:11:06Z</time>
      </trkpt>
      <trkpt lat="50.679990984499454" lon="6.14781903102994">
        <ele>314.43304899999998</ele>
        <time>2023-10-21T10:11:14Z</time>
      </trkpt>
      <trkpt lat="50.67991403862834" lon="6.147904023528099">
        <ele>314.746824</ele>
        <time>2023-10-21T10:11:22Z</time>
      </trkpt>
      <trkpt lat="50.679838014766574" lon="6.147990021854639">
        <ele>314.97143999999997</ele>
        <time>2023-10-21T10:11:28Z</time>
      </trkpt>
      <trkpt lat="50.679753022268414" lon="6.148083982989192">
        <ele>315.22073399999999</ele>
        <time>2023-10-21T10:11:37Z</time>
      </trkpt>
      <trkpt lat="50.679199984297156" lon="6.148387994617224">
        <ele>316.656904</ele>
        <time>2023-10-21T10:12:23Z</time>
      </trkpt>
      <trkpt lat="50.679091019555926" lon="6.148398974910379">
        <ele>316.919241</ele>
        <time>2023-10-21T10:12:27Z</time>
      </trkpt>
      <trkpt lat="50.678994040936232" lon="6.148429987952113">
        <ele>317.15694999999999</ele>
        <time>2023-10-21T10:12:37Z</time>
      </trkpt>
      <trkpt lat="50.678904019296169" lon="6.148440968245268">
        <ele>317.37376399999999</ele>
        <time>2023-10-21T10:12:44Z</time>
      </trkpt>
      <trkpt lat="50.678804023191333" lon="6.148436022922397">
        <ele>317.61407000000003</ele>
        <time>2023-10-21T10:12:53Z</time>
      </trkpt>
      <trkpt lat="50.678704027086496" lon="6.14846401847899">
        <ele>317.85800699999999</ele>
        <time>2023-10-21T10:13:02Z</time>
      </trkpt>
      <trkpt lat="50.678612999618053" lon="6.148469969630241">
        <ele>318.07676600000002</ele>
        <time>2023-10-21T10:13:08Z</time>
      </trkpt>
      <trkpt lat="50.67851803265512" lon="6.148473992943764">
        <ele>318.30502300000001</ele>
        <time>2023-10-21T10:13:19Z</time>
      </trkpt>
      <trkpt lat="50.678422981873155" lon="6.148439962416887">
        <ele>318.538994</ele>
        <time>2023-10-21T10:13:32Z</time>
      </trkpt>
      <trkpt lat="50.678334971889853" lon="6.148519003763795">
        <ele>318.78216300000003</ele>
        <time>2023-10-21T10:13:38Z</time>
      </trkpt>
      <trkpt lat="50.678244028240442" lon="6.148570971563458">
        <ele>318.96155800000003</ele>
        <time>2023-10-21T10:13:45Z</time>
      </trkpt>
      <trkpt lat="50.678150989115238" lon="6.148628974333406">
        <ele>319.060295</ele>
        <time>2023-10-21T10:13:53Z</time>
      </trkpt>
      <trkpt lat="50.678054010495543" lon="6.148696029558778">
        <ele>319.16484300000002</ele>
        <time>2023-10-21T10:14:03Z</time>
      </trkpt>
      <trkpt lat="50.677944961935282" lon="6.148847993463278">
        <ele>319.30846600000001</ele>
        <time>2023-10-21T10:14:10Z</time>
      </trkpt>
      <trkpt lat="50.67785301245749" lon="6.148947989568114">
        <ele>319.418768</ele>
        <time>2023-10-21T10:14:22Z</time>
      </trkpt>
      <trkpt lat="50.677800038829446" lon="6.149072963744402">
        <ele>319.51287100000002</ele>
        <time>2023-10-21T10:14:34Z</time>
      </trkpt>
      <trkpt lat="50.675770025700331" lon="6.154555985704064">
        <ele>324.53469799999999</ele>
        <time>2023-10-21T10:20:08Z</time>
      </trkpt>
      <trkpt lat="50.675709005445242" lon="6.154680037871003">
        <ele>324.44550600000002</ele>
        <time>2023-10-21T10:20:18Z</time>
      </trkpt>
      <trkpt lat="50.675707999616861" lon="6.154830995947123">
        <ele>324.35970500000002</ele>
        <time>2023-10-21T10:20:26Z</time>
      </trkpt>
      <trkpt lat="50.675771031528711" lon="6.154950018972158">
        <ele>324.27159999999998</ele>
        <time>2023-10-21T10:20:35Z</time>
      </trkpt>
      <trkpt lat="50.675857029855251" lon="6.155006010085344">
        <ele>324.18818499999998</ele>
        <time>2023-10-21T10:20:45Z</time>
      </trkpt>
      <trkpt lat="50.675949985161424" lon="6.155099971219897">
        <ele>324.08916099999999</ele>
        <time>2023-10-21T10:20:52Z</time>
      </trkpt>
      <trkpt lat="50.676060961559415" lon="6.155118998140097">
        <ele>323.98905400000001</ele>
        <time>2023-10-21T10:21:03Z</time>
      </trkpt>
      <trkpt lat="50.676138997077942" lon="6.155216982588172">
        <ele>323.89600899999999</ele>
        <time>2023-10-21T10:21:06Z</time>
      </trkpt>
      <trkpt lat="50.676247039809823" lon="6.155255036428571">
        <ele>323.6626</ele>
        <time>2023-10-21T10:21:09Z</time>
      </trkpt>
      <trkpt lat="50.676335971802473" lon="6.155370036140084">
        <ele>323.41995800000001</ele>
        <time>2023-10-21T10:21:13Z</time>
      </trkpt>
      <trkpt lat="50.676450971513987" lon="6.155449999496341">
        <ele>323.154853</ele>
        <time>2023-10-21T10:21:17Z</time>
      </trkpt>
      <trkpt lat="50.67654199898243" lon="6.155500961467624">
        <ele>322.95115199999998</ele>
        <time>2023-10-21T10:21:20Z</time>
      </trkpt>
      <trkpt lat="50.678655998781323" lon="6.157223023474217">
        <ele>317.37653399999999</ele>
        <time>2023-10-21T10:22:36Z</time>
      </trkpt>
      <trkpt lat="50.678744008764625" lon="6.157257976010442">
        <ele>317.14075200000002</ele>
        <time>2023-10-21T10:22:38Z</time>
      </trkpt>
      <trkpt lat="50.678838975727558" lon="6.157313967123628">
        <ele>316.877275</ele>
        <time>2023-10-21T10:22:41Z</time>
      </trkpt>
      <trkpt lat="50.678933020681143" lon="6.157382028177381">
        <ele>316.60861699999998</ele>
        <time>2023-10-21T10:22:44Z</time>
      </trkpt>
      <trkpt lat="50.679045002907515" lon="6.157466014847159">
        <ele>316.28643899999997</ele>
        <time>2023-10-21T10:22:49Z</time>
      </trkpt>
      <trkpt lat="50.679133012890816" lon="6.157529968768358">
        <ele>316.034695</ele>
        <time>2023-10-21T10:22:52Z</time>
      </trkpt>
      <trkpt lat="50.679224040359259" lon="6.157631976529956">
        <ele>315.74470100000002</ele>
        <time>2023-10-21T10:22:56Z</time>
      </trkpt>
      <trkpt lat="50.67929201759398" lon="6.157727027311921">
        <ele>315.50874800000003</ele>
        <time>2023-10-21T10:22:59Z</time>
      </trkpt>
      <trkpt lat="50.679396959021688" lon="6.157749993726611">
        <ele>315.55789299999998</ele>
        <time>2023-10-21T10:23:03Z</time>
      </trkpt>
      <trkpt lat="50.67948698066175" lon="6.157846972346306">
        <ele>315.72986900000001</ele>
        <time>2023-10-21T10:23:06Z</time>
      </trkpt>
      <trkpt lat="50.679582031443715" lon="6.157921990379691">
        <ele>315.89748800000001</ele>
        <time>2023-10-21T10:23:09Z</time>
      </trkpt>
      <trkpt lat="50.679683033376932" lon="6.158006982877851">
        <ele>316.07810899999998</ele>
        <time>2023-10-21T10:23:13Z</time>
      </trkpt>
      <trkpt lat="50.679771965369582" lon="6.158083006739616">
        <ele>316.23778900000002</ele>
        <time>2023-10-21T10:23:16Z</time>
      </trkpt>
      <trkpt lat="50.679861987009645" lon="6.158141009509563">
        <ele>316.39119099999999</ele>
        <time>2023-10-21T10:23:19Z</time>
      </trkpt>
      <trkpt lat="50.67998101003468" lon="6.158207980915904">
        <ele>316.59056199999998</ele>
        <time>2023-10-21T10:23:22Z</time>
      </trkpt>
      <trkpt lat="50.680062985047698" lon="6.158293979242444">
        <ele>316.745923</ele>
        <time>2023-10-21T10:23:25Z</time>
      </trkpt>
      <trkpt lat="50.680165998637676" lon="6.158356005325913">
        <ele>316.91987499999999</ele>
        <time>2023-10-21T10:23:28Z</time>
      </trkpt>
      <trkpt lat="50.680250991135836" lon="6.158423982560635">
        <ele>317.07025199999998</ele>
        <time>2023-10-21T10:23:31Z</time>
      </trkpt>
      <trkpt lat="50.680361967533827" lon="6.15849900059402">
        <ele>317.260785</ele>
        <time>2023-10-21T10:23:35Z</time>
      </trkpt>
      <trkpt lat="50.680465986952186" lon="6.158590028062463">
        <ele>317.44842999999997</ele>
        <time>2023-10-21T10:23:38Z</time>
      </trkpt>
      <trkpt lat="50.680577969178557" lon="6.158655993640423">
        <ele>317.63708100000002</ele>
        <time>2023-10-21T10:23:42Z</time>
      </trkpt>
      <trkpt lat="50.680673019960523" lon="6.158747021108866">
        <ele>317.81244099999998</ele>
        <time>2023-10-21T10:23:44Z</time>
      </trkpt>
      <trkpt lat="50.68077402189374" lon="6.158836036920548">
        <ele>317.99497700000001</ele>
        <time>2023-10-21T10:23:48Z</time>
      </trkpt>
      <trkpt lat="50.68086102604866" lon="6.158896973356605">
        <ele>318.14519899999999</ele>
        <time>2023-10-21T10:23:51Z</time>
      </trkpt>
      <trkpt lat="50.680945012718439" lon="6.158953970298171">
        <ele>318.280731</ele>
        <time>2023-10-21T10:23:55Z</time>
      </trkpt>
      <trkpt lat="50.681024976074696" lon="6.159026976674795">
        <ele>318.34689900000001</ele>
        <time>2023-10-21T10:23:57Z</time>
      </trkpt>
      <trkpt lat="50.681109968572855" lon="6.159099983051419">
        <ele>318.41618999999997</ele>
        <time>2023-10-21T10:24:00Z</time>
      </trkpt>
      <trkpt lat="50.681214993819594" lon="6.15914398804307">
        <ele>318.49397900000002</ele>
        <time>2023-10-21T10:24:04Z</time>
      </trkpt>
      <trkpt lat="50.68131297826767" lon="6.159253036603332">
        <ele>318.57982500000003</ele>
        <time>2023-10-21T10:24:07Z</time>
      </trkpt>
      <trkpt lat="50.681409034878016" lon="6.159311961382628">
        <ele>318.653592</ele>
        <time>2023-10-21T10:24:10Z</time>
      </trkpt>
      <trkpt lat="50.681523028761148" lon="6.159384967759252">
        <ele>318.74168300000002</ele>
        <time>2023-10-21T10:24:14Z</time>
      </trkpt>
      <trkpt lat="50.681631993502378" lon="6.159464009106159">
        <ele>318.82756699999999</ele>
        <time>2023-10-21T10:24:17Z</time>
      </trkpt>
      <trkpt lat="50.68172000348568" lon="6.159522011876106">
        <ele>318.89585199999999</ele>
        <time>2023-10-21T10:24:20Z</time>
      </trkpt>
      <trkpt lat="50.681790998205543" lon="6.159610021859407">
        <ele>318.96049399999998</ele>
        <time>2023-10-21T10:24:23Z</time>
      </trkpt>
      <trkpt lat="50.681882025673985" lon="6.15968101657927">
        <ele>319.03318000000002</ele>
        <time>2023-10-21T10:24:26Z</time>
      </trkpt>
      <trkpt lat="50.681967018172145" lon="6.159740025177598">
        <ele>319.09966900000001</ele>
        <time>2023-10-21T10:24:29Z</time>
      </trkpt>
      <trkpt lat="50.682056033983827" lon="6.159814959391952">
        <ele>319.17191100000002</ele>
        <time>2023-10-21T10:24:32Z</time>
      </trkpt>
      <trkpt lat="50.682114958763123" lon="6.159929959103465">
        <ele>319.23904499999998</ele>
        <time>2023-10-21T10:24:35Z</time>
      </trkpt>
      <trkpt lat="50.682238005101681" lon="6.159970024600625">
        <ele>319.32896699999998</ele>
        <time>2023-10-21T10:24:38Z</time>
      </trkpt>
      <trkpt lat="50.682347975671291" lon="6.160077983513475">
        <ele>319.42172799999997</ele>
        <time>2023-10-21T10:24:41Z</time>
      </trkpt>
      <trkpt lat="50.682460963726044" lon="6.160144032910466">
        <ele>319.50800199999998</ele>
        <time>2023-10-21T10:24:44Z</time>
      </trkpt>
      <trkpt lat="50.682565988972783" lon="6.160190971568227">
        <ele>319.453802</ele>
        <time>2023-10-21T10:24:47Z</time>
      </trkpt>
      <trkpt lat="50.682648969814181" lon="6.160274958238006">
        <ele>319.14771000000002</ele>
        <time>2023-10-21T10:24:50Z</time>
      </trkpt>
      <trkpt lat="50.682739997282624" lon="6.160313012078404">
        <ele>318.85548599999998</ele>
        <time>2023-10-21T10:24:55Z</time>
      </trkpt>
      <trkpt lat="50.68283898755908" lon="6.160361040383577">
        <ele>318.533973</ele>
        <time>2023-10-21T10:25:03Z</time>
      </trkpt>
      <trkpt lat="50.682932026684284" lon="6.160403033718467">
        <ele>318.23367400000001</ele>
        <time>2023-10-21T10:25:11Z</time>
      </trkpt>
      <trkpt lat="50.683021964505315" lon="6.160509986802936">
        <ele>317.88387399999999</ele>
        <time>2023-10-21T10:25:18Z</time>
      </trkpt>
      <trkpt lat="50.683093965053558" lon="6.160595985129476">
        <ele>317.60356000000002</ele>
        <time>2023-10-21T10:25:24Z</time>
      </trkpt>
      <trkpt lat="50.683063035830855" lon="6.160738980397582">
        <ele>317.30627199999998</ele>
        <time>2023-10-21T10:25:29Z</time>
      </trkpt>
      <trkpt lat="50.683025987818837" lon="6.160876024514437">
        <ele>317.01333499999998</ele>
        <time>2023-10-21T10:25:37Z</time>
      </trkpt>
      <trkpt lat="50.68296697922051" lon="6.160984989255667">
        <ele>316.73134900000002</ele>
        <time>2023-10-21T10:25:44Z</time>
      </trkpt>
      <trkpt lat="50.682920962572098" lon="6.16111901588738">
        <ele>316.43157300000001</ele>
        <time>2023-10-21T10:25:53Z</time>
      </trkpt>
      <trkpt lat="50.68285902030766" lon="6.161264022812247">
        <ele>316.08748900000001</ele>
        <time>2023-10-21T10:25:59Z</time>
      </trkpt>
      <trkpt lat="50.682779978960752" lon="6.161373993381858">
        <ele>315.76043600000003</ele>
        <time>2023-10-21T10:26:06Z</time>
      </trkpt>
      <trkpt lat="50.68273002281785" lon="6.161494022235274">
        <ele>315.47793200000001</ele>
        <time>2023-10-21T10:26:14Z</time>
      </trkpt>
      <trkpt lat="50.682635977864265" lon="6.161587983369827">
        <ele>315.13247000000001</ele>
        <time>2023-10-21T10:26:20Z</time>
      </trkpt>
      <trkpt lat="50.681754034012556" lon="6.162609988823533">
        <ele>310.20550800000001</ele>
        <time>2023-10-21T10:27:47Z</time>
      </trkpt>
      <trkpt lat="50.681666024029255" lon="6.162665979936719">
        <ele>309.71549700000003</ele>
        <time>2023-10-21T10:27:54Z</time>
      </trkpt>
      <trkpt lat="50.68157197907567" lon="6.16273102350533">
        <ele>309.18550199999999</ele>
        <time>2023-10-21T10:28:03Z</time>
      </trkpt>
      <trkpt lat="50.68148598074913" lon="6.16279698908329">
        <ele>308.69164699999999</ele>
        <time>2023-10-21T10:28:11Z</time>
      </trkpt>
      <trkpt lat="50.681393025442958" lon="6.162826996296644">
        <ele>308.20143899999999</ele>
        <time>2023-10-21T10:28:20Z</time>
      </trkpt>
      <trkpt lat="50.681295040994883" lon="6.162846023216844">
        <ele>307.69153399999999</ele>
        <time>2023-10-21T10:28:27Z</time>
      </trkpt>
      <trkpt lat="50.681220022961497" lon="6.162941996008158">
        <ele>307.192835</ele>
        <time>2023-10-21T10:28:39Z</time>
      </trkpt>
      <trkpt lat="50.681145004928112" lon="6.163056995719671">
        <ele>306.65280899999999</ele>
        <time>2023-10-21T10:28:46Z</time>
      </trkpt>
      <trkpt lat="50.681128995493054" lon="6.163450023159385">
        <ele>305.07999799999999</ele>
        <time>2023-10-21T10:29:21Z</time>
      </trkpt>
      <trkpt lat="50.681192027404904" lon="6.163551025092602">
        <ele>304.710306</ele>
        <time>2023-10-21T10:29:44Z</time>
      </trkpt>
      <trkpt lat="50.681268973276019" lon="6.163638029247522">
        <ele>304.85446300000001</ele>
        <time>2023-10-21T10:29:53Z</time>
      </trkpt>
      <trkpt lat="50.681194961071014" lon="6.163545995950699">
        <ele>304.99786499999999</ele>
        <time>2023-10-21T10:30:30Z</time>
      </trkpt>
      <trkpt lat="50.681276014074683" lon="6.163617996498942">
        <ele>305.13938200000001</ele>
        <time>2023-10-21T10:30:36Z</time>
      </trkpt>
      <trkpt lat="50.681436024606228" lon="6.163855958729982">
        <ele>305.87195800000001</ele>
        <time>2023-10-21T10:32:17Z</time>
      </trkpt>
      <trkpt lat="50.681477012112737" lon="6.164147984236479">
        <ele>306.16260699999998</ele>
        <time>2023-10-21T10:32:34Z</time>
      </trkpt>
      <trkpt lat="50.681397970765829" lon="6.164522990584374">
        <ele>306.638285</ele>
        <time>2023-10-21T10:33:02Z</time>
      </trkpt>
      <trkpt lat="50.681322030723095" lon="6.164615023881197">
        <ele>306.78409099999999</ele>
        <time>2023-10-21T10:33:07Z</time>
      </trkpt>
      <trkpt lat="50.681266961619258" lon="6.16472901776433">
        <ele>306.92229800000001</ele>
        <time>2023-10-21T10:33:20Z</time>
      </trkpt>
      <trkpt lat="50.681221028789878" lon="6.164854997768998">
        <ele>307.06256200000001</ele>
        <time>2023-10-21T10:33:27Z</time>
      </trkpt>
      <trkpt lat="50.681155985221267" lon="6.164953988045454">
        <ele>307.20007299999997</ele>
        <time>2023-10-21T10:33:35Z</time>
      </trkpt>
      <trkpt lat="50.681154979392886" lon="6.165107963606715">
        <ele>307.34862299999998</ele>
        <time>2023-10-21T10:33:41Z</time>
      </trkpt>
      <trkpt lat="50.681178029626608" lon="6.165250958874822">
        <ele>307.54678799999999</ele>
        <time>2023-10-21T10:33:49Z</time>
      </trkpt>
      <trkpt lat="50.681841960176826" lon="6.166371032595635">
        <ele>310.364397</ele>
        <time>2023-10-21T10:35:14Z</time>
      </trkpt>
      <trkpt lat="50.681913960725069" lon="6.166487960144877">
        <ele>310.65896300000003</ele>
        <time>2023-10-21T10:35:22Z</time>
      </trkpt>
      <trkpt lat="50.681969029828906" lon="6.166619975119829">
        <ele>310.94429000000002</ele>
        <time>2023-10-21T10:35:30Z</time>
      </trkpt>
      <trkpt lat="50.682026026770473" lon="6.166744027286768">
        <ele>311.22096800000003</ele>
        <time>2023-10-21T10:35:37Z</time>
      </trkpt>
      <trkpt lat="50.682038012892008" lon="6.166886016726494">
        <ele>311.47969899999998</ele>
        <time>2023-10-21T10:35:45Z</time>
      </trkpt>
      <trkpt lat="50.682033989578485" lon="6.167033035308123">
        <ele>311.74543399999999</ele>
        <time>2023-10-21T10:35:54Z</time>
      </trkpt>
      <trkpt lat="50.681969029828906" lon="6.16722397506237">
        <ele>312.13699700000001</ele>
        <time>2023-10-21T10:36:20Z</time>
      </trkpt>
      <trkpt lat="50.681895017623901" lon="6.167317014187574">
        <ele>312.40663000000001</ele>
        <time>2023-10-21T10:36:27Z</time>
      </trkpt>
      <trkpt lat="50.681845983490348" lon="6.167452968657017">
        <ele>312.78681399999999</ele>
        <time>2023-10-21T10:36:34Z</time>
      </trkpt>
      <trkpt lat="50.68176300264895" lon="6.167533015832305">
        <ele>313.26375899999999</ele>
        <time>2023-10-21T10:36:42Z</time>
      </trkpt>
      <trkpt lat="50.681680021807551" lon="6.167598981410265">
        <ele>313.71954499999998</ele>
        <time>2023-10-21T10:36:49Z</time>
      </trkpt>
      <trkpt lat="50.681605003774166" lon="6.167701995000243">
        <ele>314.20711</ele>
        <time>2023-10-21T10:36:58Z</time>
      </trkpt>
      <trkpt lat="50.681559992954135" lon="6.167853958904743">
        <ele>314.72844300000003</ele>
        <time>2023-10-21T10:37:07Z</time>
      </trkpt>
      <trkpt lat="50.681500984355807" lon="6.167972981929779">
        <ele>315.197968</ele>
        <time>2023-10-21T10:37:15Z</time>
      </trkpt>
      <trkpt lat="50.681444993242621" lon="6.168095022439957">
        <ele>315.666089</ele>
        <time>2023-10-21T10:37:24Z</time>
      </trkpt>
      <trkpt lat="50.681409034878016" lon="6.168226031586528">
        <ele>316.10979200000003</ele>
        <time>2023-10-21T10:37:32Z</time>
      </trkpt>
      <trkpt lat="50.681379027664661" lon="6.16836198605597">
        <ele>316.55727300000001</ele>
        <time>2023-10-21T10:37:41Z</time>
      </trkpt>
      <trkpt lat="50.681346002966166" lon="6.168507998809218">
        <ele>317.03895199999999</ele>
        <time>2023-10-21T10:37:50Z</time>
      </trkpt>
      <trkpt lat="50.681430995464325" lon="6.168590979650617">
        <ele>317.52913699999999</ele>
        <time>2023-10-21T10:37:58Z</time>
      </trkpt>
      <trkpt lat="50.68156803958118" lon="6.169292964041233">
        <ele>319.86320699999999</ele>
        <time>2023-10-21T10:38:35Z</time>
      </trkpt>
      <trkpt lat="50.681581031531096" lon="6.169450962916017">
        <ele>320.358294</ele>
        <time>2023-10-21T10:38:43Z</time>
      </trkpt>
      <trkpt lat="50.681612966582179" lon="6.169583983719349">
        <ele>320.800366</ele>
        <time>2023-10-21T10:38:51Z</time>
      </trkpt>
      <trkpt lat="50.681619001552463" lon="6.169725973159075">
        <ele>321.242593</ele>
        <time>2023-10-21T10:38:58Z</time>
      </trkpt>
      <trkpt lat="50.681684967130423" lon="6.169851031154394">
        <ele>321.73566</ele>
        <time>2023-10-21T10:39:07Z</time>
      </trkpt>
      <trkpt lat="50.681715980172157" lon="6.170008024200797">
        <ele>322.22952099999998</ele>
        <time>2023-10-21T10:39:15Z</time>
      </trkpt>
      <trkpt lat="50.681649008765817" lon="6.170128975063562">
        <ele>322.712108</ele>
        <time>2023-10-21T10:39:23Z</time>
      </trkpt>
      <trkpt lat="50.680233975872397" lon="6.170529965311289">
        <ele>329.60397499999999</ele>
        <time>2023-10-21T10:40:49Z</time>
      </trkpt>
      <trkpt lat="50.680133979767561" lon="6.170518985018134">
        <ele>330.02642700000001</ele>
        <time>2023-10-21T10:40:53Z</time>
      </trkpt>
      <trkpt lat="50.680015040561557" lon="6.170543041080236">
        <ele>330.42845899999998</ele>
        <time>2023-10-21T10:40:57Z</time>
      </trkpt>
      <trkpt lat="50.679912026971579" lon="6.170596014708281">
        <ele>330.79151300000001</ele>
        <time>2023-10-21T10:41:00Z</time>
      </trkpt>
      <trkpt lat="50.679793003946543" lon="6.170634990558028">
        <ele>331.19881099999998</ele>
        <time>2023-10-21T10:41:03Z</time>
      </trkpt>
      <trkpt lat="50.679698958992958" lon="6.170682013034821">
        <ele>331.52925299999998</ele>
        <time>2023-10-21T10:41:06Z</time>
      </trkpt>
      <trkpt lat="50.679596029222012" lon="6.170725012198091">
        <ele>331.88629600000002</ele>
        <time>2023-10-21T10:41:09Z</time>
      </trkpt>
      <trkpt lat="50.679479017853737" lon="6.170727023854852">
        <ele>332.27840600000002</ele>
        <time>2023-10-21T10:41:13Z</time>
      </trkpt>
      <trkpt lat="50.679376004263759" lon="6.170760970562697">
        <ele>332.63104600000003</ele>
        <time>2023-10-21T10:41:16Z</time>
      </trkpt>
      <trkpt lat="50.67927299067378" lon="6.17078997194767">
        <ele>332.98166700000002</ele>
        <time>2023-10-21T10:41:19Z</time>
      </trkpt>
      <trkpt lat="50.679171988740563" lon="6.170840011909604">
        <ele>333.33639699999998</ele>
        <time>2023-10-21T10:41:22Z</time>
      </trkpt>
      <trkpt lat="50.679065035656095" lon="6.170868007466197">
        <ele>333.69986899999998</ele>
        <time>2023-10-21T10:41:25Z</time>
      </trkpt>
      <trkpt lat="50.678962022066116" lon="6.170885022729635">
        <ele>334.046922</ele>
        <time>2023-10-21T10:41:28Z</time>
      </trkpt>
      <trkpt lat="50.678854985162616" lon="6.170903965830803">
        <ele>334.407759</ele>
        <time>2023-10-21T10:41:31Z</time>
      </trkpt>
      <trkpt lat="50.678738979622722" lon="6.170973032712936">
        <ele>334.82319200000001</ele>
        <time>2023-10-21T10:41:34Z</time>
      </trkpt>
      <trkpt lat="50.678625991567969" lon="6.171018965542316">
        <ele>335.21427</ele>
        <time>2023-10-21T10:41:37Z</time>
      </trkpt>
      <trkpt lat="50.678505040705204" lon="6.171081997454166">
        <ele>335.64126099999999</ele>
        <time>2023-10-21T10:41:40Z</time>
      </trkpt>
      <trkpt lat="50.678401021286845" lon="6.171102030202746">
        <ele>335.959563</ele>
        <time>2023-10-21T10:41:43Z</time>
      </trkpt>
      <trkpt lat="50.678289039060473" lon="6.171140000224114">
        <ele>336.15119700000002</ele>
        <time>2023-10-21T10:41:46Z</time>
      </trkpt>
      <trkpt lat="50.678199017420411" lon="6.171223986893892">
        <ele>336.32610799999998</ele>
        <time>2023-10-21T10:41:50Z</time>
      </trkpt>
      <trkpt lat="50.678110001608729" lon="6.171267991885543">
        <ele>336.48212100000001</ele>
        <time>2023-10-21T10:41:53Z</time>
      </trkpt>
      <trkpt lat="50.67800497636199" lon="6.171356001868844">
        <ele>336.68099699999999</ele>
        <time>2023-10-21T10:41:57Z</time>
      </trkpt>
      <trkpt lat="50.677911015227437" lon="6.171424984931946">
        <ele>336.85441800000001</ele>
        <time>2023-10-21T10:42:01Z</time>
      </trkpt>
      <trkpt lat="50.677840020507574" lon="6.171523975208402">
        <ele>337.01290599999999</ele>
        <time>2023-10-21T10:42:04Z</time>
      </trkpt>
      <trkpt lat="50.677758967503905" lon="6.171605028212071">
        <ele>337.173316</ele>
        <time>2023-10-21T10:42:08Z</time>
      </trkpt>
      <trkpt lat="50.677656037732959" lon="6.171679962426424">
        <ele>337.36306999999999</ele>
        <time>2023-10-21T10:42:12Z</time>
      </trkpt>
      <trkpt lat="50.677575990557671" lon="6.171779036521912">
        <ele>337.53313300000002</ele>
        <time>2023-10-21T10:42:15Z</time>
      </trkpt>
      <trkpt lat="50.677469959482551" lon="6.171826981008053">
        <ele>337.71760499999999</ele>
        <time>2023-10-21T10:42:18Z</time>
      </trkpt>
      <trkpt lat="50.677363006398082" lon="6.171843996271491">
        <ele>337.89749799999998</ele>
        <time>2023-10-21T10:42:21Z</time>
      </trkpt>
      <trkpt lat="50.677272984758019" lon="6.171890012919903">
        <ele>338.05574899999999</ele>
        <time>2023-10-21T10:42:25Z</time>
      </trkpt>
      <trkpt lat="50.677161002531648" lon="6.171890012919903">
        <ele>338.24310100000002</ele>
        <time>2023-10-21T10:42:28Z</time>
      </trkpt>
      <trkpt lat="50.677060000598431" lon="6.171904010698199">
        <ele>338.41270300000002</ele>
        <time>2023-10-21T10:42:31Z</time>
      </trkpt>
      <trkpt lat="50.676949024200439" lon="6.171936029568315">
        <ele>338.60145599999998</ele>
        <time>2023-10-21T10:42:34Z</time>
      </trkpt>
      <trkpt lat="50.676854979246855" lon="6.171958995983005">
        <ele>338.76057700000001</ele>
        <time>2023-10-21T10:42:37Z</time>
      </trkpt>
      <trkpt lat="50.676749031990767" lon="6.171987997367978">
        <ele>338.93828300000001</ele>
        <time>2023-10-21T10:42:40Z</time>
      </trkpt>
      <trkpt lat="50.676654987037182" lon="6.172015992924571">
        <ele>339.02482099999997</ele>
        <time>2023-10-21T10:42:42Z</time>
      </trkpt>
      <trkpt lat="50.6765659712255" lon="6.172039965167642">
        <ele>339.10650199999998</ele>
        <time>2023-10-21T10:42:45Z</time>
      </trkpt>
      <trkpt lat="50.676443008705974" lon="6.172070978209376">
        <ele>339.21918399999998</ele>
        <time>2023-10-21T10:42:49Z</time>
      </trkpt>
      <trkpt lat="50.676343012601137" lon="6.172092016786337">
        <ele>339.31044600000001</ele>
        <time>2023-10-21T10:42:52Z</time>
      </trkpt>
      <trkpt lat="50.676246033981442" lon="6.172091010957956">
        <ele>339.39819799999998</ele>
        <time>2023-10-21T10:42:55Z</time>
      </trkpt>
      <trkpt lat="50.676126005128026" lon="6.172110037878156">
        <ele>339.50730099999998</ele>
        <time>2023-10-21T10:42:59Z</time>
      </trkpt>
      <trkpt lat="50.676016034558415" lon="6.172130992636085">
        <ele>339.60753699999998</ele>
        <time>2023-10-21T10:43:02Z</time>
      </trkpt>
      <trkpt lat="50.675933975726366" lon="6.172192012891173">
        <ele>339.689548</ele>
        <time>2023-10-21T10:43:05Z</time>
      </trkpt>
      <trkpt lat="50.675825010985136" lon="6.172192012891173">
        <ele>339.78815400000002</ele>
        <time>2023-10-21T10:43:09Z</time>
      </trkpt>
      <trkpt lat="50.673562986776233" lon="6.172946970909834">
        <ele>343.92660000000001</ele>
        <time>2023-10-21T10:44:21Z</time>
      </trkpt>
      <trkpt lat="50.673462990671396" lon="6.172985024750233">
        <ele>344.15939500000002</ele>
        <time>2023-10-21T10:44:24Z</time>
      </trkpt>
      <trkpt lat="50.673366012051702" lon="6.173058031126857">
        <ele>344.40262000000001</ele>
        <time>2023-10-21T10:44:27Z</time>
      </trkpt>
      <trkpt lat="50.673241959884763" lon="6.173106981441379">
        <ele>344.68183399999998</ele>
        <time>2023-10-21T10:44:31Z</time>
      </trkpt>
      <trkpt lat="50.67314799875021" lon="6.173164984211326">
        <ele>344.87077699999998</ele>
        <time>2023-10-21T10:44:34Z</time>
      </trkpt>
      <trkpt lat="50.67308303900063" lon="6.173270009458065">
        <ele>345.04491400000001</ele>
        <time>2023-10-21T10:44:38Z</time>
      </trkpt>
      <trkpt lat="50.673027969896793" lon="6.173398001119494">
        <ele>345.22838300000001</ele>
        <time>2023-10-21T10:44:42Z</time>
      </trkpt>
      <trkpt lat="50.673012966290116" lon="6.173549965023994">
        <ele>345.410886</ele>
        <time>2023-10-21T10:44:48Z</time>
      </trkpt>
      <trkpt lat="50.67304003983736" lon="6.173697989434004">
        <ele>345.59359899999998</ele>
        <time>2023-10-21T10:44:57Z</time>
      </trkpt>
      <trkpt lat="50.673914020881057" lon="6.178950006142259">
        <ele>349.50867599999998</ele>
        <time>2023-10-21T10:50:22Z</time>
      </trkpt>
      <trkpt lat="50.673947967588902" lon="6.179093001410365">
        <ele>349.51736199999999</ele>
        <time>2023-10-21T10:50:29Z</time>
      </trkpt>
      <trkpt lat="50.67396598868072" lon="6.179244965314865">
        <ele>349.52615600000001</ele>
        <time>2023-10-21T10:50:37Z</time>
      </trkpt>
      <trkpt lat="50.67396498285234" lon="6.179402964189649">
        <ele>349.53514200000001</ele>
        <time>2023-10-21T10:50:44Z</time>
      </trkpt>
      <trkpt lat="50.675496021285653" lon="6.188502022996545">
        <ele>345.66400599999997</ele>
        <time>2023-10-21T11:00:07Z</time>
      </trkpt>
      <trkpt lat="50.675539020448923" lon="6.188628003001213">
        <ele>345.54661599999997</ele>
        <time>2023-10-21T11:00:13Z</time>
      </trkpt>
      <trkpt lat="50.675556035712361" lon="6.188801005482674">
        <ele>345.37647800000002</ele>
        <time>2023-10-21T11:00:21Z</time>
      </trkpt>
      <trkpt lat="50.675548994913697" lon="6.188948024064302">
        <ele>345.23321499999997</ele>
        <time>2023-10-21T11:00:41Z</time>
      </trkpt>
      <trkpt lat="50.675557963550091" lon="6.189090013504028">
        <ele>345.09452499999998</ele>
        <time>2023-10-21T11:00:50Z</time>
      </trkpt>
      <trkpt lat="50.675633987411857" lon="6.189000997692347">
        <ele>344.94938500000001</ele>
        <time>2023-10-21T11:01:02Z</time>
      </trkpt>
      <trkpt lat="50.675672041252255" lon="6.188851967453957">
        <ele>344.793295</ele>
        <time>2023-10-21T11:01:09Z</time>
      </trkpt>
      <trkpt lat="50.675727026537061" lon="6.188718024641275">
        <ele>344.63813900000002</ele>
        <time>2023-10-21T11:01:17Z</time>
      </trkpt>
      <trkpt lat="50.675782011821866" lon="6.188577963039279">
        <ele>344.47805799999998</ele>
        <time>2023-10-21T11:01:23Z</time>
      </trkpt>
      <trkpt lat="50.675818976014853" lon="6.188430022448301">
        <ele>344.32343900000001</ele>
        <time>2023-10-21T11:01:31Z</time>
      </trkpt>
      <trkpt lat="50.675862981006503" lon="6.188284009695053">
        <ele>344.16632299999998</ele>
        <time>2023-10-21T11:01:38Z</time>
      </trkpt>
      <trkpt lat="50.675918972119689" lon="6.188143026083708">
        <ele>344.00460600000002</ele>
        <time>2023-10-21T11:01:47Z</time>
      </trkpt>
      <trkpt lat="50.675982004031539" lon="6.18801997974515">
        <ele>343.850908</ele>
        <time>2023-10-21T11:01:56Z</time>
      </trkpt>
      <trkpt lat="50.676073031499982" lon="6.187944961711764">
        <ele>343.693465</ele>
        <time>2023-10-21T11:02:06Z</time>
      </trkpt>
      <trkpt lat="50.676147965714335" lon="6.187859969213605">
        <ele>343.55185699999998</ele>
        <time>2023-10-21T11:02:12Z</time>
      </trkpt>
      <trkpt lat="50.676219966262579" lon="6.187763996422291">
        <ele>343.40730300000001</ele>
        <time>2023-10-21T11:02:19Z</time>
      </trkpt>
      <trkpt lat="50.676302025094628" lon="6.187679003924131">
        <ele>343.256845</ele>
        <time>2023-10-21T11:02:28Z</time>
      </trkpt>
      <trkpt lat="50.676366984844208" lon="6.187562998384237">
        <ele>343.10636299999999</ele>
        <time>2023-10-21T11:02:38Z</time>
      </trkpt>
      <trkpt lat="50.676433034241199" lon="6.187454033643007">
        <ele>342.95985100000001</ele>
        <time>2023-10-21T11:02:46Z</time>
      </trkpt>
      <trkpt lat="50.676506040617824" lon="6.187366023659706">
        <ele>342.81462399999998</ele>
        <time>2023-10-21T11:02:54Z</time>
      </trkpt>
      <trkpt lat="50.67658600397408" lon="6.187265021726489">
        <ele>342.36119400000001</ele>
        <time>2023-10-21T11:03:01Z</time>
      </trkpt>
      <trkpt lat="50.676664039492607" lon="6.187190003693104">
        <ele>341.95694700000001</ele>
        <time>2023-10-21T11:03:10Z</time>
      </trkpt>
      <trkpt lat="50.676741991192102" lon="6.187102999538183">
        <ele>341.53421100000003</ele>
        <time>2023-10-21T11:03:19Z</time>
      </trkpt>
      <trkpt lat="50.676817009225488" lon="6.187014989554882">
        <ele>341.12057900000002</ele>
        <time>2023-10-21T11:03:25Z</time>
      </trkpt>
      <trkpt lat="50.676882974803448" lon="6.186917005106807">
        <ele>340.71949799999999</ele>
        <time>2023-10-21T11:03:31Z</time>
      </trkpt>
      <trkpt lat="50.676960004493594" lon="6.186813991516829">
        <ele>340.27275300000002</ele>
        <time>2023-10-21T11:03:39Z</time>
      </trkpt>
      <trkpt lat="50.67703896202147" lon="6.186715001240373">
        <ele>339.82628199999999</ele>
        <time>2023-10-21T11:03:46Z</time>
      </trkpt>
      <trkpt lat="50.677110962569714" lon="6.186627997085452">
        <ele>339.42493899999999</ele>
        <time>2023-10-21T11:03:55Z</time>
      </trkpt>
      <trkpt lat="50.677192015573382" lon="6.186548033729196">
        <ele>339.002028</ele>
        <time>2023-10-21T11:04:02Z</time>
      </trkpt>
      <trkpt lat="50.677258986979723" lon="6.186449965462089">
        <ele>338.59771499999999</ele>
        <time>2023-10-21T11:04:09Z</time>
      </trkpt>
      <trkpt lat="50.677325958386064" lon="6.186356004327536">
        <ele>338.200943</ele>
        <time>2023-10-21T11:04:18Z</time>
      </trkpt>
      <trkpt lat="50.677413968369365" lon="6.186264976859093">
        <ele>337.73530399999999</ele>
        <time>2023-10-21T11:04:26Z</time>
      </trkpt>
      <trkpt lat="50.677487980574369" lon="6.186173027381301">
        <ele>337.31836900000002</ele>
        <time>2023-10-21T11:04:33Z</time>
      </trkpt>
      <trkpt lat="50.677564004436135" lon="6.186083005741239">
        <ele>336.89783599999998</ele>
        <time>2023-10-21T11:04:42Z</time>
      </trkpt>
      <trkpt lat="50.677640028297901" lon="6.18600002489984">
        <ele>336.488786</ele>
        <time>2023-10-21T11:04:50Z</time>
      </trkpt>
      <trkpt lat="50.677756033837795" lon="6.185877984389663">
        <ele>335.871827</ele>
        <time>2023-10-21T11:05:17Z</time>
      </trkpt>
      <trkpt lat="50.677860975265503" lon="6.185836996883154">
        <ele>335.39310599999999</ele>
        <time>2023-10-21T11:05:25Z</time>
      </trkpt>
      <trkpt lat="50.677962983027101" lon="6.185811012983322">
        <ele>334.93582600000002</ele>
        <time>2023-10-21T11:05:33Z</time>
      </trkpt>
      <trkpt lat="50.678130034357309" lon="6.185614038258791">
        <ele>335.38483400000001</ele>
        <time>2023-10-21T11:05:48Z</time>
      </trkpt>
      <trkpt lat="50.678208991885185" lon="6.185512030497193">
        <ele>335.65986800000002</ele>
        <time>2023-10-21T11:05:56Z</time>
      </trkpt>
      <trkpt lat="50.678280992433429" lon="6.185424020513892">
        <ele>335.90525500000001</ele>
        <time>2023-10-21T11:06:03Z</time>
      </trkpt>
      <trkpt lat="50.678361039608717" lon="6.185326036065817">
        <ele>336.17813899999999</ele>
        <time>2023-10-21T11:06:12Z</time>
      </trkpt>
      <trkpt lat="50.678438991308212" lon="6.185234002768993">
        <ele>336.44052799999997</ele>
        <time>2023-10-21T11:06:18Z</time>
      </trkpt>
      <trkpt lat="50.678525995463133" lon="6.185172982513905">
        <ele>336.697048</ele>
        <time>2023-10-21T11:06:26Z</time>
      </trkpt>
      <trkpt lat="50.678570000454783" lon="6.185317989438772">
        <ele>336.97154899999998</ele>
        <time>2023-10-21T11:06:33Z</time>
      </trkpt>
      <trkpt lat="50.679214987903833" lon="6.189440963789821">
        <ele>347.716342</ele>
        <time>2023-10-21T11:10:50Z</time>
      </trkpt>
      <trkpt lat="50.679227979853749" lon="6.189593011513352">
        <ele>348.01296600000001</ele>
        <time>2023-10-21T11:10:59Z</time>
      </trkpt>
      <trkpt lat="50.679242983460426" lon="6.189748998731375">
        <ele>348.196575</ele>
        <time>2023-10-21T11:11:06Z</time>
      </trkpt>
      <trkpt lat="50.679275002330542" lon="6.189900040626526">
        <ele>348.38185499999997</ele>
        <time>2023-10-21T11:11:14Z</time>
      </trkpt>
      <trkpt lat="50.679367035627365" lon="6.189935998991132">
        <ele>348.55592100000001</ele>
        <time>2023-10-21T11:11:29Z</time>
      </trkpt>
      <trkpt lat="50.679457979276776" lon="6.189923007041216">
        <ele>348.72371800000002</ele>
        <time>2023-10-21T11:11:46Z</time>
      </trkpt>
      <trkpt lat="50.679548000916839" lon="6.189925018697977">
        <ele>348.88901199999998</ele>
        <time>2023-10-21T11:11:53Z</time>
      </trkpt>
      <trkpt lat="50.679633999243379" lon="6.189875984564424">
        <ele>349.05692099999999</ele>
        <time>2023-10-21T11:11:59Z</time>
      </trkpt>
      <trkpt lat="50.679733995348215" lon="6.189872967079282">
        <ele>349.24059599999998</ele>
        <time>2023-10-21T11:12:07Z</time>
      </trkpt>
      <trkpt lat="50.679822005331516" lon="6.189834997057915">
        <ele>349.40814</ele>
        <time>2023-10-21T11:12:15Z</time>
      </trkpt>
      <trkpt lat="50.680939983576536" lon="6.189952008426189">
        <ele>351.22247199999998</ele>
        <time>2023-10-21T11:13:50Z</time>
      </trkpt>
      <trkpt lat="50.681246006861329" lon="6.190102966502309">
        <ele>351.23552899999999</ele>
        <time>2023-10-21T11:15:22Z</time>
      </trkpt>
      <trkpt lat="50.681229997426271" lon="6.190245039761066">
        <ele>351.237954</ele>
        <time>2023-10-21T11:15:29Z</time>
      </trkpt>
      <trkpt lat="50.681168977171183" lon="6.190355010330677">
        <ele>351.24041299999999</ele>
        <time>2023-10-21T11:15:34Z</time>
      </trkpt>
      <trkpt lat="50.681152967736125" lon="6.190519966185093">
        <ele>351.24322000000001</ele>
        <time>2023-10-21T11:15:43Z</time>
      </trkpt>
      <trkpt lat="50.681147016584873" lon="6.190677965059876">
        <ele>351.24588199999999</ele>
        <time>2023-10-21T11:15:51Z</time>
      </trkpt>
      <trkpt lat="50.681093959137797" lon="6.190796988084912">
        <ele>351.24832800000001</ele>
        <time>2023-10-21T11:15:57Z</time>
      </trkpt>
      <trkpt lat="50.680675031617284" lon="6.194663979113102">
        <ele>343.32844699999998</ele>
        <time>2023-10-21T11:19:31Z</time>
      </trkpt>
      <trkpt lat="50.680633038282394" lon="6.194796999916434">
        <ele>342.63410199999998</ele>
        <time>2023-10-21T11:19:38Z</time>
      </trkpt>
      <trkpt lat="50.680569000542164" lon="6.195541983470321">
        <ele>339.021028</ele>
        <time>2023-10-21T11:20:17Z</time>
      </trkpt>
      <trkpt lat="50.68047403357923" lon="6.195600992068648">
        <ele>338.26819899999998</ele>
        <time>2023-10-21T11:20:23Z</time>
      </trkpt>
      <trkpt lat="50.680397003889084" lon="6.195678021758795">
        <ele>337.596003</ele>
        <time>2023-10-21T11:20:31Z</time>
      </trkpt>
      <trkpt lat="50.680314023047686" lon="6.195613984018564">
        <ele>336.914805</ele>
        <time>2023-10-21T11:20:59Z</time>
      </trkpt>
      <trkpt lat="50.68030103109777" lon="6.195766031742096">
        <ele>336.19813599999998</ele>
        <time>2023-10-21T11:21:07Z</time>
      </trkpt>
      <trkpt lat="50.680275969207287" lon="6.195908021181822">
        <ele>335.50949700000001</ele>
        <time>2023-10-21T11:21:15Z</time>
      </trkpt>
      <trkpt lat="50.680288039147854" lon="6.19605403393507">
        <ele>334.82158800000002</ele>
        <time>2023-10-21T11:21:22Z</time>
      </trkpt>
      <trkpt lat="50.680275969207287" lon="6.196202980354428">
        <ele>334.119775</ele>
        <time>2023-10-21T11:21:30Z</time>
      </trkpt>
      <trkpt lat="50.680200029164553" lon="6.19755900464952">
        <ele>329.64536800000002</ele>
        <time>2023-10-21T11:22:38Z</time>
      </trkpt>
      <trkpt lat="50.680173961445689" lon="6.19771096855402">
        <ele>329.33517599999999</ele>
        <time>2023-10-21T11:22:45Z</time>
      </trkpt>
      <trkpt lat="50.680155018344522" lon="6.197854969650507">
        <ele>329.04538000000002</ele>
        <time>2023-10-21T11:22:53Z</time>
      </trkpt>
      <trkpt lat="50.68015300668776" lon="6.198011040687561">
        <ele>328.73796399999998</ele>
        <time>2023-10-21T11:23:01Z</time>
      </trkpt>
      <trkpt lat="50.680142026394606" lon="6.198166022077203">
        <ele>328.43067200000002</ele>
        <time>2023-10-21T11:23:09Z</time>
      </trkpt>
      <trkpt lat="50.680154012516141" lon="6.198327038437128">
        <ele>328.11128100000002</ele>
        <time>2023-10-21T11:23:16Z</time>
      </trkpt>
      <trkpt lat="50.680134985595942" lon="6.198480008170009">
        <ele>327.804104</ele>
        <time>2023-10-21T11:23:23Z</time>
      </trkpt>
      <trkpt lat="50.680084023624659" lon="6.199222980067134">
        <ele>326.31806899999998</ele>
        <time>2023-10-21T11:24:04Z</time>
      </trkpt>
      <trkpt lat="50.680060973390937" lon="6.199375027790666">
        <ele>326.010176</ele>
        <time>2023-10-21T11:24:12Z</time>
      </trkpt>
      <trkpt lat="50.680071031674743" lon="6.199531015008688">
        <ele>325.70125400000001</ele>
        <time>2023-10-21T11:24:20Z</time>
      </trkpt>
      <trkpt lat="50.680080000311136" lon="6.199675016105175">
        <ele>325.53225800000001</ele>
        <time>2023-10-21T11:24:27Z</time>
      </trkpt>
      <trkpt lat="50.680093998089433" lon="6.19981599971652">
        <ele>326.09851600000002</ele>
        <time>2023-10-21T11:24:34Z</time>
      </trkpt>
      <trkpt lat="50.680064996704459" lon="6.199957989156246">
        <ele>326.69045399999999</ele>
        <time>2023-10-21T11:24:42Z</time>
      </trkpt>
      <trkpt lat="50.68015300668776" lon="6.200039964169264">
        <ele>327.33034600000002</ele>
        <time>2023-10-21T11:24:51Z</time>
      </trkpt>
      <trkpt lat="50.68021796643734" lon="6.2001399602741">
        <ele>327.89873299999999</ele>
        <time>2023-10-21T11:24:56Z</time>
      </trkpt>
      <trkpt lat="50.680316034704447" lon="6.200183965265751">
        <ele>328.53670899999997</ele>
        <time>2023-10-21T11:25:04Z</time>
      </trkpt>
      <trkpt lat="50.680407984182239" lon="6.200238028541207">
        <ele>329.151319</ele>
        <time>2023-10-21T11:25:15Z</time>
      </trkpt>
      <trkpt lat="50.680492976680398" lon="6.20033098384738">
        <ele>329.79894100000001</ele>
        <time>2023-10-21T11:25:23Z</time>
      </trkpt>
      <trkpt lat="50.681195966899395" lon="6.200762987136841">
        <ele>334.61921599999999</ele>
        <time>2023-10-21T11:26:36Z</time>
      </trkpt>
      <trkpt lat="50.681387325748801" lon="6.201829835772514">
        <ele>335.19151099999999</ele>
        <time>2023-10-21T11:26:41Z</time>
      </trkpt>
      <trkpt lat="50.681091779842973" lon="6.200933726504445">
        <ele>335.87347999999997</ele>
        <time>2023-10-21T11:26:48Z</time>
      </trkpt>
      <trkpt lat="50.681020030751824" lon="6.201093988493085">
        <ele>336.453464</ele>
        <time>2023-10-21T11:26:55Z</time>
      </trkpt>
      <trkpt lat="50.680959010496736" lon="6.201219968497753">
        <ele>337.18476700000002</ele>
        <time>2023-10-21T11:27:08Z</time>
      </trkpt>
      <trkpt lat="50.680919028818607" lon="6.201349971815944">
        <ele>337.91834799999998</ele>
        <time>2023-10-21T11:27:17Z</time>
      </trkpt>
      <trkpt lat="50.680865971371531" lon="6.201477041468024">
        <ele>338.690271</ele>
        <time>2023-10-21T11:27:28Z</time>
      </trkpt>
      <trkpt lat="50.680792964994907" lon="6.201590029522777">
        <ele>339.50942500000002</ele>
        <time>2023-10-21T11:27:36Z</time>
      </trkpt>
      <trkpt lat="50.680728005245328" lon="6.201717015355825">
        <ele>340.33812399999999</ele>
        <time>2023-10-21T11:27:48Z</time>
      </trkpt>
      <trkpt lat="50.680676037445664" lon="6.2018340267241">
        <ele>341.06356</ele>
        <time>2023-10-21T11:27:58Z</time>
      </trkpt>
      <trkpt lat="50.680616023018956" lon="6.201968975365162">
        <ele>341.90060299999999</ele>
        <time>2023-10-21T11:28:08Z</time>
      </trkpt>
      <trkpt lat="50.680518038570881" lon="6.201975010335445">
        <ele>342.68627500000002</ele>
        <time>2023-10-21T11:28:15Z</time>
      </trkpt>
      <trkpt lat="50.680428016930819" lon="6.202052040025592">
        <ele>343.50639899999999</ele>
        <time>2023-10-21T11:28:25Z</time>
      </trkpt>
      <trkpt lat="50.680335983633995" lon="6.20211498811841">
        <ele>344.30980499999998</ele>
        <time>2023-10-21T11:28:32Z</time>
      </trkpt>
      <trkpt lat="50.680246967822313" lon="6.202128985896707">
        <ele>345.02632</ele>
        <time>2023-10-21T11:28:41Z</time>
      </trkpt>
      <trkpt lat="50.680156024172902" lon="6.202095039188862">
        <ele>345.77547600000003</ele>
        <time>2023-10-21T11:28:50Z</time>
      </trkpt>
      <trkpt lat="50.680063990876079" lon="6.202031001448631">
        <ele>346.580916</ele>
        <time>2023-10-21T11:28:57Z</time>
      </trkpt>
      <trkpt lat="50.679991990327835" lon="6.201945003122091">
        <ele>347.30428999999998</ele>
        <time>2023-10-21T11:29:05Z</time>
      </trkpt>
      <trkpt lat="50.679910015314817" lon="6.201883982867003">
        <ele>348.03051699999997</ele>
        <time>2023-10-21T11:29:13Z</time>
      </trkpt>
      <trkpt lat="50.679814964532852" lon="6.201866967603564">
        <ele>348.79644200000001</ele>
        <time>2023-10-21T11:29:23Z</time>
      </trkpt>
      <trkpt lat="50.679724020883441" lon="6.201902003958821">
        <ele>349.546784</ele>
        <time>2023-10-21T11:29:31Z</time>
      </trkpt>
      <trkpt lat="50.67963701672852" lon="6.201860010623932">
        <ele>350.27562399999999</ele>
        <time>2023-10-21T11:29:40Z</time>
      </trkpt>
      <trkpt lat="50.679540960118175" lon="6.201822962611914">
        <ele>351.06728500000003</ele>
        <time>2023-10-21T11:29:52Z</time>
      </trkpt>
      <trkpt lat="50.67944498732686" lon="6.201777029782534">
        <ele>351.394994</ele>
        <time>2023-10-21T11:30:05Z</time>
      </trkpt>
      <trkpt lat="50.679352032020688" lon="6.201734030619264">
        <ele>351.675389</ele>
        <time>2023-10-21T11:30:18Z</time>
      </trkpt>
      <trkpt lat="50.679264022037387" lon="6.201686002314091">
        <ele>351.94478500000002</ele>
        <time>2023-10-21T11:30:28Z</time>
      </trkpt>
      <trkpt lat="50.679188165813684" lon="6.201618611812592">
        <ele>352.223815</ele>
        <time>2023-10-21T11:30:37Z</time>
      </trkpt>
      <trkpt lat="50.679098395630717" lon="6.201496403664351">
        <ele>352.51247899999998</ele>
        <time>2023-10-21T11:30:45Z</time>
      </trkpt>
      <trkpt lat="50.679036034271121" lon="6.201428007334471">
        <ele>352.80603400000001</ele>
        <time>2023-10-21T11:30:54Z</time>
      </trkpt>
      <trkpt lat="50.678952969610691" lon="6.20136396959424">
        <ele>353.07331699999997</ele>
        <time>2023-10-21T11:31:01Z</time>
      </trkpt>
      <trkpt lat="50.678907036781311" lon="6.201235977932811">
        <ele>353.34311000000002</ele>
        <time>2023-10-21T11:31:10Z</time>
      </trkpt>
      <trkpt lat="50.678827995434403" lon="6.201138999313116">
        <ele>353.632722</ele>
        <time>2023-10-21T11:31:16Z</time>
      </trkpt>
      <trkpt lat="50.67875599488616" lon="6.201050989329815">
        <ele>353.89621699999998</ele>
        <time>2023-10-21T11:31:25Z</time>
      </trkpt>
      <trkpt lat="50.678675025701523" lon="6.200988041236997">
        <ele>354.15749799999998</ele>
        <time>2023-10-21T11:32:13Z</time>
      </trkpt>
      <trkpt lat="50.67858399823308" lon="6.200988963246346">
        <ele>354.42080099999998</ele>
        <time>2023-10-21T11:32:36Z</time>
      </trkpt>
      <trkpt lat="50.678501017391682" lon="6.200929032638669">
        <ele>354.68494800000002</ele>
        <time>2023-10-21T11:32:46Z</time>
      </trkpt>
      <trkpt lat="50.678447121754289" lon="6.200899444520474">
        <ele>354.95001500000001</ele>
        <time>2023-10-21T11:32:53Z</time>
      </trkpt>
      <trkpt lat="50.678321979939938" lon="6.200845967978239">
        <ele>355.227238</ele>
        <time>2023-10-21T11:33:02Z</time>
      </trkpt>
      <trkpt lat="50.678225001320243" lon="6.200831970199943">
        <ele>355.50906700000002</ele>
        <time>2023-10-21T11:33:10Z</time>
      </trkpt>
      <trkpt lat="50.678134979680181" lon="6.200841022655368">
        <ele>355.769992</ele>
        <time>2023-10-21T11:33:20Z</time>
      </trkpt>
      <trkpt lat="50.678044036030769" lon="6.200883015990257">
        <ele>356.04431799999998</ele>
        <time>2023-10-21T11:33:27Z</time>
      </trkpt>
      <trkpt lat="50.677958959713578" lon="6.20093397796154">
        <ele>356.30743100000001</ele>
        <time>2023-10-21T11:33:39Z</time>
      </trkpt>
      <trkpt lat="50.677886959165335" lon="6.200835993513465">
        <ele>356.89479799999998</ele>
        <time>2023-10-21T11:33:48Z</time>
      </trkpt>
      <trkpt lat="50.677806995809078" lon="6.200754018500447">
        <ele>357.51210500000002</ele>
        <time>2023-10-21T11:33:58Z</time>
      </trkpt>
      <trkpt lat="50.677713034674525" lon="6.200721999630332">
        <ele>358.13438300000001</ele>
        <time>2023-10-21T11:34:05Z</time>
      </trkpt>
      <trkpt lat="50.677608009427786" lon="6.2006960157305">
        <ele>358.82216499999998</ele>
        <time>2023-10-21T11:34:14Z</time>
      </trkpt>
      <trkpt lat="50.677533997222781" lon="6.200806992128491">
        <ele>359.48283900000001</ele>
        <time>2023-10-21T11:34:21Z</time>
      </trkpt>
      <trkpt lat="50.677472976967692" lon="6.200934983789921">
        <ele>360.139589</ele>
        <time>2023-10-21T11:34:29Z</time>
      </trkpt>
      <trkpt lat="50.677456967532635" lon="6.201088037341833">
        <ele>360.77547499999997</ele>
        <time>2023-10-21T11:34:37Z</time>
      </trkpt>
      <trkpt lat="50.677417991682887" lon="6.201221980154514">
        <ele>361.38014900000002</ele>
        <time>2023-10-21T11:34:45Z</time>
      </trkpt>
      <trkpt lat="50.677389996126294" lon="6.20136296376586">
        <ele>361.98606699999999</ele>
        <time>2023-10-21T11:34:53Z</time>
      </trkpt>
      <trkpt lat="50.677364012226462" lon="6.201509982347488">
        <ele>362.61190499999998</ele>
        <time>2023-10-21T11:35:02Z</time>
      </trkpt>
      <trkpt lat="50.677328975871205" lon="6.201648032292724">
        <ele>363.22143799999998</ele>
        <time>2023-10-21T11:35:10Z</time>
      </trkpt>
      <trkpt lat="50.677278013899922" lon="6.20179102756083">
        <ele>363.89432599999998</ele>
        <time>2023-10-21T11:35:19Z</time>
      </trkpt>
      <trkpt lat="50.677235014736652" lon="6.201936034485698">
        <ele>364.55081200000001</ele>
        <time>2023-10-21T11:35:27Z</time>
      </trkpt>
      <trkpt lat="50.677067963406444" lon="6.202456969767809">
        <ele>367.120856</ele>
        <time>2023-10-21T11:36:03Z</time>
      </trkpt>
      <trkpt lat="50.677012978121638" lon="6.202582027763128">
        <ele>367.744889</ele>
        <time>2023-10-21T11:36:09Z</time>
      </trkpt>
      <trkpt lat="50.677007026970387" lon="6.202724017202854">
        <ele>368.37977599999999</ele>
        <time>2023-10-21T11:36:18Z</time>
      </trkpt>
      <trkpt lat="50.676834024488926" lon="6.203226009383798">
        <ele>371.20028000000002</ele>
        <time>2023-10-21T11:36:49Z</time>
      </trkpt>
      <trkpt lat="50.676726987585425" lon="6.203474029898644">
        <ele>372.65288900000002</ele>
        <time>2023-10-21T11:37:16Z</time>
      </trkpt>
      <trkpt lat="50.676668984815478" lon="6.203591041266918">
        <ele>373.349018</ele>
        <time>2023-10-21T11:37:23Z</time>
      </trkpt>
      <trkpt lat="50.676588015630841" lon="6.20366002433002">
        <ele>374.02972799999998</ele>
        <time>2023-10-21T11:37:32Z</time>
      </trkpt>
      <trkpt lat="50.67652297206223" lon="6.20376898907125">
        <ele>374.73113999999998</ele>
        <time>2023-10-21T11:37:41Z</time>
      </trkpt>
      <trkpt lat="50.67591997794807" lon="6.204665014520288">
        <ele>381.536179</ele>
        <time>2023-10-21T11:39:20Z</time>
      </trkpt>
      <trkpt lat="50.675824005156755" lon="6.204727040603757">
        <ele>382.44149700000003</ele>
        <time>2023-10-21T11:39:29Z</time>
      </trkpt>
      <trkpt lat="50.675473976880312" lon="6.204967014491558">
        <ele>385.89923399999998</ele>
        <time>2023-10-21T11:40:21Z</time>
      </trkpt>
      <trkpt lat="50.675389990210533" lon="6.205038009211421">
        <ele>386.73090999999999</ele>
        <time>2023-10-21T11:40:28Z</time>
      </trkpt>
      <trkpt lat="50.6752950232476" lon="6.205118978396058">
        <ele>387.673337</ele>
        <time>2023-10-21T11:40:37Z</time>
      </trkpt>
      <trkpt lat="50.67520902492106" lon="6.205201037228108">
        <ele>388.55030299999999</ele>
        <time>2023-10-21T11:40:45Z</time>
      </trkpt>
      <trkpt lat="50.675156973302364" lon="6.205342020839453">
        <ele>389.45260500000001</ele>
        <time>2023-10-21T11:40:54Z</time>
      </trkpt>
      <trkpt lat="50.67510399967432" lon="6.205458026379347">
        <ele>390.24355600000001</ele>
        <time>2023-10-21T11:41:02Z</time>
      </trkpt>
      <trkpt lat="50.67503803409636" lon="6.205590963363648">
        <ele>391.177865</ele>
        <time>2023-10-21T11:41:11Z</time>
      </trkpt>
      <trkpt lat="50.674976008012891" lon="6.205705963075161">
        <ele>392.01295699999997</ele>
        <time>2023-10-21T11:41:20Z</time>
      </trkpt>
      <trkpt lat="50.674914987757802" lon="6.205818029120565">
        <ele>392.82976500000001</ele>
        <time>2023-10-21T11:41:29Z</time>
      </trkpt>
      <trkpt lat="50.674862014129758" lon="6.205941997468472">
        <ele>393.657015</ele>
        <time>2023-10-21T11:41:38Z</time>
      </trkpt>
      <trkpt lat="50.674795964732766" lon="6.206064037978649">
        <ele>394.544219</ele>
        <time>2023-10-21T11:41:46Z</time>
      </trkpt>
      <trkpt lat="50.674737961962819" lon="6.20619697496295">
        <ele>395.43718000000001</ele>
        <time>2023-10-21T11:41:56Z</time>
      </trkpt>
      <trkpt lat="50.674683982506394" lon="6.206315997987986">
        <ele>396.24670200000003</ele>
        <time>2023-10-21T11:42:03Z</time>
      </trkpt>
      <trkpt lat="50.674614999443293" lon="6.20641297660768">
        <ele>397.06615699999998</ele>
        <time>2023-10-21T11:42:10Z</time>
      </trkpt>
      <trkpt lat="50.674525983631611" lon="6.206449018791318">
        <ele>397.990364</ele>
        <time>2023-10-21T11:42:21Z</time>
      </trkpt>
      <trkpt lat="50.674358010292053" lon="6.206555971875787">
        <ele>399.87795499999999</ele>
        <time>2023-10-21T11:42:39Z</time>
      </trkpt>
      <trkpt lat="50.67424401640892" lon="6.206537028774619">
        <ele>401.03107299999999</ele>
        <time>2023-10-21T11:42:47Z</time>
      </trkpt>
      <trkpt lat="50.674144020304084" lon="6.206553960219026">
        <ele>402.04280499999999</ele>
        <time>2023-10-21T11:42:59Z</time>
      </trkpt>
      <trkpt lat="50.67405098117888" lon="6.206555971875787">
        <ele>402.97838999999999</ele>
        <time>2023-10-21T11:43:06Z</time>
      </trkpt>
      <trkpt lat="50.673957020044327" lon="6.206521019339562">
        <ele>403.94991399999998</ele>
        <time>2023-10-21T11:43:11Z</time>
      </trkpt>
      <trkpt lat="50.673862975090742" lon="6.206542979925871">
        <ele>404.90581500000002</ele>
        <time>2023-10-21T11:43:24Z</time>
      </trkpt>
      <trkpt lat="50.673767002299428" lon="6.206586984917522">
        <ele>405.91140200000001</ele>
        <time>2023-10-21T11:43:37Z</time>
      </trkpt>
      <trkpt lat="50.673713022843003" lon="6.206701984629035">
        <ele>406.82381600000002</ele>
        <time>2023-10-21T11:43:45Z</time>
      </trkpt>
      <trkpt lat="50.673623001202941" lon="6.206752024590969">
        <ele>407.78360800000002</ele>
        <time>2023-10-21T11:43:50Z</time>
      </trkpt>
      <trkpt lat="50.673558041453362" lon="6.206867024302483">
        <ele>408.76592900000003</ele>
        <time>2023-10-21T11:44:03Z</time>
      </trkpt>
      <trkpt lat="50.673502972349524" lon="6.20699199847877">
        <ele>409.73601500000001</ele>
        <time>2023-10-21T11:44:13Z</time>
      </trkpt>
      <trkpt lat="50.673480005934834" lon="6.207143040373921">
        <ele>410.72603099999998</ele>
        <time>2023-10-21T11:44:23Z</time>
      </trkpt>
      <trkpt lat="50.673447987064719" lon="6.207300033420324">
        <ele>411.77737300000001</ele>
        <time>2023-10-21T11:44:32Z</time>
      </trkpt>
      <trkpt lat="50.673382021486759" lon="6.207412015646696">
        <ele>412.75232899999997</ele>
        <time>2023-10-21T11:44:40Z</time>
      </trkpt>
      <trkpt lat="50.673345979303122" lon="6.207556016743183">
        <ele>413.73915599999998</ele>
        <time>2023-10-21T11:44:49Z</time>
      </trkpt>
      <trkpt lat="50.673324018716812" lon="6.207719966769218">
        <ele>414.80779999999999</ele>
        <time>2023-10-21T11:44:58Z</time>
      </trkpt>
      <trkpt lat="50.673289988189936" lon="6.207865979522467">
        <ele>415.53611899999999</ele>
        <time>2023-10-21T11:45:05Z</time>
      </trkpt>
      <trkpt lat="50.673198960721493" lon="6.207950972020626">
        <ele>416.220439</ele>
        <time>2023-10-21T11:45:12Z</time>
      </trkpt>
      <trkpt lat="50.673117991536856" lon="6.208021966740489">
        <ele>416.82004999999998</ele>
        <time>2023-10-21T11:45:21Z</time>
      </trkpt>
      <trkpt lat="50.673049008473754" lon="6.20814903639257">
        <ele>417.50608599999998</ele>
        <time>2023-10-21T11:45:28Z</time>
      </trkpt>
      <trkpt lat="50.673035010695457" lon="6.208311980590224">
        <ele>418.18067400000001</ele>
        <time>2023-10-21T11:45:37Z</time>
      </trkpt>
      <trkpt lat="50.672978013753891" lon="6.208438966423273">
        <ele>418.81889699999999</ele>
        <time>2023-10-21T11:45:44Z</time>
      </trkpt>
      <trkpt lat="50.672927973791957" lon="6.20856000110507">
        <ele>419.41129599999999</ele>
        <time>2023-10-21T11:45:53Z</time>
      </trkpt>
      <trkpt lat="50.672868965193629" lon="6.208695033565164">
        <ele>420.08382699999999</ele>
        <time>2023-10-21T11:46:01Z</time>
      </trkpt>
      <trkpt lat="50.672834012657404" lon="6.208845991641283">
        <ele>420.74321300000003</ele>
        <time>2023-10-21T11:46:11Z</time>
      </trkpt>
      <trkpt lat="50.672787996008992" lon="6.208980018272996">
        <ele>421.36820299999999</ele>
        <time>2023-10-21T11:46:17Z</time>
      </trkpt>
      <trkpt lat="50.672732004895806" lon="6.209101974964142">
        <ele>421.98598900000002</ele>
        <time>2023-10-21T11:46:28Z</time>
      </trkpt>
      <trkpt lat="50.672674002125859" lon="6.209233989939094">
        <ele>422.644722</ele>
        <time>2023-10-21T11:46:36Z</time>
      </trkpt>
      <trkpt lat="50.672617005184293" lon="6.209363993257284">
        <ele>423.29302799999999</ele>
        <time>2023-10-21T11:46:46Z</time>
      </trkpt>
      <trkpt lat="50.672551961615682" lon="6.209486033767462">
        <ele>423.94668300000001</ele>
        <time>2023-10-21T11:46:51Z</time>
      </trkpt>
      <trkpt lat="50.672519020736217" lon="6.209620982408524">
        <ele>424.54009200000002</ele>
        <time>2023-10-21T11:47:00Z</time>
      </trkpt>
      <trkpt lat="50.67248297855258" lon="6.209758026525378">
        <ele>425.14832899999999</ele>
        <time>2023-10-21T11:47:09Z</time>
      </trkpt>
      <trkpt lat="50.672444002702832" lon="6.209900015965104">
        <ele>425.78302500000001</ele>
        <time>2023-10-21T11:47:17Z</time>
      </trkpt>
      <trkpt lat="50.672373007982969" lon="6.210008980706334">
        <ele>426.42406199999999</ele>
        <time>2023-10-21T11:47:24Z</time>
      </trkpt>
      <trkpt lat="50.672347024083138" lon="6.210162034258246">
        <ele>427.07479699999999</ele>
        <time>2023-10-21T11:47:31Z</time>
      </trkpt>
      <trkpt lat="50.672287009656429" lon="6.210275022312999">
        <ele>427.68115399999999</ele>
        <time>2023-10-21T11:47:38Z</time>
      </trkpt>
      <trkpt lat="50.672234036028385" lon="6.210407037287951">
        <ele>428.32388700000001</ele>
        <time>2023-10-21T11:47:47Z</time>
      </trkpt>
      <trkpt lat="50.672175027430058" lon="6.210536034777761">
        <ele>428.97823</ele>
        <time>2023-10-21T11:47:55Z</time>
      </trkpt>
      <trkpt lat="50.672108978033066" lon="6.210661008954048">
        <ele>429.64743399999998</ele>
        <time>2023-10-21T11:48:07Z</time>
      </trkpt>
      <trkpt lat="50.672054998576641" lon="6.210781037807465">
        <ele>430.25278700000001</ele>
        <time>2023-10-21T11:48:16Z</time>
      </trkpt>
      <trkpt lat="50.672023985534906" lon="6.210919003933668">
        <ele>430.85501099999999</ele>
        <time>2023-10-21T11:48:23Z</time>
      </trkpt>
      <trkpt lat="50.671972017735243" lon="6.211040960624814">
        <ele>431.45975299999998</ele>
        <time>2023-10-21T11:48:30Z</time>
      </trkpt>
      <trkpt lat="50.671907979995012" lon="6.211147997528315">
        <ele>432.06492400000002</ele>
        <time>2023-10-21T11:48:37Z</time>
      </trkpt>
      <trkpt lat="50.671867998316884" lon="6.211308008059859">
        <ele>432.77239100000003</ele>
        <time>2023-10-21T11:48:53Z</time>
      </trkpt>
      <trkpt lat="50.671804966405034" lon="6.21141797862947">
        <ele>433.382226</ele>
        <time>2023-10-21T11:49:00Z</time>
      </trkpt>
      <trkpt lat="50.67175199277699" lon="6.211539013311267">
        <ele>433.98722700000002</ele>
        <time>2023-10-21T11:49:07Z</time>
      </trkpt>
      <trkpt lat="50.671702036634088" lon="6.211661975830793">
        <ele>434.58828199999999</ele>
        <time>2023-10-21T11:49:14Z</time>
      </trkpt>
      <trkpt lat="50.671647973358631" lon="6.211786027997732">
        <ele>435.20712800000001</ele>
        <time>2023-10-21T11:49:22Z</time>
      </trkpt>
      <trkpt lat="50.671607991680503" lon="6.211918964982033">
        <ele>435.81266099999999</ele>
        <time>2023-10-21T11:49:29Z</time>
      </trkpt>
      <trkpt lat="50.671546971425414" lon="6.212031031027436">
        <ele>436.42008700000002</ele>
        <time>2023-10-21T11:49:37Z</time>
      </trkpt>
      <trkpt lat="50.671491986140609" lon="6.21217000298202">
        <ele>437.09411</ele>
        <time>2023-10-21T11:49:45Z</time>
      </trkpt>
      <trkpt lat="50.671449992805719" lon="6.212315009906888">
        <ele>437.74987099999998</ele>
        <time>2023-10-21T11:49:53Z</time>
      </trkpt>
      <trkpt lat="50.671357959508896" lon="6.212504021823406">
        <ele>438.75162499999999</ele>
        <time>2023-10-21T11:50:19Z</time>
      </trkpt>
      <trkpt lat="50.67130196839571" lon="6.212633019313216">
        <ele>439.43363900000003</ele>
        <time>2023-10-21T11:50:27Z</time>
      </trkpt>
      <trkpt lat="50.671188980340958" lon="6.21287802234292">
        <ele>440.755313</ele>
        <time>2023-10-21T11:51:16Z</time>
      </trkpt>
      <trkpt lat="50.671146987006068" lon="6.213002996519208">
        <ele>441.37242600000002</ele>
        <time>2023-10-21T11:51:24Z</time>
      </trkpt>
      <trkpt lat="50.671103987842798" lon="6.213129982352257">
        <ele>442.000473</ele>
        <time>2023-10-21T11:51:34Z</time>
      </trkpt>
      <trkpt lat="50.671047996729612" lon="6.21326501481235">
        <ele>442.70423599999998</ele>
        <time>2023-10-21T11:51:44Z</time>
      </trkpt>
      <trkpt lat="50.670984964817762" lon="6.213389988988638">
        <ele>443.40085099999999</ele>
        <time>2023-10-21T11:51:57Z</time>
      </trkpt>
      <trkpt lat="50.670937020331621" lon="6.213549999520183">
        <ele>444.17298399999999</ele>
        <time>2023-10-21T11:52:05Z</time>
      </trkpt>
      <trkpt lat="50.670876000076532" lon="6.213656030595303">
        <ele>444.79750300000001</ele>
        <time>2023-10-21T11:52:13Z</time>
      </trkpt>
      <trkpt lat="50.670835012570024" lon="6.213787961751223">
        <ele>445.438695</ele>
        <time>2023-10-21T11:52:21Z</time>
      </trkpt>
      <trkpt lat="50.670764017850161" lon="6.21388703584671">
        <ele>446.09080399999999</ele>
        <time>2023-10-21T11:52:29Z</time>
      </trkpt>
      <trkpt lat="50.670719007030129" lon="6.214026007801294">
        <ele>446.77162399999997</ele>
        <time>2023-10-21T11:52:38Z</time>
      </trkpt>
      <trkpt lat="50.670670978724957" lon="6.214161040261388">
        <ele>447.44681200000002</ele>
        <time>2023-10-21T11:52:46Z</time>
      </trkpt>
      <trkpt lat="50.670614987611771" lon="6.21427402831614">
        <ele>448.072498</ele>
        <time>2023-10-21T11:52:53Z</time>
      </trkpt>
      <trkpt lat="50.670539969578385" lon="6.214374024420977">
        <ele>448.74829099999999</ele>
        <time>2023-10-21T11:53:02Z</time>
      </trkpt>
      <trkpt lat="50.670480038970709" lon="6.214491035789251">
        <ele>449.40477199999998</ele>
        <time>2023-10-21T11:53:11Z</time>
      </trkpt>
      <trkpt lat="50.670439973473549" lon="6.214619027450681">
        <ele>450.02727399999998</ele>
        <time>2023-10-21T11:53:18Z</time>
      </trkpt>
      <trkpt lat="50.670396974310279" lon="6.214770991355181">
        <ele>450.75314100000003</ele>
        <time>2023-10-21T11:53:28Z</time>
      </trkpt>
      <trkpt lat="50.670365039259195" lon="6.214904012158513">
        <ele>450.98132500000003</ele>
        <time>2023-10-21T11:53:41Z</time>
      </trkpt>
      <trkpt lat="50.670283986255527" lon="6.215030997991562">
        <ele>451.27032200000002</ele>
        <time>2023-10-21T11:53:47Z</time>
      </trkpt>
      <trkpt lat="50.67022698931396" lon="6.215142980217934">
        <ele>451.500719</ele>
        <time>2023-10-21T11:53:57Z</time>
      </trkpt>
      <trkpt lat="50.670168986544013" lon="6.215259991586208">
        <ele>451.73897299999999</ele>
        <time>2023-10-21T11:54:03Z</time>
      </trkpt>
      <trkpt lat="50.670121964067221" lon="6.215382032096386">
        <ele>451.96797500000002</ele>
        <time>2023-10-21T11:54:13Z</time>
      </trkpt>
      <trkpt lat="50.670055998489261" lon="6.215517986565828">
        <ele>452.24272300000001</ele>
        <time>2023-10-21T11:54:23Z</time>
      </trkpt>
      <trkpt lat="50.670005958527327" lon="6.215637009590864">
        <ele>452.47173299999997</ele>
        <time>2023-10-21T11:54:32Z</time>
      </trkpt>
      <trkpt lat="50.669953990727663" lon="6.215781010687351">
        <ele>452.73756900000001</ele>
        <time>2023-10-21T11:54:40Z</time>
      </trkpt>
      <trkpt lat="50.669909985736012" lon="6.215915037319064">
        <ele>452.97963800000002</ele>
        <time>2023-10-21T11:54:49Z</time>
      </trkpt>
      <trkpt lat="50.669847037643194" lon="6.216040011495352">
        <ele>453.23580500000003</ele>
        <time>2023-10-21T11:55:00Z</time>
      </trkpt>
      <trkpt lat="50.669799009338021" lon="6.216171020641923">
        <ele>453.47851700000001</ele>
        <time>2023-10-21T11:55:08Z</time>
      </trkpt>
      <trkpt lat="50.669747041538358" lon="6.216293983161449">
        <ele>453.71567299999998</ele>
        <time>2023-10-21T11:55:14Z</time>
      </trkpt>
      <trkpt lat="50.669707981869578" lon="6.216433038935065">
        <ele>453.95949999999999</ele>
        <time>2023-10-21T11:55:22Z</time>
      </trkpt>
      <trkpt lat="50.66964696161449" lon="6.216554995626211">
        <ele>454.208753</ele>
        <time>2023-10-21T11:55:30Z</time>
      </trkpt>
      <trkpt lat="50.669583007693291" lon="6.216672006994486">
        <ele>454.45665300000002</ele>
        <time>2023-10-21T11:55:38Z</time>
      </trkpt>
      <trkpt lat="50.66953900270164" lon="6.216806033626199">
        <ele>454.69872299999997</ele>
        <time>2023-10-21T11:55:47Z</time>
      </trkpt>
      <trkpt lat="50.669485023245215" lon="6.216931007802486">
        <ele>454.941371</ele>
        <time>2023-10-21T11:55:54Z</time>
      </trkpt>
      <trkpt lat="50.669445963576436" lon="6.217061011120677">
        <ele>455.17207200000001</ele>
        <time>2023-10-21T11:56:01Z</time>
      </trkpt>
      <trkpt lat="50.669377986341715" lon="6.217163018882275">
        <ele>455.16263900000001</ele>
        <time>2023-10-21T11:56:08Z</time>
      </trkpt>
      <trkpt lat="50.669318977743387" lon="6.217297967523336">
        <ele>454.80406599999998</ele>
        <time>2023-10-21T11:56:16Z</time>
      </trkpt>
      <trkpt lat="50.669290982186794" lon="6.217434005811811">
        <ele>454.49138699999997</ele>
        <time>2023-10-21T11:56:23Z</time>
      </trkpt>
      <trkpt lat="50.669233985245228" lon="6.217554034665227">
        <ele>454.163478</ele>
        <time>2023-10-21T11:56:31Z</time>
      </trkpt>
      <trkpt lat="50.669188974425197" lon="6.217687977477908">
        <ele>453.83187800000002</ele>
        <time>2023-10-21T11:56:38Z</time>
      </trkpt>
      <trkpt lat="50.669133989140391" lon="6.217828039079905">
        <ele>453.47170899999998</ele>
        <time>2023-10-21T11:56:46Z</time>
      </trkpt>
      <trkpt lat="50.669073974713683" lon="6.217951001599431">
        <ele>453.13231400000001</ele>
        <time>2023-10-21T11:56:53Z</time>
      </trkpt>
      <trkpt lat="50.669015971943736" lon="6.218069018796086">
        <ele>452.80579</ele>
        <time>2023-10-21T11:57:02Z</time>
      </trkpt>
      <trkpt lat="50.668974984437227" lon="6.218217965215445">
        <ele>452.45059800000001</ele>
        <time>2023-10-21T11:57:09Z</time>
      </trkpt>
      <trkpt lat="50.668912958353758" lon="6.218334976583719">
        <ele>452.117119</ele>
        <time>2023-10-21T11:57:17Z</time>
      </trkpt>
      <trkpt lat="50.668866019695997" lon="6.218469003215432">
        <ele>451.78223100000002</ele>
        <time>2023-10-21T11:57:26Z</time>
      </trkpt>
      <trkpt lat="50.668806005269289" lon="6.218590959906578">
        <ele>451.44456600000001</ele>
        <time>2023-10-21T11:57:33Z</time>
      </trkpt>
      <trkpt lat="50.668756971135736" lon="6.218731021508575">
        <ele>451.09485699999999</ele>
        <time>2023-10-21T11:57:41Z</time>
      </trkpt>
      <trkpt lat="50.66872201859951" lon="6.218862030655146">
        <ele>450.78399400000001</ele>
        <time>2023-10-21T11:57:48Z</time>
      </trkpt>
      <trkpt lat="50.668680025264621" lon="6.218992033973336">
        <ele>450.46492599999999</ele>
        <time>2023-10-21T11:57:56Z</time>
      </trkpt>
      <trkpt lat="50.668631996959448" lon="6.219114996492863">
        <ele>450.14907199999999</ele>
        <time>2023-10-21T11:58:04Z</time>
      </trkpt>
      <trkpt lat="50.668579023331404" lon="6.219235025346279">
        <ele>449.82924500000001</ele>
        <time>2023-10-21T11:58:11Z</time>
      </trkpt>
      <trkpt lat="50.668518003076315" lon="6.219352036714554">
        <ele>449.49796700000002</ele>
        <time>2023-10-21T11:58:18Z</time>
      </trkpt>
      <trkpt lat="50.668468968942761" lon="6.219493020325899">
        <ele>449.14634100000001</ele>
        <time>2023-10-21T11:58:25Z</time>
      </trkpt>
      <trkpt lat="50.668454971164465" lon="6.219640960916877">
        <ele>448.50070599999998</ele>
        <time>2023-10-21T11:58:33Z</time>
      </trkpt>
      <trkpt lat="50.668395962566137" lon="6.219764007255435">
        <ele>447.78048200000001</ele>
        <time>2023-10-21T11:58:40Z</time>
      </trkpt>
      <trkpt lat="50.668339971452951" lon="6.219893004745245">
        <ele>447.05043999999998</ele>
        <time>2023-10-21T11:58:48Z</time>
      </trkpt>
      <trkpt lat="50.668285991996527" lon="6.220009010285139">
        <ele>446.37843500000002</ele>
        <time>2023-10-21T11:59:02Z</time>
      </trkpt>
      <trkpt lat="50.668216003105044" lon="6.220115963369608">
        <ele>445.66044799999997</ele>
        <time>2023-10-21T11:59:09Z</time>
      </trkpt>
      <trkpt lat="50.668167974799871" lon="6.220235992223024">
        <ele>444.997907</ele>
        <time>2023-10-21T11:59:15Z</time>
      </trkpt>
      <trkpt lat="50.668109972029924" lon="6.22035501524806">
        <ele>444.29699799999997</ele>
        <time>2023-10-21T11:59:22Z</time>
      </trkpt>
      <trkpt lat="50.668049035593867" lon="6.220472026616335">
        <ele>443.58963799999998</ele>
        <time>2023-10-21T11:59:28Z</time>
      </trkpt>
      <trkpt lat="50.667986003682017" lon="6.220604963600636">
        <ele>442.81438300000002</ele>
        <time>2023-10-21T11:59:37Z</time>
      </trkpt>
      <trkpt lat="50.667922971770167" lon="6.220725998282433">
        <ele>442.08323799999999</ele>
        <time>2023-10-21T11:59:49Z</time>
      </trkpt>
      <trkpt lat="50.667882990092039" lon="6.2208710052073">
        <ele>441.34487000000001</ele>
        <time>2023-10-21T11:59:57Z</time>
      </trkpt>
      <trkpt lat="50.66781903617084" lon="6.220986004918814">
        <ele>440.63030900000001</ele>
        <time>2023-10-21T12:00:03Z</time>
      </trkpt>
      <trkpt lat="50.667745023965836" lon="6.221093041822314">
        <ele>439.890871</ele>
        <time>2023-10-21T12:00:09Z</time>
      </trkpt>
      <trkpt lat="50.667710993438959" lon="6.221236037090421">
        <ele>439.177752</ele>
        <time>2023-10-21T12:00:19Z</time>
      </trkpt>
      <trkpt lat="50.667659025639296" lon="6.221362017095089">
        <ele>438.47571799999997</ele>
        <time>2023-10-21T12:00:26Z</time>
      </trkpt>
      <trkpt lat="50.667607979848981" lon="6.221481040120125">
        <ele>437.80499200000003</ele>
        <time>2023-10-21T12:00:33Z</time>
      </trkpt>
      <trkpt lat="50.667549977079034" lon="6.221607020124793">
        <ele>437.07789500000001</ele>
        <time>2023-10-21T12:00:40Z</time>
      </trkpt>
      <trkpt lat="50.66749700345099" lon="6.221733000129461">
        <ele>436.37181199999998</ele>
        <time>2023-10-21T12:00:48Z</time>
      </trkpt>
      <trkpt lat="50.667451992630959" lon="6.22185998596251">
        <ele>435.79516100000001</ele>
        <time>2023-10-21T12:00:55Z</time>
      </trkpt>
      <trkpt lat="50.667393989861012" lon="6.221982026472688">
        <ele>435.54858300000001</ele>
        <time>2023-10-21T12:01:02Z</time>
      </trkpt>
      <trkpt lat="50.667339004576206" lon="6.222105994820595">
        <ele>435.303877</ele>
        <time>2023-10-21T12:01:10Z</time>
      </trkpt>
      <trkpt lat="50.667273038998246" lon="6.222233986482024">
        <ele>435.03708499999999</ele>
        <time>2023-10-21T12:01:17Z</time>
      </trkpt>
      <trkpt lat="50.66721897572279" lon="6.222360972315073">
        <ele>434.78981900000002</ele>
        <time>2023-10-21T12:01:24Z</time>
      </trkpt>
      <trkpt lat="50.667155021801591" lon="6.22248200699687">
        <ele>434.53500700000001</ele>
        <time>2023-10-21T12:01:32Z</time>
      </trkpt>
      <trkpt lat="50.667117973789573" lon="6.222617039456964">
        <ele>434.29719799999998</ele>
        <time>2023-10-21T12:02:00Z</time>
      </trkpt>
      <trkpt lat="50.667057037353516" lon="6.222738996148109">
        <ele>434.045952</ele>
        <time>2023-10-21T12:02:08Z</time>
      </trkpt>
      <trkpt lat="50.666995011270046" lon="6.222861036658287">
        <ele>433.79311799999999</ele>
        <time>2023-10-21T12:02:14Z</time>
      </trkpt>
      <trkpt lat="50.666932985186577" lon="6.222990034148097">
        <ele>433.53135700000001</ele>
        <time>2023-10-21T12:02:23Z</time>
      </trkpt>
      <trkpt lat="50.666890991851687" lon="6.223135041072965">
        <ele>433.27359000000001</ele>
        <time>2023-10-21T12:02:30Z</time>
      </trkpt>
      <trkpt lat="50.666823014616966" lon="6.223247023299336">
        <ele>433.02282400000001</ele>
        <time>2023-10-21T12:02:37Z</time>
      </trkpt>
      <trkpt lat="50.666779009625316" lon="6.223385995253921">
        <ele>432.77160900000001</ele>
        <time>2023-10-21T12:02:44Z</time>
      </trkpt>
      <trkpt lat="50.666722012683749" lon="6.223495965823531">
        <ele>432.54187999999999</ele>
        <time>2023-10-21T12:02:51Z</time>
      </trkpt>
      <trkpt lat="50.666669961065054" lon="6.223614988848567">
        <ele>432.308177</ele>
        <time>2023-10-21T12:02:57Z</time>
      </trkpt>
      <trkpt lat="50.666618999093771" lon="6.223744992166758">
        <ele>432.06097799999998</ele>
        <time>2023-10-21T12:03:05Z</time>
      </trkpt>
      <trkpt lat="50.666577005758882" lon="6.223870972171426">
        <ele>431.83079600000002</ele>
        <time>2023-10-21T12:03:11Z</time>
      </trkpt>
      <trkpt lat="50.66653098911047" lon="6.224008016288281">
        <ele>431.58012200000002</ele>
        <time>2023-10-21T12:03:17Z</time>
      </trkpt>
      <trkpt lat="50.666459994390607" lon="6.224114969372749">
        <ele>431.32965200000001</ele>
        <time>2023-10-21T12:03:24Z</time>
      </trkpt>
      <trkpt lat="50.666409032419324" lon="6.224245978519321">
        <ele>431.039039</ele>
        <time>2023-10-21T12:03:33Z</time>
      </trkpt>
      <trkpt lat="50.666320016607642" lon="6.224314961582422">
        <ele>430.72706799999997</ele>
        <time>2023-10-21T12:03:39Z</time>
      </trkpt>
      <trkpt lat="50.666243992745876" lon="6.224408000707626">
        <ele>430.424485</ele>
        <time>2023-10-21T12:03:46Z</time>
      </trkpt>
      <trkpt lat="50.666169980540872" lon="6.224496010690928">
        <ele>430.13295699999998</ele>
        <time>2023-10-21T12:03:54Z</time>
      </trkpt>
      <trkpt lat="50.666107032448053" lon="6.224605981260538">
        <ele>429.837333</ele>
        <time>2023-10-21T12:04:02Z</time>
      </trkpt>
      <trkpt lat="50.666032014414668" lon="6.224713018164039">
        <ele>429.51922100000002</ele>
        <time>2023-10-21T12:04:08Z</time>
      </trkpt>
      <trkpt lat="50.665942998602986" lon="6.22478099539876">
        <ele>429.208123</ele>
        <time>2023-10-21T12:04:14Z</time>
      </trkpt>
      <trkpt lat="50.665864963084459" lon="6.22486799955368">
        <ele>428.90760599999999</ele>
        <time>2023-10-21T12:04:22Z</time>
      </trkpt>
      <trkpt lat="50.665784999728203" lon="6.224947962909937">
        <ele>428.60962899999998</ele>
        <time>2023-10-21T12:04:29Z</time>
      </trkpt>
      <trkpt lat="50.66571501083672" lon="6.225036978721619">
        <ele>428.32679999999999</ele>
        <time>2023-10-21T12:04:36Z</time>
      </trkpt>
      <trkpt lat="50.665632029995322" lon="6.225111996755004">
        <ele>428.02588800000001</ele>
        <time>2023-10-21T12:04:44Z</time>
      </trkpt>
      <trkpt lat="50.665546031668782" lon="6.225186008960009">
        <ele>427.71771000000001</ele>
        <time>2023-10-21T12:04:49Z</time>
      </trkpt>
      <trkpt lat="50.665462967008352" lon="6.225245017558336">
        <ele>427.43131299999999</ele>
        <time>2023-10-21T12:04:53Z</time>
      </trkpt>
      <trkpt lat="50.665424996986985" lon="6.225390024483204">
        <ele>427.11843299999998</ele>
        <time>2023-10-21T12:05:02Z</time>
      </trkpt>
      <trkpt lat="50.665340004488826" lon="6.225470993667841">
        <ele>426.80603000000002</ele>
        <time>2023-10-21T12:05:09Z</time>
      </trkpt>
      <trkpt lat="50.665227016434073" lon="6.225676015019417">
        <ele>426.26428900000002</ele>
        <time>2023-10-21T12:05:55Z</time>
      </trkpt>
      <trkpt lat="50.665162978693843" lon="6.225794032216072">
        <ele>425.95460300000002</ele>
        <time>2023-10-21T12:06:04Z</time>
      </trkpt>
      <trkpt lat="50.665092989802361" lon="6.225896961987019">
        <ele>425.65346899999997</ele>
        <time>2023-10-21T12:06:11Z</time>
      </trkpt>
      <trkpt lat="50.665043033659458" lon="6.226015985012054">
        <ele>425.19518199999999</ele>
        <time>2023-10-21T12:06:16Z</time>
      </trkpt>
      <trkpt lat="50.664985030889511" lon="6.226147999987006">
        <ele>424.637337</ele>
        <time>2023-10-21T12:06:25Z</time>
      </trkpt>
      <trkpt lat="50.664914036169648" lon="6.226253025233746">
        <ele>424.10409099999998</ele>
        <time>2023-10-21T12:06:34Z</time>
      </trkpt>
      <trkpt lat="50.664895009249449" lon="6.226400965824723">
        <ele>423.57961999999998</ele>
        <time>2023-10-21T12:06:41Z</time>
      </trkpt>
      <trkpt lat="50.664852010086179" lon="6.226546978577972">
        <ele>423.020465</ele>
        <time>2023-10-21T12:06:48Z</time>
      </trkpt>
      <trkpt lat="50.664799036458135" lon="6.226683016866446">
        <ele>422.46597400000002</ele>
        <time>2023-10-21T12:06:56Z</time>
      </trkpt>
      <trkpt lat="50.664764000102878" lon="6.226816037669778">
        <ele>421.96580799999998</ele>
        <time>2023-10-21T12:07:03Z</time>
      </trkpt>
      <trkpt lat="50.664759976789355" lon="6.22697101905942">
        <ele>421.42701399999999</ele>
        <time>2023-10-21T12:07:10Z</time>
      </trkpt>
      <trkpt lat="50.664721000939608" lon="6.227113008499146">
        <ele>420.88950999999997</ele>
        <time>2023-10-21T12:07:17Z</time>
      </trkpt>
      <trkpt lat="50.664681019261479" lon="6.227244017645717">
        <ele>420.384478</ele>
        <time>2023-10-21T12:07:24Z</time>
      </trkpt>
      <trkpt lat="50.664633996784687" lon="6.22738097794354">
        <ele>419.84342299999997</ele>
        <time>2023-10-21T12:07:32Z</time>
      </trkpt>
      <trkpt lat="50.664583034813404" lon="6.227519027888775">
        <ele>419.28860100000003</ele>
        <time>2023-10-21T12:07:39Z</time>
      </trkpt>
      <trkpt lat="50.664508016780019" lon="6.227631010115147">
        <ele>418.72272800000002</ele>
        <time>2023-10-21T12:07:48Z</time>
      </trkpt>
      <trkpt lat="50.664398968219757" lon="6.227687001228333">
        <ele>418.09459099999998</ele>
        <time>2023-10-21T12:07:54Z</time>
      </trkpt>
      <trkpt lat="50.664319004863501" lon="6.227777022868395">
        <ele>417.55619300000001</ele>
        <time>2023-10-21T12:08:22Z</time>
      </trkpt>
      <trkpt lat="50.664300983771682" lon="6.22793996706605">
        <ele>416.98152700000003</ele>
        <time>2023-10-21T12:08:47Z</time>
      </trkpt>
      <trkpt lat="50.664285980165005" lon="6.228083968162537">
        <ele>416.47467</ele>
        <time>2023-10-21T12:08:55Z</time>
      </trkpt>
      <trkpt lat="50.664248010143638" lon="6.228237021714449">
        <ele>415.90392600000001</ele>
        <time>2023-10-21T12:09:02Z</time>
      </trkpt>
      <trkpt lat="50.664224037900567" lon="6.228380016982555">
        <ele>415.55141099999997</ele>
        <time>2023-10-21T12:09:11Z</time>
      </trkpt>
      <trkpt lat="50.664152037352324" lon="6.228493005037308">
        <ele>415.24630300000001</ele>
        <time>2023-10-21T12:09:17Z</time>
      </trkpt>
      <trkpt lat="50.664061009883881" lon="6.228554025292397">
        <ele>414.94926500000003</ele>
        <time>2023-10-21T12:09:22Z</time>
      </trkpt>
      <trkpt lat="50.663968976587057" lon="6.22862602584064">
        <ele>414.640738</ele>
        <time>2023-10-21T12:09:31Z</time>
      </trkpt>
      <trkpt lat="50.663894964382052" lon="6.228709006682038">
        <ele>414.36796800000002</ele>
        <time>2023-10-21T12:09:37Z</time>
      </trkpt>
      <trkpt lat="50.663811983540654" lon="6.228785030543804">
        <ele>414.07966099999999</ele>
        <time>2023-10-21T12:09:42Z</time>
      </trkpt>
      <trkpt lat="50.663721961900592" lon="6.228760974481702">
        <ele>413.80544600000002</ele>
        <time>2023-10-21T12:09:51Z</time>
      </trkpt>
      <trkpt lat="50.663676029071212" lon="6.228619990870357">
        <ele>413.503466</ele>
        <time>2023-10-21T12:09:58Z</time>
      </trkpt>
      <trkpt lat="50.663604028522968" lon="6.228533992543817">
        <ele>413.23216000000002</ele>
        <time>2023-10-21T12:10:07Z</time>
      </trkpt>
      <trkpt lat="50.663563963025808" lon="6.228393008932471">
        <ele>412.93799100000001</ele>
        <time>2023-10-21T12:10:18Z</time>
      </trkpt>
      <trkpt lat="50.663499003276229" lon="6.228294018656015">
        <ele>412.666562</ele>
        <time>2023-10-21T12:10:23Z</time>
      </trkpt>
      <trkpt lat="50.663413004949689" lon="6.228207014501095">
        <ele>412.359644</ele>
        <time>2023-10-21T12:10:28Z</time>
      </trkpt>
      <trkpt lat="50.663318959996104" lon="6.228125039488077">
        <ele>412.03694999999999</ele>
        <time>2023-10-21T12:10:40Z</time>
      </trkpt>
      <trkpt lat="50.663228016346693" lon="6.228021020069718">
        <ele>411.69936799999999</ele>
        <time>2023-10-21T12:10:44Z</time>
      </trkpt>
      <trkpt lat="50.66317998804152" lon="6.22787500731647">
        <ele>411.386169</ele>
        <time>2023-10-21T12:10:52Z</time>
      </trkpt>
      <trkpt lat="50.663069011643529" lon="6.22780904173851">
        <ele>411.02980200000002</ele>
        <time>2023-10-21T12:11:01Z</time>
      </trkpt>
      <trkpt lat="50.663021989166737" lon="6.22767903842032">
        <ele>410.74480499999999</ele>
        <time>2023-10-21T12:11:18Z</time>
      </trkpt>
      <trkpt lat="50.662929033860564" lon="6.227709967643023">
        <ele>410.45924500000001</ele>
        <time>2023-10-21T12:11:23Z</time>
      </trkpt>
      <trkpt lat="50.662842029705644" lon="6.227751038968563">
        <ele>410.24335500000001</ele>
        <time>2023-10-21T12:11:30Z</time>
      </trkpt>
      <trkpt lat="50.662786960601807" lon="6.227870984002948">
        <ele>410.06342699999999</ele>
        <time>2023-10-21T12:11:36Z</time>
      </trkpt>
      <trkpt lat="50.66272702999413" lon="6.228010961785913">
        <ele>409.85808900000001</ele>
        <time>2023-10-21T12:11:44Z</time>
      </trkpt>
      <trkpt lat="50.66268302500248" lon="6.228140965104103">
        <ele>409.67902600000002</ele>
        <time>2023-10-21T12:11:53Z</time>
      </trkpt>
      <trkpt lat="50.662667015567422" lon="6.228307010605931">
        <ele>409.475009</ele>
        <time>2023-10-21T12:11:59Z</time>
      </trkpt>
      <trkpt lat="50.662610018625855" lon="6.228428967297077">
        <ele>409.29085800000001</ele>
        <time>2023-10-21T12:12:06Z</time>
      </trkpt>
      <trkpt lat="50.662552015855908" lon="6.228552013635635">
        <ele>409.10458999999997</ele>
        <time>2023-10-21T12:12:12Z</time>
      </trkpt>
      <trkpt lat="50.662508010864258" lon="6.228721998631954">
        <ele>408.88147500000002</ele>
        <time>2023-10-21T12:12:16Z</time>
      </trkpt>
      <trkpt lat="50.662467023357749" lon="6.228878991678357">
        <ele>408.67515700000001</ele>
        <time>2023-10-21T12:12:23Z</time>
      </trkpt>
      <trkpt lat="50.662414971739054" lon="6.229000026360154">
        <ele>408.49753199999998</ele>
        <time>2023-10-21T12:12:30Z</time>
      </trkpt>
      <trkpt lat="50.662379013374448" lon="6.229132041335106">
        <ele>408.32292999999999</ele>
        <time>2023-10-21T12:12:36Z</time>
      </trkpt>
      <trkpt lat="50.662358980625868" lon="6.22931401245296">
        <ele>408.09849100000002</ele>
        <time>2023-10-21T12:12:46Z</time>
      </trkpt>
      <trkpt lat="50.662334002554417" lon="6.229450972750783">
        <ele>407.92526700000002</ele>
        <time>2023-10-21T12:12:51Z</time>
      </trkpt>
      <trkpt lat="50.662291003391147" lon="6.229589022696018">
        <ele>407.738426</ele>
        <time>2023-10-21T12:13:01Z</time>
      </trkpt>
      <trkpt lat="50.662257978692651" lon="6.229741992428899">
        <ele>407.542055</ele>
        <time>2023-10-21T12:13:08Z</time>
      </trkpt>
      <trkpt lat="50.662250015884638" lon="6.22989303432405">
        <ele>407.35794099999998</ele>
        <time>2023-10-21T12:13:15Z</time>
      </trkpt>
      <trkpt lat="50.662228977307677" lon="6.230032006278634">
        <ele>407.18431600000002</ele>
        <time>2023-10-21T12:13:22Z</time>
      </trkpt>
      <trkpt lat="50.662251021713018" lon="6.230172989889979">
        <ele>407.007879</ele>
        <time>2023-10-21T12:13:29Z</time>
      </trkpt>
      <trkpt lat="50.662241969257593" lon="6.230341969057918">
        <ele>406.91796099999999</ele>
        <time>2023-10-21T12:13:37Z</time>
      </trkpt>
      <trkpt lat="50.66223400644958" lon="6.230486975982785">
        <ele>406.95933000000002</ele>
        <time>2023-10-21T12:13:43Z</time>
      </trkpt>
      <trkpt lat="50.662187989801168" lon="6.230627037584782">
        <ele>407.00414899999998</ele>
        <time>2023-10-21T12:13:52Z</time>
      </trkpt>
      <trkpt lat="50.662133004516363" lon="6.230755029246211">
        <ele>407.04810099999997</ele>
        <time>2023-10-21T12:14:00Z</time>
      </trkpt>
      <trkpt lat="50.662071984261274" lon="6.230860976502299">
        <ele>407.08879300000001</ele>
        <time>2023-10-21T12:14:05Z</time>
      </trkpt>
      <trkpt lat="50.66204197704792" lon="6.231013024225831">
        <ele>407.13404100000002</ele>
        <time>2023-10-21T12:14:12Z</time>
      </trkpt>
      <trkpt lat="50.662039965391159" lon="6.231182003393769">
        <ele>407.18208399999997</ele>
        <time>2023-10-21T12:14:21Z</time>
      </trkpt>
      <trkpt lat="50.662033008411527" lon="6.231329021975398">
        <ele>407.22398299999998</ele>
        <time>2023-10-21T12:14:28Z</time>
      </trkpt>
      <trkpt lat="50.661961007863283" lon="6.231436980888248">
        <ele>407.268531</ele>
        <time>2023-10-21T12:14:39Z</time>
      </trkpt>
      <trkpt lat="50.661920020356774" lon="6.231586011126638">
        <ele>407.31469900000002</ele>
        <time>2023-10-21T12:14:46Z</time>
      </trkpt>
      <trkpt lat="50.661896970123053" lon="6.231731018051505">
        <ele>407.35718300000002</ele>
        <time>2023-10-21T12:14:53Z</time>
      </trkpt>
      <trkpt lat="50.661821030080318" lon="6.23185196891427">
        <ele>407.405599</ele>
        <time>2023-10-21T12:15:00Z</time>
      </trkpt>
      <trkpt lat="50.661750035360456" lon="6.231944002211094">
        <ele>407.44679600000001</ele>
        <time>2023-10-21T12:15:05Z</time>
      </trkpt>
      <trkpt lat="50.661651967093349" lon="6.231949031352997">
        <ele>407.49076100000002</ele>
        <time>2023-10-21T12:15:16Z</time>
      </trkpt>
      <trkpt lat="50.661578038707376" lon="6.231841994449496">
        <ele>407.53577100000001</ele>
        <time>2023-10-21T12:15:46Z</time>
      </trkpt>
      <trkpt lat="50.661444012075663" lon="6.231768988072872">
        <ele>407.59933599999999</ele>
        <time>2023-10-21T12:16:15Z</time>
      </trkpt>
      <trkpt lat="50.661346027627587" lon="6.231745015829802">
        <ele>407.64380399999999</ele>
        <time>2023-10-21T12:16:22Z</time>
      </trkpt>
      <trkpt lat="50.661248965188861" lon="6.231693970039487">
        <ele>407.68964999999997</ele>
        <time>2023-10-21T12:16:30Z</time>
      </trkpt>
      <trkpt lat="50.661156009882689" lon="6.231632027775049">
        <ele>407.86522300000001</ele>
        <time>2023-10-21T12:16:38Z</time>
      </trkpt>
      <trkpt lat="50.661069005727768" lon="6.231577964499593">
        <ele>408.075244</ele>
        <time>2023-10-21T12:16:47Z</time>
      </trkpt>
      <trkpt lat="50.660982001572847" lon="6.231538988649845">
        <ele>408.27841999999998</ele>
        <time>2023-10-21T12:17:13Z</time>
      </trkpt>
      <trkpt lat="50.660897009074688" lon="6.231492972001433">
        <ele>408.48028799999997</ele>
        <time>2023-10-21T12:17:20Z</time>
      </trkpt>
      <trkpt lat="50.660805981606245" lon="6.23150696977973">
        <ele>408.68568199999999</ele>
        <time>2023-10-21T12:17:28Z</time>
      </trkpt>
      <trkpt lat="50.660717971622944" lon="6.23157100751996">
        <ele>408.90336300000001</ele>
        <time>2023-10-21T12:17:35Z</time>
      </trkpt>
      <trkpt lat="50.660646976903081" lon="6.23167703859508">
        <ele>409.12296199999997</ele>
        <time>2023-10-21T12:17:42Z</time>
      </trkpt>
      <trkpt lat="50.66058000549674" lon="6.231795977801085">
        <ele>409.34960999999998</ele>
        <time>2023-10-21T12:17:50Z</time>
      </trkpt>
      <trkpt lat="50.660523008555174" lon="6.23193796724081">
        <ele>409.588954</ele>
        <time>2023-10-21T12:17:59Z</time>
      </trkpt>
      <trkpt lat="50.660499036312103" lon="6.232089009135962">
        <ele>409.81063899999998</ele>
        <time>2023-10-21T12:18:06Z</time>
      </trkpt>
      <trkpt lat="50.660487972199917" lon="6.232247008010745">
        <ele>410.03698900000001</ele>
        <time>2023-10-21T12:18:12Z</time>
      </trkpt>
      <trkpt lat="50.660489983856678" lon="6.23240802437067">
        <ele>410.266302</ele>
        <time>2023-10-21T12:18:21Z</time>
      </trkpt>
      <trkpt lat="50.660457964986563" lon="6.232561999931932">
        <ele>410.49708399999997</ele>
        <time>2023-10-21T12:18:28Z</time>
      </trkpt>
      <trkpt lat="50.660398034378886" lon="6.232686974108219">
        <ele>410.72036100000003</ele>
        <time>2023-10-21T12:18:37Z</time>
      </trkpt>
      <trkpt lat="50.660323016345501" lon="6.232807002961636">
        <ele>410.96033399999999</ele>
        <time>2023-10-21T12:18:45Z</time>
      </trkpt>
      <trkpt lat="50.660255961120129" lon="6.232906999066472">
        <ele>411.16753499999999</ele>
        <time>2023-10-21T12:18:52Z</time>
      </trkpt>
      <trkpt lat="50.660207010805607" lon="6.23305301181972">
        <ele>411.40278499999999</ele>
        <time>2023-10-21T12:19:00Z</time>
      </trkpt>
      <trkpt lat="50.660159988328815" lon="6.233183015137911">
        <ele>411.61590200000001</ele>
        <time>2023-10-21T12:19:18Z</time>
      </trkpt>
      <trkpt lat="50.66017298027873" lon="6.233328022062779">
        <ele>411.77820000000003</ele>
        <time>2023-10-21T12:20:04Z</time>
      </trkpt>
      <trkpt lat="50.660132998600602" lon="6.233470011502504">
        <ele>411.873963</ele>
        <time>2023-10-21T12:20:12Z</time>
      </trkpt>
      <trkpt lat="50.660117994993925" lon="6.233621975407004">
        <ele>411.96876700000001</ele>
        <time>2023-10-21T12:20:19Z</time>
      </trkpt>
      <trkpt lat="50.660095028579235" lon="6.233762037009001">
        <ele>412.05789700000003</ele>
        <time>2023-10-21T12:20:26Z</time>
      </trkpt>
      <trkpt lat="50.660073990002275" lon="6.233910983428359">
        <ele>412.15196500000002</ele>
        <time>2023-10-21T12:20:33Z</time>
      </trkpt>
      <trkpt lat="50.660062003880739" lon="6.234052972868085">
        <ele>412.240251</ele>
        <time>2023-10-21T12:20:39Z</time>
      </trkpt>
      <trkpt lat="50.660057980567217" lon="6.234199991449714">
        <ele>412.33092900000003</ele>
        <time>2023-10-21T12:20:46Z</time>
      </trkpt>
      <trkpt lat="50.660057980567217" lon="6.234344998374581">
        <ele>412.42029000000002</ele>
        <time>2023-10-21T12:20:53Z</time>
      </trkpt>
      <trkpt lat="50.660057980567217" lon="6.23449201695621">
        <ele>412.51088299999998</ele>
        <time>2023-10-21T12:21:00Z</time>
      </trkpt>
      <trkpt lat="50.660074995830655" lon="6.234640963375568">
        <ele>412.60418499999997</ele>
        <time>2023-10-21T12:21:07Z</time>
      </trkpt>
      <trkpt lat="50.66008597612381" lon="6.23479200527072">
        <ele>412.697856</ele>
        <time>2023-10-21T12:21:14Z</time>
      </trkpt>
      <trkpt lat="50.660103997215629" lon="6.234933994710445">
        <ele>412.78710100000001</ele>
        <time>2023-10-21T12:21:21Z</time>
      </trkpt>
      <trkpt lat="50.660110032185912" lon="6.235086964443326">
        <ele>412.881573</ele>
        <time>2023-10-21T12:21:28Z</time>
      </trkpt>
      <trkpt lat="50.660132998600602" lon="6.235229037702084">
        <ele>412.97189600000002</ele>
        <time>2023-10-21T12:21:35Z</time>
      </trkpt>
      <trkpt lat="50.660145990550518" lon="6.235381001606584">
        <ele>413.06641999999999</ele>
        <time>2023-10-21T12:21:42Z</time>
      </trkpt>
      <trkpt lat="50.66017298027873" lon="6.235533971339464">
        <ele>413.16429699999998</ele>
        <time>2023-10-21T12:21:49Z</time>
      </trkpt>
      <trkpt lat="50.660207010805607" lon="6.23567302711308">
        <ele>413.25611600000002</ele>
        <time>2023-10-21T12:21:56Z</time>
      </trkpt>
      <trkpt lat="50.660261996090412" lon="6.23580202460289">
        <ele>413.35192499999999</ele>
        <time>2023-10-21T12:22:03Z</time>
      </trkpt>
      <trkpt lat="50.66030197776854" lon="6.235946025699377">
        <ele>413.44881500000002</ele>
        <time>2023-10-21T12:22:09Z</time>
      </trkpt>
      <trkpt lat="50.660339025780559" lon="6.23610301874578">
        <ele>413.70092599999998</ele>
        <time>2023-10-21T12:22:17Z</time>
      </trkpt>
      <trkpt lat="50.660338019952178" lon="6.236246014013887">
        <ele>414.005877</ele>
        <time>2023-10-21T12:22:23Z</time>
      </trkpt>
      <trkpt lat="50.660309018567204" lon="6.236388003453612">
        <ele>414.324004</ele>
        <time>2023-10-21T12:22:30Z</time>
      </trkpt>
      <trkpt lat="50.66025797277689" lon="6.236530998721719">
        <ele>414.67388399999999</ele>
        <time>2023-10-21T12:22:37Z</time>
      </trkpt>
      <trkpt lat="50.66025503911078" lon="6.236679023131728">
        <ele>414.98964100000001</ele>
        <time>2023-10-21T12:22:44Z</time>
      </trkpt>
      <trkpt lat="50.66025797277689" lon="6.236830987036228">
        <ele>415.31392299999999</ele>
        <time>2023-10-21T12:22:51Z</time>
      </trkpt>
      <trkpt lat="50.660273982211947" lon="6.236971970647574">
        <ele>415.619371</ele>
        <time>2023-10-21T12:22:58Z</time>
      </trkpt>
      <trkpt lat="50.660287979990244" lon="6.237128963693976">
        <ele>415.95745399999998</ele>
        <time>2023-10-21T12:23:05Z</time>
      </trkpt>
      <trkpt lat="50.660313041880727" lon="6.237271958962083">
        <ele>416.27377100000001</ele>
        <time>2023-10-21T12:23:12Z</time>
      </trkpt>
      <trkpt lat="50.66034103743732" lon="6.237412020564079">
        <ele>416.58681200000001</ele>
        <time>2023-10-21T12:23:20Z</time>
      </trkpt>
      <trkpt lat="50.660424018278718" lon="6.237525008618832">
        <ele>416.95561300000003</ele>
        <time>2023-10-21T12:23:49Z</time>
      </trkpt>
      <trkpt lat="50.660417983308434" lon="6.237690970301628">
        <ele>417.31016599999998</ele>
        <time>2023-10-21T12:23:58Z</time>
      </trkpt>
      <trkpt lat="50.660421000793576" lon="6.237851986661553">
        <ele>417.65363000000002</ele>
        <time>2023-10-21T12:24:07Z</time>
      </trkpt>
      <trkpt lat="50.660457964986563" lon="6.237981989979744">
        <ele>417.95749999999998</ele>
        <time>2023-10-21T12:24:15Z</time>
      </trkpt>
      <trkpt lat="50.660500964149833" lon="6.238134037703276">
        <ele>418.312434</ele>
        <time>2023-10-21T12:24:23Z</time>
      </trkpt>
      <trkpt lat="50.66051403991878" lon="6.238278038799763">
        <ele>418.62259599999999</ele>
        <time>2023-10-21T12:24:31Z</time>
      </trkpt>
      <trkpt lat="50.660533988848329" lon="6.238417010754347">
        <ele>418.92653799999999</ele>
        <time>2023-10-21T12:24:37Z</time>
      </trkpt>
      <trkpt lat="50.660530971363187" lon="6.238562017679215">
        <ele>419.23589900000002</ele>
        <time>2023-10-21T12:24:44Z</time>
      </trkpt>
      <trkpt lat="50.660541029646993" lon="6.238713981583715">
        <ele>419.63065699999999</ele>
        <time>2023-10-21T12:24:52Z</time>
      </trkpt>
      <trkpt lat="50.660577993839979" lon="6.238858988508582">
        <ele>421.119077</ele>
        <time>2023-10-21T12:25:02Z</time>
      </trkpt>
      <trkpt lat="50.660565001890063" lon="6.239008018746972">
        <ele>422.55129499999998</ele>
        <time>2023-10-21T12:25:10Z</time>
      </trkpt>
      <trkpt lat="50.66053600050509" lon="6.239178003743291">
        <ele>424.22769899999997</ele>
        <time>2023-10-21T12:25:20Z</time>
      </trkpt>
      <trkpt lat="50.660510016605258" lon="6.239330973476172">
        <ele>425.73607399999997</ele>
        <time>2023-10-21T12:25:29Z</time>
      </trkpt>
      <trkpt lat="50.660563996061683" lon="6.239452008157969">
        <ele>427.14518600000002</ele>
        <time>2023-10-21T12:25:40Z</time>
      </trkpt>
      <trkpt lat="50.660615041851997" lon="6.239572037011385">
        <ele>428.52092499999998</ele>
        <time>2023-10-21T12:25:51Z</time>
      </trkpt>
      <trkpt lat="50.660662986338139" lon="6.239699022844434">
        <ele>429.92890899999998</ele>
        <time>2023-10-21T12:25:59Z</time>
      </trkpt>
      <trkpt lat="50.660715037956834" lon="6.239843023940921">
        <ele>431.50701600000002</ele>
        <time>2023-10-21T12:26:05Z</time>
      </trkpt>
      <trkpt lat="50.660746973007917" lon="6.240008985623717">
        <ele>433.15920699999998</ele>
        <time>2023-10-21T12:26:16Z</time>
      </trkpt>
      <trkpt lat="50.660735992714763" lon="6.240163967013359">
        <ele>434.64440000000002</ele>
        <time>2023-10-21T12:26:28Z</time>
      </trkpt>
      <trkpt lat="50.66077102907002" lon="6.240307968109846">
        <ele>436.11296299999998</ele>
        <time>2023-10-21T12:26:36Z</time>
      </trkpt>
      <trkpt lat="50.660813022404909" lon="6.240449035540223">
        <ele>437.59646400000003</ele>
        <time>2023-10-21T12:26:45Z</time>
      </trkpt>
      <trkpt lat="50.66085996106267" lon="6.240569986402988">
        <ele>438.94777599999998</ele>
        <time>2023-10-21T12:26:56Z</time>
      </trkpt>
      <trkpt lat="50.660882005468011" lon="6.24072203412652">
        <ele>440.43242500000002</ele>
        <time>2023-10-21T12:27:07Z</time>
      </trkpt>
      <trkpt lat="50.660914024338126" lon="6.240876009687781">
        <ele>441.97564299999999</ele>
        <time>2023-10-21T12:27:16Z</time>
      </trkpt>
      <trkpt lat="50.660962974652648" lon="6.241007018834353">
        <ele>443.42404399999998</ele>
        <time>2023-10-21T12:27:26Z</time>
      </trkpt>
      <trkpt lat="50.660983007401228" lon="6.241145990788937">
        <ele>444.781319</ele>
        <time>2023-10-21T12:27:34Z</time>
      </trkpt>
      <trkpt lat="50.661025000736117" lon="6.241287980228663">
        <ele>446.273438</ele>
        <time>2023-10-21T12:27:42Z</time>
      </trkpt>
      <trkpt lat="50.661062970757484" lon="6.241429969668388">
        <ele>447.09833300000003</ele>
        <time>2023-10-21T12:27:49Z</time>
      </trkpt>
      <trkpt lat="50.661123991012573" lon="6.241553016006947">
        <ele>447.77576199999999</ele>
        <time>2023-10-21T12:28:00Z</time>
      </trkpt>
      <trkpt lat="50.661192974075675" lon="6.241658963263035">
        <ele>448.43482</ele>
        <time>2023-10-21T12:28:06Z</time>
      </trkpt>
      <trkpt lat="50.661227004602551" lon="6.241790978237987">
        <ele>449.05286899999999</ele>
        <time>2023-10-21T12:28:16Z</time>
      </trkpt>
      <trkpt lat="50.661265980452299" lon="6.2419250048697">
        <ele>449.69246700000002</ele>
        <time>2023-10-21T12:28:25Z</time>
      </trkpt>
      <trkpt lat="50.661227004602551" lon="6.242061965167522">
        <ele>450.34391399999998</ele>
        <time>2023-10-21T12:28:37Z</time>
      </trkpt>
      <trkpt lat="50.661147963255644" lon="6.242155004292727">
        <ele>451.01843700000001</ele>
        <time>2023-10-21T12:28:55Z</time>
      </trkpt>
      <trkpt lat="50.66105299629271" lon="6.242114016786218">
        <ele>451.69240500000001</ele>
        <time>2023-10-21T12:29:08Z</time>
      </trkpt>
      <trkpt lat="50.661017037928104" lon="6.242261035367847">
        <ele>452.375991</ele>
        <time>2023-10-21T12:29:13Z</time>
      </trkpt>
      <trkpt lat="50.660929027944803" lon="6.242293976247311">
        <ele>452.99495000000002</ele>
        <time>2023-10-21T12:29:17Z</time>
      </trkpt>
      <trkpt lat="50.660827020183206" lon="6.242337981238961">
        <ele>453.71855399999998</ele>
        <time>2023-10-21T12:29:28Z</time>
      </trkpt>
      <trkpt lat="50.66073196940124" lon="6.242386009544134">
        <ele>454.40116399999999</ele>
        <time>2023-10-21T12:29:43Z</time>
      </trkpt>
      <trkpt lat="50.660633984953165" lon="6.242415010929108">
        <ele>455.08346899999998</ele>
        <time>2023-10-21T12:29:56Z</time>
      </trkpt>
      <trkpt lat="50.660551004111767" lon="6.242491034790874">
        <ele>455.74017900000001</ele>
        <time>2023-10-21T12:30:06Z</time>
      </trkpt>
      <trkpt lat="50.660463999956846" lon="6.242561023682356">
        <ele>456.40848</ele>
        <time>2023-10-21T12:30:21Z</time>
      </trkpt>
      <trkpt lat="50.660384958609939" lon="6.242644004523754">
        <ele>457.05799400000001</ele>
        <time>2023-10-21T12:30:31Z</time>
      </trkpt>
      <trkpt lat="50.660312036052346" lon="6.242732014507055">
        <ele>457.68668600000001</ele>
        <time>2023-10-21T12:30:39Z</time>
      </trkpt>
      <trkpt lat="50.660237018018961" lon="6.242822036147118">
        <ele>458.33152100000001</ele>
        <time>2023-10-21T12:30:53Z</time>
      </trkpt>
      <trkpt lat="50.660188989713788" lon="6.242964025586844">
        <ele>459.05934200000002</ele>
        <time>2023-10-21T12:31:02Z</time>
      </trkpt>
      <trkpt lat="50.660240035504103" lon="6.243102997541428">
        <ele>459.884636</ele>
        <time>2023-10-21T12:31:23Z</time>
      </trkpt>
      <trkpt lat="50.660215979442" lon="6.243254039436579">
        <ele>460.684597</ele>
        <time>2023-10-21T12:31:37Z</time>
      </trkpt>
      <trkpt lat="50.660166023299098" lon="6.243377001956105">
        <ele>461.43544900000001</ele>
        <time>2023-10-21T12:31:44Z</time>
      </trkpt>
      <trkpt lat="50.660146996378899" lon="6.243569031357765">
        <ele>462.43403000000001</ele>
        <time>2023-10-21T12:31:51Z</time>
      </trkpt>
      <trkpt lat="50.660097040235996" lon="6.243705991655588">
        <ele>463.24637200000001</ele>
        <time>2023-10-21T12:32:04Z</time>
      </trkpt>
      <trkpt lat="50.660081030800939" lon="6.243850998580456">
        <ele>464.00268999999997</ele>
        <time>2023-10-21T12:32:18Z</time>
      </trkpt>
      <trkpt lat="50.660038031637669" lon="6.244001034647226">
        <ele>464.84864700000003</ele>
        <time>2023-10-21T12:32:27Z</time>
      </trkpt>
      <trkpt lat="50.660025961697102" lon="6.244146963581443">
        <ele>465.60518100000002</ele>
        <time>2023-10-21T12:32:44Z</time>
      </trkpt>
      <trkpt lat="50.660024033859372" lon="6.244304040446878">
        <ele>466.41212300000001</ele>
        <time>2023-10-21T12:32:59Z</time>
      </trkpt>
      <trkpt lat="50.659973993897438" lon="6.244429014623165">
        <ele>467.171649</ele>
        <time>2023-10-21T12:33:19Z</time>
      </trkpt>
      <trkpt lat="50.659950021654367" lon="6.244576033204794">
        <ele>467.95169299999998</ele>
        <time>2023-10-21T12:33:27Z</time>
      </trkpt>
      <trkpt lat="50.659971982240677" lon="6.244717016816139">
        <ele>468.697878</ele>
        <time>2023-10-21T12:33:47Z</time>
      </trkpt>
      <trkpt lat="50.659930994734168" lon="6.244867974892259">
        <ele>469.54200900000001</ele>
        <time>2023-10-21T12:33:57Z</time>
      </trkpt>
      <trkpt lat="50.659858994185925" lon="6.244964031502605">
        <ele>470.30621500000001</ele>
        <time>2023-10-21T12:34:05Z</time>
      </trkpt>
      <trkpt lat="50.659800991415977" lon="6.24510501511395">
        <ele>471.16995300000002</ele>
        <time>2023-10-21T12:34:15Z</time>
      </trkpt>
      <trkpt lat="50.659752041101456" lon="6.245258990675211">
        <ele>472.05541099999999</ele>
        <time>2023-10-21T12:34:26Z</time>
      </trkpt>
      <trkpt lat="50.659795040264726" lon="6.245399974286556">
        <ele>472.85945800000002</ele>
        <time>2023-10-21T12:34:37Z</time>
      </trkpt>
      <trkpt lat="50.659834016114473" lon="6.245542969554663">
        <ele>473.60283199999998</ele>
        <time>2023-10-21T12:34:45Z</time>
      </trkpt>
      <trkpt lat="50.659869974479079" lon="6.245674984529614">
        <ele>474.14290499999998</ele>
        <time>2023-10-21T12:34:53Z</time>
      </trkpt>
      <trkpt lat="50.659929988905787" lon="6.245785960927606">
        <ele>474.69116000000002</ele>
        <time>2023-10-21T12:35:00Z</time>
      </trkpt>
      <trkpt lat="50.659942980855703" lon="6.245933985337615">
        <ele>475.25271700000002</ele>
        <time>2023-10-21T12:35:09Z</time>
      </trkpt>
      <trkpt lat="50.659982040524483" lon="6.24607102945447">
        <ele>475.81715200000002</ele>
        <time>2023-10-21T12:35:17Z</time>
      </trkpt>
      <trkpt lat="50.66004297696054" lon="6.246174965053797">
        <ele>476.349671</ele>
        <time>2023-10-21T12:35:24Z</time>
      </trkpt>
      <trkpt lat="50.660099973902106" lon="6.24628602527082">
        <ele>476.88655499999999</ele>
        <time>2023-10-21T12:35:31Z</time>
      </trkpt>
      <trkpt lat="50.66012897528708" lon="6.246442012488842">
        <ele>477.49755299999998</ele>
        <time>2023-10-21T12:35:38Z</time>
      </trkpt>
      <trkpt lat="50.660188989713788" lon="6.246578972786665">
        <ele>478.12338199999999</ele>
        <time>2023-10-21T12:35:48Z</time>
      </trkpt>
      <trkpt lat="50.660211034119129" lon="6.246731020510197">
        <ele>478.70935600000001</ele>
        <time>2023-10-21T12:35:56Z</time>
      </trkpt>
      <trkpt lat="50.660245986655354" lon="6.246882984414697">
        <ele>479.31714899999997</ele>
        <time>2023-10-21T12:36:04Z</time>
      </trkpt>
      <trkpt lat="50.660283034667373" lon="6.247028997167945">
        <ele>479.908095</ele>
        <time>2023-10-21T12:36:11Z</time>
      </trkpt>
      <trkpt lat="50.66032100468874" lon="6.247174004092813">
        <ele>480.497792</ele>
        <time>2023-10-21T12:36:20Z</time>
      </trkpt>
      <trkpt lat="50.660381019115448" lon="6.247310964390636">
        <ele>481.12361900000002</ele>
        <time>2023-10-21T12:36:28Z</time>
      </trkpt>
      <trkpt lat="50.660409014672041" lon="6.247450020164251">
        <ele>481.67177299999997</ele>
        <time>2023-10-21T12:36:36Z</time>
      </trkpt>
      <trkpt lat="50.660456037148833" lon="6.247583040967584">
        <ele>482.244057</ele>
        <time>2023-10-21T12:36:43Z</time>
      </trkpt>
      <trkpt lat="50.660519991070032" lon="6.247690999880433">
        <ele>482.79969499999999</ele>
        <time>2023-10-21T12:36:50Z</time>
      </trkpt>
      <trkpt lat="50.660568019375205" lon="6.247815974056721">
        <ele>483.34896099999997</ele>
        <time>2023-10-21T12:36:59Z</time>
      </trkpt>
      <trkpt lat="50.660618981346488" lon="6.247938014566898">
        <ele>483.89820200000003</ele>
        <time>2023-10-21T12:37:05Z</time>
      </trkpt>
      <trkpt lat="50.660586962476373" lon="6.248071035370231">
        <ele>484.43200100000001</ele>
        <time>2023-10-21T12:37:21Z</time>
      </trkpt>
      <trkpt lat="50.660643959417939" lon="6.248189974576235">
        <ele>484.99107099999998</ele>
        <time>2023-10-21T12:37:30Z</time>
      </trkpt>
      <trkpt lat="50.660706991329789" lon="6.248301034793258">
        <ele>485.549533</ele>
        <time>2023-10-21T12:37:42Z</time>
      </trkpt>
      <trkpt lat="50.660670027136803" lon="6.248431960120797">
        <ele>486.08709700000003</ele>
        <time>2023-10-21T12:37:48Z</time>
      </trkpt>
      <trkpt lat="50.660673966631293" lon="6.24858501367271">
        <ele>486.66107799999997</ele>
        <time>2023-10-21T12:37:55Z</time>
      </trkpt>
      <trkpt lat="50.660668015480042" lon="6.248728008940816">
        <ele>487.198262</ele>
        <time>2023-10-21T12:38:03Z</time>
      </trkpt>
      <trkpt lat="50.660676984116435" lon="6.248871004208922">
        <ele>487.73690699999997</ele>
        <time>2023-10-21T12:38:11Z</time>
      </trkpt>
      <trkpt lat="50.660675978288054" lon="6.249027997255325">
        <ele>488.325424</ele>
        <time>2023-10-21T12:38:19Z</time>
      </trkpt>
      <trkpt lat="50.660661980509758" lon="6.249169986695051">
        <ele>488.86408499999999</ele>
        <time>2023-10-21T12:38:32Z</time>
      </trkpt>
      <trkpt lat="50.660677989944816" lon="6.249311976134777">
        <ele>489.40469000000002</ele>
        <time>2023-10-21T12:38:39Z</time>
      </trkpt>
      <trkpt lat="50.660678995773196" lon="6.249454971402884">
        <ele>489.94073300000002</ele>
        <time>2023-10-21T12:38:47Z</time>
      </trkpt>
      <trkpt lat="50.660684024915099" lon="6.249606013298035">
        <ele>490.50750099999999</ele>
        <time>2023-10-21T12:38:53Z</time>
      </trkpt>
      <trkpt lat="50.660695005208254" lon="6.249754959717393">
        <ele>491.06977599999999</ele>
        <time>2023-10-21T12:38:58Z</time>
      </trkpt>
      <trkpt lat="50.660712020471692" lon="6.249902984127402">
        <ele>491.63356099999999</ele>
        <time>2023-10-21T12:39:08Z</time>
      </trkpt>
      <trkpt lat="50.660703973844647" lon="6.250044973567128">
        <ele>492.16792099999998</ele>
        <time>2023-10-21T12:39:13Z</time>
      </trkpt>
      <trkpt lat="50.660704979673028" lon="6.250187968835235">
        <ele>492.70396299999999</ele>
        <time>2023-10-21T12:39:29Z</time>
      </trkpt>
      <trkpt lat="50.660701962187886" lon="6.250471025705338">
        <ele>493.76488699999999</ele>
        <time>2023-10-21T12:40:43Z</time>
      </trkpt>
      <trkpt lat="50.660727024078369" lon="6.250625001266599">
        <ele>494.36075599999998</ele>
        <time>2023-10-21T12:40:48Z</time>
      </trkpt>
      <trkpt lat="50.660725012421608" lon="6.250807978212833">
        <ele>494.87198899999999</ele>
        <time>2023-10-21T12:40:52Z</time>
      </trkpt>
      <trkpt lat="50.660706991329789" lon="6.250961031764746">
        <ele>495.11409900000001</ele>
        <time>2023-10-21T12:40:55Z</time>
      </trkpt>
      <trkpt lat="50.66073096357286" lon="6.251105032861233">
        <ele>495.34575599999999</ele>
        <time>2023-10-21T12:40:58Z</time>
      </trkpt>
      <trkpt lat="50.660748984664679" lon="6.251262025907636">
        <ele>495.59398700000003</ele>
        <time>2023-10-21T12:41:01Z</time>
      </trkpt>
      <trkpt lat="50.66073196940124" lon="6.25144399702549">
        <ele>495.88020999999998</ele>
        <time>2023-10-21T12:41:05Z</time>
      </trkpt>
      <trkpt lat="50.660718977451324" lon="6.251590009778738">
        <ele>496.10959400000002</ele>
        <time>2023-10-21T12:41:08Z</time>
      </trkpt>
      <trkpt lat="50.660732975229621" lon="6.251771980896592">
        <ele>496.394836</ele>
        <time>2023-10-21T12:41:12Z</time>
      </trkpt>
      <trkpt lat="50.660753007978201" lon="6.251967027783394">
        <ele>496.70217300000002</ele>
        <time>2023-10-21T12:41:16Z</time>
      </trkpt>
      <trkpt lat="50.660735992714763" lon="6.252112034708262">
        <ele>496.93159700000001</ele>
        <time>2023-10-21T12:41:19Z</time>
      </trkpt>
      <trkpt lat="50.66070900298655" lon="6.252253018319607">
        <ele>497.16076299999997</ele>
        <time>2023-10-21T12:41:23Z</time>
      </trkpt>
      <trkpt lat="50.660701040178537" lon="6.252429038286209">
        <ele>497.43529599999999</ele>
        <time>2023-10-21T12:41:27Z</time>
      </trkpt>
      <trkpt lat="50.660730041563511" lon="6.252592988312244">
        <ele>497.700197</ele>
        <time>2023-10-21T12:41:31Z</time>
      </trkpt>
      <trkpt lat="50.660735992714763" lon="6.252761967480183">
        <ele>497.963548</ele>
        <time>2023-10-21T12:41:34Z</time>
      </trkpt>
      <trkpt lat="50.660746973007917" lon="6.252907980233431">
        <ele>498.19230099999999</ele>
        <time>2023-10-21T12:41:37Z</time>
      </trkpt>
      <trkpt lat="50.660730041563511" lon="6.253085006028414">
        <ele>498.47082999999998</ele>
        <time>2023-10-21T12:41:40Z</time>
      </trkpt>
      <trkpt lat="50.660744039341807" lon="6.253234036266804">
        <ele>498.70518499999997</ele>
        <time>2023-10-21T12:41:43Z</time>
      </trkpt>
      <trkpt lat="50.660756025463343" lon="6.253427993506193">
        <ele>499.00845299999997</ele>
        <time>2023-10-21T12:41:47Z</time>
      </trkpt>
      <trkpt lat="50.660746973007917" lon="6.253606025129557">
        <ele>499.20942500000001</ele>
        <time>2023-10-21T12:41:51Z</time>
      </trkpt>
      <trkpt lat="50.660732975229621" lon="6.253789002075791">
        <ele>499.31819300000001</ele>
        <time>2023-10-21T12:41:55Z</time>
      </trkpt>
      <trkpt lat="50.66070900298655" lon="6.253940965980291">
        <ele>499.41062599999998</ele>
        <time>2023-10-21T12:41:58Z</time>
      </trkpt>
      <trkpt lat="50.660721994936466" lon="6.254122015088797">
        <ele>499.51811400000003</ele>
        <time>2023-10-21T12:42:01Z</time>
      </trkpt>
      <trkpt lat="50.660740016028285" lon="6.254285965114832">
        <ele>499.61632700000001</ele>
        <time>2023-10-21T12:42:04Z</time>
      </trkpt>
      <trkpt lat="50.660747978836298" lon="6.254443963989615">
        <ele>499.709857</ele>
        <time>2023-10-21T12:42:07Z</time>
      </trkpt>
      <trkpt lat="50.660761976614594" lon="6.254615960642695">
        <ele>499.812184</ele>
        <time>2023-10-21T12:42:10Z</time>
      </trkpt>
      <trkpt lat="50.660767005756497" lon="6.254777982831001">
        <ele>499.90789000000001</ele>
        <time>2023-10-21T12:42:13Z</time>
      </trkpt>
      <trkpt lat="50.660762982442975" lon="6.254946039989591">
        <ele>500.007094</ele>
        <time>2023-10-21T12:42:16Z</time>
      </trkpt>
      <trkpt lat="50.660758959129453" lon="6.255130022764206">
        <ele>500.11573199999998</ele>
        <time>2023-10-21T12:42:19Z</time>
      </trkpt>
      <trkpt lat="50.660775974392891" lon="6.255304031074047">
        <ele>500.21961900000002</ele>
        <time>2023-10-21T12:42:22Z</time>
      </trkpt>
      <trkpt lat="50.660779997706413" lon="6.255469992756844">
        <ele>500.31764299999998</ele>
        <time>2023-10-21T12:42:25Z</time>
      </trkpt>
      <trkpt lat="50.660786032676697" lon="6.255613993853331">
        <ele>500.40279800000002</ele>
        <time>2023-10-21T12:42:28Z</time>
      </trkpt>
      <trkpt lat="50.660767005756497" lon="6.255797976627946">
        <ele>500.51280300000002</ele>
        <time>2023-10-21T12:42:32Z</time>
      </trkpt>
      <trkpt lat="50.66077396273613" lon="6.255955975502729">
        <ele>500.60626400000001</ele>
        <time>2023-10-21T12:42:35Z</time>
      </trkpt>
      <trkpt lat="50.660787038505077" lon="6.256135012954474">
        <ele>500.71257900000001</ele>
        <time>2023-10-21T12:42:39Z</time>
      </trkpt>
      <trkpt lat="50.660790977999568" lon="6.256287982687354">
        <ele>500.80293799999998</ele>
        <time>2023-10-21T12:42:42Z</time>
      </trkpt>
      <trkpt lat="50.660775974392891" lon="6.256467020139098">
        <ele>500.98683</ele>
        <time>2023-10-21T12:42:45Z</time>
      </trkpt>
      <trkpt lat="50.66077396273613" lon="6.256617978215218">
        <ele>501.17073299999998</ele>
        <time>2023-10-21T12:42:48Z</time>
      </trkpt>
      <trkpt lat="50.66077396273613" lon="6.256802966818214">
        <ele>501.39599500000003</ele>
        <time>2023-10-21T12:42:52Z</time>
      </trkpt>
      <trkpt lat="50.660764994099736" lon="6.256985021755099">
        <ele>501.61827799999998</ele>
        <time>2023-10-21T12:42:55Z</time>
      </trkpt>
      <trkpt lat="50.66077496856451" lon="6.257135979831219">
        <ele>501.80314099999998</ele>
        <time>2023-10-21T12:42:58Z</time>
      </trkpt>
      <trkpt lat="50.660787960514426" lon="6.257303031161428">
        <ele>502.00801300000001</ele>
        <time>2023-10-21T12:43:02Z</time>
      </trkpt>
      <trkpt lat="50.660804975777864" lon="6.25745901837945">
        <ele>502.20075100000003</ele>
        <time>2023-10-21T12:43:05Z</time>
      </trkpt>
      <trkpt lat="50.660807993263006" lon="6.257641995325685">
        <ele>502.423652</ele>
        <time>2023-10-21T12:43:09Z</time>
      </trkpt>
      <trkpt lat="50.660792989656329" lon="6.257805023342371">
        <ele>502.62420700000001</ele>
        <time>2023-10-21T12:43:12Z</time>
      </trkpt>
      <trkpt lat="50.660812016576529" lon="6.257980959489942">
        <ele>502.84159499999998</ele>
        <time>2023-10-21T12:43:16Z</time>
      </trkpt>
      <trkpt lat="50.660810004919767" lon="6.258172988891602">
        <ele>503.07541300000003</ele>
        <time>2023-10-21T12:43:20Z</time>
      </trkpt>
      <trkpt lat="50.660834982991219" lon="6.258349008858204">
        <ele>503.29503</ele>
        <time>2023-10-21T12:43:24Z</time>
      </trkpt>
      <trkpt lat="50.660808999091387" lon="6.258509019389749">
        <ele>503.496151</ele>
        <time>2023-10-21T12:43:27Z</time>
      </trkpt>
      <trkpt lat="50.660813022404909" lon="6.258651008829474">
        <ele>503.66922499999998</ele>
        <time>2023-10-21T12:43:30Z</time>
      </trkpt>
      <trkpt lat="50.66081796772778" lon="6.258818982169032">
        <ele>503.87401299999999</ele>
        <time>2023-10-21T12:43:33Z</time>
      </trkpt>
      <trkpt lat="50.660811010748148" lon="6.258967006579042">
        <ele>504.05472300000002</ele>
        <time>2023-10-21T12:43:36Z</time>
      </trkpt>
      <trkpt lat="50.660834982991219" lon="6.259130034595728">
        <ele>504.25848100000002</ele>
        <time>2023-10-21T12:43:40Z</time>
      </trkpt>
      <trkpt lat="50.660822996869683" lon="6.259299013763666">
        <ele>504.342894</ele>
        <time>2023-10-21T12:43:43Z</time>
      </trkpt>
      <trkpt lat="50.660830037668347" lon="6.259456006810069">
        <ele>504.39937700000002</ele>
        <time>2023-10-21T12:43:46Z</time>
      </trkpt>
      <trkpt lat="50.660834982991219" lon="6.25960998237133">
        <ele>504.45471600000002</ele>
        <time>2023-10-21T12:43:49Z</time>
      </trkpt>
      <trkpt lat="50.660842023789883" lon="6.25975901260972">
        <ele>504.50833399999999</ele>
        <time>2023-10-21T12:43:52Z</time>
      </trkpt>
      <trkpt lat="50.660843029618263" lon="6.259906031191349">
        <ele>504.56109199999997</ele>
        <time>2023-10-21T12:43:55Z</time>
      </trkpt>
      <trkpt lat="50.660848980769515" lon="6.260065035894513">
        <ele>504.61825399999998</ele>
        <time>2023-10-21T12:43:58Z</time>
      </trkpt>
      <trkpt lat="50.660862978547812" lon="6.260207025334239">
        <ele>504.669826</ele>
        <time>2023-10-21T12:44:01Z</time>
      </trkpt>
      <trkpt lat="50.660859039053321" lon="6.2603610008955">
        <ele>504.72513900000001</ele>
        <time>2023-10-21T12:44:04Z</time>
      </trkpt>
      <trkpt lat="50.660872031003237" lon="6.26051003113389">
        <ele>504.77911499999999</ele>
        <time>2023-10-21T12:44:07Z</time>
      </trkpt>
      <trkpt lat="50.660867001861334" lon="6.260652020573616">
        <ele>504.83015399999999</ele>
        <time>2023-10-21T12:44:10Z</time>
      </trkpt>
      <trkpt lat="50.660896003246307" lon="6.260799039155245">
        <ele>504.88540399999999</ele>
        <time>2023-10-21T12:44:13Z</time>
      </trkpt>
      <trkpt lat="50.660910001024604" lon="6.260967012494803">
        <ele>504.946213</ele>
        <time>2023-10-21T12:44:16Z</time>
      </trkpt>
      <trkpt lat="50.660935984924436" lon="6.261152001097798">
        <ele>505.01421699999997</ele>
        <time>2023-10-21T12:44:20Z</time>
      </trkpt>
      <trkpt lat="50.66096599213779" lon="6.261328021064401">
        <ele>505.07962199999997</ele>
        <time>2023-10-21T12:44:24Z</time>
      </trkpt>
      <trkpt lat="50.661013014614582" lon="6.261471016332507">
        <ele>505.137429</ele>
        <time>2023-10-21T12:44:27Z</time>
      </trkpt>
      <trkpt lat="50.661069005727768" lon="6.261592973023653">
        <ele>505.191484</ele>
        <time>2023-10-21T12:44:30Z</time>
      </trkpt>
      <trkpt lat="50.661108987405896" lon="6.261747032403946">
        <ele>505.25121000000001</ele>
        <time>2023-10-21T12:44:33Z</time>
      </trkpt>
      <trkpt lat="50.661161039024591" lon="6.261878041550517">
        <ele>505.30667799999998</ele>
        <time>2023-10-21T12:44:35Z</time>
      </trkpt>
      <trkpt lat="50.661214012652636" lon="6.262021958827972">
        <ele>505.28237000000001</ele>
        <time>2023-10-21T12:44:38Z</time>
      </trkpt>
      <trkpt lat="50.661248965188861" lon="6.262157997116447">
        <ele>505.25672100000003</ele>
        <time>2023-10-21T12:44:41Z</time>
      </trkpt>
      <trkpt lat="50.661308979615569" lon="6.262319013476372">
        <ele>505.224086</ele>
        <time>2023-10-21T12:44:45Z</time>
      </trkpt>
      <trkpt lat="50.661361031234264" lon="6.262450022622943">
        <ele>505.19707699999998</ele>
        <time>2023-10-21T12:44:48Z</time>
      </trkpt>
      <trkpt lat="50.661405036225915" lon="6.262595029547811">
        <ele>505.16898700000002</ele>
        <time>2023-10-21T12:44:51Z</time>
      </trkpt>
      <trkpt lat="50.661452980712056" lon="6.262746993452311">
        <ele>505.13931300000002</ele>
        <time>2023-10-21T12:44:55Z</time>
      </trkpt>
      <trkpt lat="50.661515006795526" lon="6.262897029519081">
        <ele>505.10802200000001</ele>
        <time>2023-10-21T12:44:58Z</time>
      </trkpt>
      <trkpt lat="50.661562029272318" lon="6.263071037828922">
        <ele>505.074972</ele>
        <time>2023-10-21T12:45:02Z</time>
      </trkpt>
      <trkpt lat="50.661597987636924" lon="6.263212021440268">
        <ele>505.04840999999999</ele>
        <time>2023-10-21T12:45:05Z</time>
      </trkpt>
      <trkpt lat="50.661658002063632" lon="6.263369014486671">
        <ele>505.01637599999998</ele>
        <time>2023-10-21T12:45:09Z</time>
      </trkpt>
      <trkpt lat="50.661706030368805" lon="6.263503041118383">
        <ele>504.98948100000001</ele>
        <time>2023-10-21T12:45:15Z</time>
      </trkpt>
      <trkpt lat="50.661752969026566" lon="6.263670008629561">
        <ele>504.95755300000002</ele>
        <time>2023-10-21T12:45:23Z</time>
      </trkpt>
      <trkpt lat="50.661799991503358" lon="6.263791965320706">
        <ele>504.93260600000002</ele>
        <time>2023-10-21T12:45:30Z</time>
      </trkpt>
      <trkpt lat="50.661861011758447" lon="6.263901013880968">
        <ele>504.90719899999999</ele>
        <time>2023-10-21T12:45:36Z</time>
      </trkpt>
      <trkpt lat="50.661908034235239" lon="6.26403596252203">
        <ele>504.88028600000001</ele>
        <time>2023-10-21T12:45:43Z</time>
      </trkpt>
      <trkpt lat="50.661967964842916" lon="6.26416202634573">
        <ele>504.85274800000002</ele>
        <time>2023-10-21T12:45:51Z</time>
      </trkpt>
      <trkpt lat="50.662039965391159" lon="6.26425095833838">
        <ele>504.82753400000001</ele>
        <time>2023-10-21T12:45:58Z</time>
      </trkpt>
      <trkpt lat="50.662113977596164" lon="6.264352966099978">
        <ele>504.78009900000001</ele>
        <time>2023-10-21T12:46:06Z</time>
      </trkpt>
      <trkpt lat="50.662180026993155" lon="6.264471989125013">
        <ele>504.71125999999998</ele>
        <time>2023-10-21T12:46:14Z</time>
      </trkpt>
      <trkpt lat="50.662248004227877" lon="6.264577014371753">
        <ele>504.64590800000002</ele>
        <time>2023-10-21T12:46:22Z</time>
      </trkpt>
      <trkpt lat="50.662292009219527" lon="6.264704000204802">
        <ele>504.582898</ele>
        <time>2023-10-21T12:46:29Z</time>
      </trkpt>
      <trkpt lat="50.66238303668797" lon="6.264782035723329">
        <ele>504.51176900000002</ele>
        <time>2023-10-21T12:46:36Z</time>
      </trkpt>
      <trkpt lat="50.662442967295647" lon="6.264896029606462">
        <ele>504.44726000000003</ele>
        <time>2023-10-21T12:46:44Z</time>
      </trkpt>
      <trkpt lat="50.662510022521019" lon="6.265008011832833">
        <ele>504.38021500000002</ele>
        <time>2023-10-21T12:46:52Z</time>
      </trkpt>
      <trkpt lat="50.66257699392736" lon="6.265119994059205">
        <ele>504.31317000000001</ele>
        <time>2023-10-21T12:47:00Z</time>
      </trkpt>
      <trkpt lat="50.662655029445887" lon="6.265224013477564">
        <ele>504.24302799999998</ele>
        <time>2023-10-21T12:47:07Z</time>
      </trkpt>
      <trkpt lat="50.662734992802143" lon="6.265329038724303">
        <ele>504.17155400000001</ele>
        <time>2023-10-21T12:47:14Z</time>
      </trkpt>
      <trkpt lat="50.662799030542374" lon="6.265457030385733">
        <ele>504.10057899999998</ele>
        <time>2023-10-21T12:47:23Z</time>
      </trkpt>
      <trkpt lat="50.662887040525675" lon="6.265553003177047">
        <ele>504.02709700000003</ele>
        <time>2023-10-21T12:47:31Z</time>
      </trkpt>
      <trkpt lat="50.66296398639679" lon="6.265651993453503">
        <ele>503.95887399999998</ele>
        <time>2023-10-21T12:47:38Z</time>
      </trkpt>
      <trkpt lat="50.663045039400458" lon="6.265748972073197">
        <ele>503.88902999999999</ele>
        <time>2023-10-21T12:47:45Z</time>
      </trkpt>
      <trkpt lat="50.663118967786431" lon="6.265848968178034">
        <ele>503.82210900000001</ele>
        <time>2023-10-21T12:47:54Z</time>
      </trkpt>
      <trkpt lat="50.663189962506294" lon="6.265961034223437">
        <ele>503.75315000000001</ele>
        <time>2023-10-21T12:48:01Z</time>
      </trkpt>
      <trkpt lat="50.663244025781751" lon="6.266079973429442">
        <ele>503.689436</ele>
        <time>2023-10-21T12:48:08Z</time>
      </trkpt>
      <trkpt lat="50.663317032158375" lon="6.266167983412743">
        <ele>503.62633799999998</ele>
        <time>2023-10-21T12:48:14Z</time>
      </trkpt>
      <trkpt lat="50.663390960544348" lon="6.266272002831101">
        <ele>503.64705500000002</ele>
        <time>2023-10-21T12:48:22Z</time>
      </trkpt>
      <trkpt lat="50.663474025204778" lon="6.26635598950088">
        <ele>503.87274600000001</ele>
        <time>2023-10-21T12:48:29Z</time>
      </trkpt>
      <trkpt lat="50.663583995774388" lon="6.266507031396031">
        <ele>504.20646799999997</ele>
        <time>2023-10-21T12:48:54Z</time>
      </trkpt>
      <trkpt lat="50.663637975230813" lon="6.266654971987009">
        <ele>504.454207</ele>
        <time>2023-10-21T12:49:01Z</time>
      </trkpt>
      <trkpt lat="50.663720034062862" lon="6.26674197614193">
        <ele>504.68037500000003</ele>
        <time>2023-10-21T12:49:05Z</time>
      </trkpt>
      <trkpt lat="50.663798991590738" lon="6.266834009438753">
        <ele>504.90510799999998</ele>
        <time>2023-10-21T12:49:11Z</time>
      </trkpt>
      <trkpt lat="50.663880966603756" lon="6.266895029693842">
        <ele>505.11259999999999</ele>
        <time>2023-10-21T12:49:17Z</time>
      </trkpt>
      <trkpt lat="50.663935029879212" lon="6.267016986384988">
        <ele>505.32846999999998</ele>
        <time>2023-10-21T12:49:24Z</time>
      </trkpt>
      <trkpt lat="50.664012981578708" lon="6.267121005803347">
        <ele>505.562206</ele>
        <time>2023-10-21T12:49:30Z</time>
      </trkpt>
      <trkpt lat="50.66408003680408" lon="6.26723499968648">
        <ele>505.78774099999998</ele>
        <time>2023-10-21T12:49:38Z</time>
      </trkpt>
      <trkpt lat="50.664157988503575" lon="6.267348993569613">
        <ele>506.031093</ele>
        <time>2023-10-21T12:49:47Z</time>
      </trkpt>
      <trkpt lat="50.664239963516593" lon="6.267443960532546">
        <ele>506.263936</ele>
        <time>2023-10-21T12:49:55Z</time>
      </trkpt>
      <trkpt lat="50.664313975721598" lon="6.267595002427697">
        <ele>506.54083200000002</ele>
        <time>2023-10-21T12:50:01Z</time>
      </trkpt>
      <trkpt lat="50.664380025118589" lon="6.267699021846056">
        <ele>506.75432799999999</ele>
        <time>2023-10-21T12:50:03Z</time>
      </trkpt>
      <trkpt lat="50.664454037323594" lon="6.267801029607654">
        <ele>506.97922899999998</ele>
        <time>2023-10-21T12:50:05Z</time>
      </trkpt>
      <trkpt lat="50.664539029821754" lon="6.267935978248715">
        <ele>507.25527599999998</ele>
        <time>2023-10-21T12:50:08Z</time>
      </trkpt>
      <trkpt lat="50.664627961814404" lon="6.268081991001964">
        <ele>507.54913399999998</ele>
        <time>2023-10-21T12:50:11Z</time>
      </trkpt>
      <trkpt lat="50.664709014818072" lon="6.268195984885097">
        <ele>507.94313099999999</ele>
        <time>2023-10-21T12:50:14Z</time>
      </trkpt>
      <trkpt lat="50.664777997881174" lon="6.268308972939849">
        <ele>508.49483099999998</ele>
        <time>2023-10-21T12:50:17Z</time>
      </trkpt>
      <trkpt lat="50.664839018136263" lon="6.268423972651362">
        <ele>509.02209599999998</ele>
        <time>2023-10-21T12:50:20Z</time>
      </trkpt>
      <trkpt lat="50.664908001199365" lon="6.268519023433328">
        <ele>509.53011700000002</ele>
        <time>2023-10-21T12:50:23Z</time>
      </trkpt>
      <trkpt lat="50.664955023676157" lon="6.268662018701434">
        <ele>510.09650199999999</ele>
        <time>2023-10-21T12:50:26Z</time>
      </trkpt>
      <trkpt lat="50.665012020617723" lon="6.268775006756187">
        <ele>510.604287</ele>
        <time>2023-10-21T12:50:29Z</time>
      </trkpt>
      <trkpt lat="50.665027024224401" lon="6.268957983702421">
        <ele>511.25309900000002</ele>
        <time>2023-10-21T12:50:33Z</time>
      </trkpt>
      <trkpt lat="50.665047978982329" lon="6.269126040861011">
        <ele>511.855187</ele>
        <time>2023-10-21T12:50:37Z</time>
      </trkpt>
      <trkpt lat="50.665076980367303" lon="6.269304994493723">
        <ele>512.50481000000002</ele>
        <time>2023-10-21T12:50:41Z</time>
      </trkpt>
      <trkpt lat="50.665101036429405" lon="6.26944899559021">
        <ele>513.02834499999994</ele>
        <time>2023-10-21T12:50:44Z</time>
      </trkpt>
      <trkpt lat="50.665126014500856" lon="6.269588973373175">
        <ele>513.53976599999999</ele>
        <time>2023-10-21T12:50:47Z</time>
      </trkpt>
      <trkpt lat="50.665157027542591" lon="6.269723000004888">
        <ele>514.04132900000002</ele>
        <time>2023-10-21T12:50:50Z</time>
      </trkpt>
      <trkpt lat="50.665185023099184" lon="6.269862977787852">
        <ele>514.55751099999998</ele>
        <time>2023-10-21T12:50:52Z</time>
      </trkpt>
      <trkpt lat="50.665211006999016" lon="6.270011002197862">
        <ele>515.09751500000004</ele>
        <time>2023-10-21T12:50:55Z</time>
      </trkpt>
      <trkpt lat="50.665242020040751" lon="6.270178975537419">
        <ele>515.71274700000004</ele>
        <time>2023-10-21T12:50:59Z</time>
      </trkpt>
      <trkpt lat="50.665256017819047" lon="6.270371004939079">
        <ele>516.39229499999999</ele>
        <time>2023-10-21T12:51:03Z</time>
      </trkpt>
      <trkpt lat="50.665299016982317" lon="6.270522968843579">
        <ele>516.97756000000004</ele>
        <time>2023-10-21T12:51:06Z</time>
      </trkpt>
      <trkpt lat="50.665338998660445" lon="6.270711980760098">
        <ele>517.67824399999995</ele>
        <time>2023-10-21T12:51:10Z</time>
      </trkpt>
      <trkpt lat="50.665363976731896" lon="6.270849024876952">
        <ele>518.18625499999996</ele>
        <time>2023-10-21T12:51:12Z</time>
      </trkpt>
      <trkpt lat="50.665380991995335" lon="6.271006017923355">
        <ele>518.75381000000004</ele>
        <time>2023-10-21T12:51:15Z</time>
      </trkpt>
      <trkpt lat="50.66541401669383" lon="6.271140966564417">
        <ele>519.26939900000002</ele>
        <time>2023-10-21T12:51:18Z</time>
      </trkpt>
      <trkpt lat="50.665452992543578" lon="6.271272981539369">
        <ele>519.78835400000003</ele>
        <time>2023-10-21T12:51:21Z</time>
      </trkpt>
      <trkpt lat="50.665489034727216" lon="6.271412037312985">
        <ele>520.32341499999995</ele>
        <time>2023-10-21T12:51:24Z</time>
      </trkpt>
      <trkpt lat="50.665519963949919" lon="6.27157598733902">
        <ele>520.93323999999996</ele>
        <time>2023-10-21T12:51:27Z</time>
      </trkpt>
      <trkpt lat="50.665572015568614" lon="6.271696016192436">
        <ele>521.45122100000003</ele>
        <time>2023-10-21T12:51:30Z</time>
      </trkpt>
      <trkpt lat="50.665605962276459" lon="6.271840017288923">
        <ele>521.99878899999999</ele>
        <time>2023-10-21T12:51:33Z</time>
      </trkpt>
      <trkpt lat="50.665662959218025" lon="6.271955017000437">
        <ele>522.51899000000003</ele>
        <time>2023-10-21T12:51:36Z</time>
      </trkpt>
      <trkpt lat="50.665731020271778" lon="6.272078985348344">
        <ele>523.10326399999997</ele>
        <time>2023-10-21T12:51:39Z</time>
      </trkpt>
      <trkpt lat="50.665788017213345" lon="6.27219800837338">
        <ele>523.63476400000002</ele>
        <time>2023-10-21T12:51:42Z</time>
      </trkpt>
      <trkpt lat="50.665853982791305" lon="6.272326000034809">
        <ele>524.22273099999995</ele>
        <time>2023-10-21T12:51:45Z</time>
      </trkpt>
      <trkpt lat="50.665923971682787" lon="6.272442005574703">
        <ele>524.79344900000001</ele>
        <time>2023-10-21T12:51:48Z</time>
      </trkpt>
      <trkpt lat="50.66599203273654" lon="6.27256203442812">
        <ele>525.36701900000003</ele>
        <time>2023-10-21T12:51:51Z</time>
      </trkpt>
      <trkpt lat="50.666079958900809" lon="6.272687008604407">
        <ele>526.03270799999996</ele>
        <time>2023-10-21T12:51:55Z</time>
      </trkpt>
      <trkpt lat="50.666156988590956" lon="6.272817011922598">
        <ele>526.66671799999995</ele>
        <time>2023-10-21T12:51:58Z</time>
      </trkpt>
      <trkpt lat="50.666213985532522" lon="6.272954978048801">
        <ele>527.25365099999999</ele>
        <time>2023-10-21T12:52:01Z</time>
      </trkpt>
      <trkpt lat="50.666271988302469" lon="6.273081041872501">
        <ele>527.79608700000006</ele>
        <time>2023-10-21T12:52:04Z</time>
      </trkpt>
      <trkpt lat="50.666327979415655" lon="6.27325396053493">
        <ele>528.12993800000004</ele>
        <time>2023-10-21T12:52:08Z</time>
      </trkpt>
      <trkpt lat="50.666400985792279" lon="6.273408019915223">
        <ele>528.46043599999996</ele>
        <time>2023-10-21T12:52:11Z</time>
      </trkpt>
      <trkpt lat="50.666447002440691" lon="6.273550009354949">
        <ele>528.73450700000001</ele>
        <time>2023-10-21T12:52:13Z</time>
      </trkpt>
      <trkpt lat="50.666483966633677" lon="6.273682024329901">
        <ele>528.98255900000004</ele>
        <time>2023-10-21T12:52:16Z</time>
      </trkpt>
      <trkpt lat="50.66651196219027" lon="6.273817978799343">
        <ele>529.22831199999996</ele>
        <time>2023-10-21T12:52:19Z</time>
      </trkpt>
      <trkpt lat="50.666550016030669" lon="6.273964997380972">
        <ele>529.50115300000004</ele>
        <time>2023-10-21T12:52:23Z</time>
      </trkpt>
      <trkpt lat="50.666615981608629" lon="6.274106986820698">
        <ele>529.80377999999996</ele>
        <time>2023-10-21T12:52:26Z</time>
      </trkpt>
      <trkpt lat="50.666666021570563" lon="6.274254005402327">
        <ele>530.09049500000003</ele>
        <time>2023-10-21T12:52:29Z</time>
      </trkpt>
      <trkpt lat="50.666709020733833" lon="6.27439197152853">
        <ele>530.35477300000002</ele>
        <time>2023-10-21T12:52:32Z</time>
      </trkpt>
      <trkpt lat="50.666733998805285" lon="6.274535972625017">
        <ele>530.61136999999997</ele>
        <time>2023-10-21T12:52:35Z</time>
      </trkpt>
      <trkpt lat="50.666779009625316" lon="6.274671005085111">
        <ele>530.87351000000001</ele>
        <time>2023-10-21T12:52:38Z</time>
      </trkpt>
      <trkpt lat="50.666817985475063" lon="6.274856999516487">
        <ele>531.21020899999996</ele>
        <time>2023-10-21T12:52:42Z</time>
      </trkpt>
      <trkpt lat="50.666866013780236" lon="6.274984991177917">
        <ele>531.46580900000004</ele>
        <time>2023-10-21T12:52:45Z</time>
      </trkpt>
      <trkpt lat="50.666915969923139" lon="6.275118011981249">
        <ele>531.73156600000004</ele>
        <time>2023-10-21T12:52:48Z</time>
      </trkpt>
      <trkpt lat="50.666951006278396" lon="6.275260001420975">
        <ele>531.99341100000004</ele>
        <time>2023-10-21T12:52:51Z</time>
      </trkpt>
      <trkpt lat="50.666996017098427" lon="6.275422023609281">
        <ele>532.29738799999996</ele>
        <time>2023-10-21T12:52:55Z</time>
      </trkpt>
      <trkpt lat="50.667026024311781" lon="6.275559989735484">
        <ele>532.54811800000004</ele>
        <time>2023-10-21T12:52:58Z</time>
      </trkpt>
      <trkpt lat="50.667071035131812" lon="6.275685969740152">
        <ele>532.71615199999997</ele>
        <time>2023-10-21T12:53:01Z</time>
      </trkpt>
      <trkpt lat="50.667109005153179" lon="6.275826031342149">
        <ele>532.82202299999994</ele>
        <time>2023-10-21T12:53:04Z</time>
      </trkpt>
      <trkpt lat="50.667144963517785" lon="6.275958968326449">
        <ele>532.92255699999998</ele>
        <time>2023-10-21T12:53:07Z</time>
      </trkpt>
      <trkpt lat="50.667190980166197" lon="6.276097018271685">
        <ele>533.03094699999997</ele>
        <time>2023-10-21T12:53:10Z</time>
      </trkpt>
      <trkpt lat="50.667231967672706" lon="6.276279995217919">
        <ele>533.16587500000003</ele>
        <time>2023-10-21T12:53:14Z</time>
      </trkpt>
      <trkpt lat="50.667285025119781" lon="6.276422990486026">
        <ele>533.28102999999999</ele>
        <time>2023-10-21T12:53:17Z</time>
      </trkpt>
      <trkpt lat="50.667313020676374" lon="6.276580989360809">
        <ele>533.39507800000001</ele>
        <time>2023-10-21T12:53:21Z</time>
      </trkpt>
      <trkpt lat="50.667345961555839" lon="6.276719961315393">
        <ele>533.49826099999996</ele>
        <time>2023-10-21T12:53:24Z</time>
      </trkpt>
      <trkpt lat="50.667402958497405" lon="6.27688298933208">
        <ele>533.62767299999996</ele>
        <time>2023-10-21T12:53:28Z</time>
      </trkpt>
      <trkpt lat="50.667468002066016" lon="6.277027996256948">
        <ele>533.75113299999998</ele>
        <time>2023-10-21T12:53:31Z</time>
      </trkpt>
      <trkpt lat="50.667489040642977" lon="6.277165962383151">
        <ele>533.84979099999998</ele>
        <time>2023-10-21T12:53:34Z</time>
      </trkpt>
      <trkpt lat="50.667530028149486" lon="6.277327984571457">
        <ele>533.97105199999999</ele>
        <time>2023-10-21T12:53:37Z</time>
      </trkpt>
      <trkpt lat="50.667558023706079" lon="6.277470979839563">
        <ele>534.07509400000004</ele>
        <time>2023-10-21T12:53:40Z</time>
      </trkpt>
      <trkpt lat="50.667595993727446" lon="6.277600983157754">
        <ele>534.17461100000003</ele>
        <time>2023-10-21T12:53:43Z</time>
      </trkpt>
      <trkpt lat="50.667641004547477" lon="6.277748001739383">
        <ele>534.288093</ele>
        <time>2023-10-21T12:53:46Z</time>
      </trkpt>
      <trkpt lat="50.667684003710747" lon="6.27789300866425">
        <ele>534.39937799999996</ele>
        <time>2023-10-21T12:53:49Z</time>
      </trkpt>
      <trkpt lat="50.667719040066004" lon="6.278027035295963">
        <ele>534.50012800000002</ele>
        <time>2023-10-21T12:53:52Z</time>
      </trkpt>
      <trkpt lat="50.66775600425899" lon="6.278158966451883">
        <ele>534.600461</ele>
        <time>2023-10-21T12:53:55Z</time>
      </trkpt>
      <trkpt lat="50.667795985937119" lon="6.27830196171999">
        <ele>534.68370400000003</ele>
        <time>2023-10-21T12:53:58Z</time>
      </trkpt>
      <trkpt lat="50.667838985100389" lon="6.278432970866561">
        <ele>534.75148899999999</ele>
        <time>2023-10-21T12:54:01Z</time>
      </trkpt>
      <trkpt lat="50.667900005355477" lon="6.278576971963048">
        <ele>534.83107099999995</ele>
        <time>2023-10-21T12:54:04Z</time>
      </trkpt>
      <trkpt lat="50.667937975376844" lon="6.27872901968658">
        <ele>534.90614800000003</ele>
        <time>2023-10-21T12:54:07Z</time>
      </trkpt>
      <trkpt lat="50.667982986196876" lon="6.278877966105938">
        <ele>534.98198500000001</ele>
        <time>2023-10-21T12:54:10Z</time>
      </trkpt>
      <trkpt lat="50.668049035593867" lon="6.279017021879554">
        <ele>535.06178599999998</ele>
        <time>2023-10-21T12:54:13Z</time>
      </trkpt>
      <trkpt lat="50.66809999756515" lon="6.279149958863854">
        <ele>535.13320999999996</ele>
        <time>2023-10-21T12:54:16Z</time>
      </trkpt>
      <trkpt lat="50.668144002556801" lon="6.279316004365683">
        <ele>535.21588399999996</ele>
        <time>2023-10-21T12:54:19Z</time>
      </trkpt>
      <trkpt lat="50.668189013376832" lon="6.279481966048479">
        <ele>535.29884000000004</ele>
        <time>2023-10-21T12:54:23Z</time>
      </trkpt>
      <trkpt lat="50.668236035853624" lon="6.27961297519505">
        <ele>535.36800600000004</ele>
        <time>2023-10-21T12:54:26Z</time>
      </trkpt>
      <trkpt lat="50.668293032795191" lon="6.279748007655144">
        <ele>535.44253800000001</ele>
        <time>2023-10-21T12:54:29Z</time>
      </trkpt>
      <trkpt lat="50.668364027515054" lon="6.279908018186688">
        <ele>535.53228100000001</ele>
        <time>2023-10-21T12:54:33Z</time>
      </trkpt>
      <trkpt lat="50.66842102445662" lon="6.280027041211724">
        <ele>535.60081600000001</ele>
        <time>2023-10-21T12:54:36Z</time>
      </trkpt>
      <trkpt lat="50.66846301779151" lon="6.280159978196025">
        <ele>535.66908999999998</ele>
        <time>2023-10-21T12:54:39Z</time>
      </trkpt>
      <trkpt lat="50.668497970327735" lon="6.280300039798021">
        <ele>535.73823900000002</ele>
        <time>2023-10-21T12:54:42Z</time>
      </trkpt>
      <trkpt lat="50.668567037209868" lon="6.280440017580986">
        <ele>535.81972499999995</ele>
        <time>2023-10-21T12:54:45Z</time>
      </trkpt>
      <trkpt lat="50.668625039979815" lon="6.280558034777641">
        <ele>535.88833599999998</ele>
        <time>2023-10-21T12:54:48Z</time>
      </trkpt>
      <trkpt lat="50.668650018051267" lon="6.280696000903845">
        <ele>535.92995800000006</ele>
        <time>2023-10-21T12:54:51Z</time>
      </trkpt>
      <trkpt lat="50.668711960315704" lon="6.280806977301836">
        <ele>535.89597600000002</ele>
        <time>2023-10-21T12:54:54Z</time>
      </trkpt>
      <trkpt lat="50.668753031641245" lon="6.28094301559031">
        <ele>535.86138600000004</ele>
        <time>2023-10-21T12:54:57Z</time>
      </trkpt>
      <trkpt lat="50.668799970299006" lon="6.281119035556912">
        <ele>535.81752100000006</ele>
        <time>2023-10-21T12:55:01Z</time>
      </trkpt>
      <trkpt lat="50.668845986947417" lon="6.281248033046722">
        <ele>535.78352500000005</ele>
        <time>2023-10-21T12:55:04Z</time>
      </trkpt>
      <trkpt lat="50.668895021080971" lon="6.281378036364913">
        <ele>535.748785</ele>
        <time>2023-10-21T12:55:07Z</time>
      </trkpt>
      <trkpt lat="50.668978001922369" lon="6.28154500387609">
        <ele>535.70004200000005</ele>
        <time>2023-10-21T12:55:10Z</time>
      </trkpt>
      <trkpt lat="50.669013038277626" lon="6.281727980822325">
        <ele>535.65613900000005</ele>
        <time>2023-10-21T12:55:14Z</time>
      </trkpt>
      <trkpt lat="50.66906601190567" lon="6.28186795860529">
        <ele>535.61868500000003</ele>
        <time>2023-10-21T12:55:17Z</time>
      </trkpt>
      <trkpt lat="50.669099958613515" lon="6.282030986621976">
        <ele>535.57927199999995</ele>
        <time>2023-10-21T12:55:20Z</time>
      </trkpt>
      <trkpt lat="50.669156033545732" lon="6.282172976061702">
        <ele>535.54085899999995</ele>
        <time>2023-10-21T12:55:23Z</time>
      </trkpt>
      <trkpt lat="50.669200038537383" lon="6.282312031835318">
        <ele>535.50517400000001</ele>
        <time>2023-10-21T12:55:26Z</time>
      </trkpt>
      <trkpt lat="50.669255023822188" lon="6.282460978254676">
        <ele>535.46557099999995</ele>
        <time>2023-10-21T12:55:29Z</time>
      </trkpt>
      <trkpt lat="50.669316966086626" lon="6.282606991007924">
        <ele>535.425207</ele>
        <time>2023-10-21T12:55:32Z</time>
      </trkpt>
      <trkpt lat="50.669344961643219" lon="6.282750992104411">
        <ele>535.39061200000003</ele>
        <time>2023-10-21T12:55:36Z</time>
      </trkpt>
      <trkpt lat="50.669399024918675" lon="6.282919971272349">
        <ele>535.34714299999996</ele>
        <time>2023-10-21T12:55:39Z</time>
      </trkpt>
      <trkpt lat="50.669459961354733" lon="6.283060032874346">
        <ele>535.30812300000002</ele>
        <time>2023-10-21T12:55:42Z</time>
      </trkpt>
      <trkpt lat="50.669502960518003" lon="6.28321903757751">
        <ele>535.28905999999995</ele>
        <time>2023-10-21T12:55:45Z</time>
      </trkpt>
      <trkpt lat="50.669544031843543" lon="6.283346023410559">
        <ele>535.29418399999997</ele>
        <time>2023-10-21T12:55:47Z</time>
      </trkpt>
      <trkpt lat="50.669590970501304" lon="6.283486001193523">
        <ele>535.29987900000003</ele>
        <time>2023-10-21T12:55:51Z</time>
      </trkpt>
      <trkpt lat="50.669613014906645" lon="6.283638970926404">
        <ele>535.30552</ele>
        <time>2023-10-21T12:55:59Z</time>
      </trkpt>
      <trkpt lat="50.669665988534689" lon="6.28375899977982">
        <ele>535.31077800000003</ele>
        <time>2023-10-21T12:56:05Z</time>
      </trkpt>
      <trkpt lat="50.669717034325004" lon="6.28388799726963">
        <ele>535.31624399999998</ele>
        <time>2023-10-21T12:56:12Z</time>
      </trkpt>
      <trkpt lat="50.669765984639525" lon="6.284033004194498">
        <ele>535.32215199999996</ele>
        <time>2023-10-21T12:56:21Z</time>
      </trkpt>
      <trkpt lat="50.669830022379756" lon="6.284167030826211">
        <ele>535.32818399999996</ele>
        <time>2023-10-21T12:56:29Z</time>
      </trkpt>
      <trkpt lat="50.669885007664561" lon="6.284285970032215">
        <ele>535.33347900000001</ele>
        <time>2023-10-21T12:56:35Z</time>
      </trkpt>
      <trkpt lat="50.669927000999451" lon="6.284433994442225">
        <ele>535.33930899999996</ele>
        <time>2023-10-21T12:56:44Z</time>
      </trkpt>
      <trkpt lat="50.669956002384424" lon="6.284585958346725">
        <ele>535.34501499999999</ele>
        <time>2023-10-21T12:56:51Z</time>
      </trkpt>
      <trkpt lat="50.670007970184088" lon="6.284728031605482">
        <ele>535.350911</ele>
        <time>2023-10-21T12:57:00Z</time>
      </trkpt>
      <trkpt lat="50.670072007924318" lon="6.284836996346712">
        <ele>535.35625300000004</ele>
        <time>2023-10-21T12:57:07Z</time>
      </trkpt>
      <trkpt lat="50.670137973502278" lon="6.28495903685689">
        <ele>535.36202000000003</ele>
        <time>2023-10-21T12:57:15Z</time>
      </trkpt>
      <trkpt lat="50.67020402289927" lon="6.285070013254881">
        <ele>535.36749199999997</ele>
        <time>2023-10-21T12:57:22Z</time>
      </trkpt>
      <trkpt lat="50.670259008184075" lon="6.285206973552704">
        <ele>535.37332200000003</ele>
        <time>2023-10-21T12:57:28Z</time>
      </trkpt>
      <trkpt lat="50.670325979590416" lon="6.285323984920979">
        <ele>535.37899100000004</ele>
        <time>2023-10-21T12:57:37Z</time>
      </trkpt>
      <trkpt lat="50.670388005673885" lon="6.285428004339337">
        <ele>535.38412400000004</ele>
        <time>2023-10-21T12:57:45Z</time>
      </trkpt>
      <trkpt lat="50.670453971251845" lon="6.285545015707612">
        <ele>535.42346099999997</ele>
        <time>2023-10-21T12:57:52Z</time>
      </trkpt>
      <trkpt lat="50.67052798345685" lon="6.285654986277223">
        <ele>535.562184</ele>
        <time>2023-10-21T12:57:59Z</time>
      </trkpt>
      <trkpt lat="50.670596966519952" lon="6.28575598821044">
        <ele>535.690608</ele>
        <time>2023-10-21T12:58:06Z</time>
      </trkpt>
      <trkpt lat="50.670658992603421" lon="6.28588498570025">
        <ele>535.83061199999997</ele>
        <time>2023-10-21T12:58:15Z</time>
      </trkpt>
      <trkpt lat="50.67072001285851" lon="6.285995040088892">
        <ele>535.95700999999997</ele>
        <time>2023-10-21T12:58:23Z</time>
      </trkpt>
      <trkpt lat="50.670787990093231" lon="6.286118002608419">
        <ele>536.09815800000001</ele>
        <time>2023-10-21T12:58:31Z</time>
      </trkpt>
      <trkpt lat="50.670846998691559" lon="6.286234008148313">
        <ele>536.22677999999996</ele>
        <time>2023-10-21T12:58:37Z</time>
      </trkpt>
      <trkpt lat="50.670902989804745" lon="6.286355964839459">
        <ele>536.35704599999997</ele>
        <time>2023-10-21T12:58:44Z</time>
      </trkpt>
      <trkpt lat="50.670956969261169" lon="6.286482028663158">
        <ele>536.48858099999995</ele>
        <time>2023-10-21T12:58:51Z</time>
      </trkpt>
      <trkpt lat="50.671016983687878" lon="6.286600967869163">
        <ele>536.62008100000003</ele>
        <time>2023-10-21T12:58:58Z</time>
      </trkpt>
      <trkpt lat="50.671059982851148" lon="6.286732982844114">
        <ele>536.74842599999999</ele>
        <time>2023-10-21T12:59:05Z</time>
      </trkpt>
      <trkpt lat="50.671110022813082" lon="6.286853011697531">
        <ele>536.87261599999999</ele>
        <time>2023-10-21T12:59:12Z</time>
      </trkpt>
      <trkpt lat="50.671139024198055" lon="6.286987960338593">
        <ele>536.99588200000005</ele>
        <time>2023-10-21T12:59:19Z</time>
      </trkpt>
      <trkpt lat="50.671189986169338" lon="6.287106983363628">
        <ele>537.12010899999996</ele>
        <time>2023-10-21T12:59:25Z</time>
      </trkpt>
      <trkpt lat="50.671247988939285" lon="6.287233969196677">
        <ele>537.25547700000004</ele>
        <time>2023-10-21T12:59:32Z</time>
      </trkpt>
      <trkpt lat="50.671288976445794" lon="6.287369001656771">
        <ele>537.38493200000005</ele>
        <time>2023-10-21T12:59:46Z</time>
      </trkpt>
      <trkpt lat="50.671323006972671" lon="6.287510991096497">
        <ele>537.51619900000003</ele>
        <time>2023-10-21T12:59:54Z</time>
      </trkpt>
      <trkpt lat="50.671369023621082" lon="6.287658009678125">
        <ele>537.65796999999998</ele>
        <time>2023-10-21T13:00:01Z</time>
      </trkpt>
      <trkpt lat="50.671431971713901" lon="6.287782983854413">
        <ele>537.79607799999997</ele>
        <time>2023-10-21T13:00:09Z</time>
      </trkpt>
      <trkpt lat="50.671454016119242" lon="6.28792597912252">
        <ele>537.95016099999998</ele>
        <time>2023-10-21T13:00:16Z</time>
      </trkpt>
      <trkpt lat="50.671495003625751" lon="6.28805497661233">
        <ele>538.11637900000005</ele>
        <time>2023-10-21T13:00:23Z</time>
      </trkpt>
      <trkpt lat="50.671532973647118" lon="6.288194032385945">
        <ele>538.29073800000003</ele>
        <time>2023-10-21T13:00:29Z</time>
      </trkpt>
      <trkpt lat="50.671548983082175" lon="6.28833401016891">
        <ele>538.45458900000006</ele>
        <time>2023-10-21T13:00:36Z</time>
      </trkpt>
      <trkpt lat="50.671567004173994" lon="6.288480022922158">
        <ele>538.625902</ele>
        <time>2023-10-21T13:00:43Z</time>
      </trkpt>
      <trkpt lat="50.6716029625386" lon="6.288623018190265">
        <ele>538.80312700000002</ele>
        <time>2023-10-21T13:00:51Z</time>
      </trkpt>
      <trkpt lat="50.671641016378999" lon="6.288758972659707">
        <ele>538.97431800000004</ele>
        <time>2023-10-21T13:00:57Z</time>
      </trkpt>
      <trkpt lat="50.671655014157295" lon="6.288917977362871">
        <ele>539.15921100000003</ele>
        <time>2023-10-21T13:01:04Z</time>
      </trkpt>
      <trkpt lat="50.671682003885508" lon="6.289058960974217">
        <ele>539.32886399999995</ele>
        <time>2023-10-21T13:01:11Z</time>
      </trkpt>
      <trkpt lat="50.671704970300198" lon="6.289202962070704">
        <ele>539.49990700000001</ele>
        <time>2023-10-21T13:01:18Z</time>
      </trkpt>
      <trkpt lat="50.671741012483835" lon="6.289340006187558">
        <ele>539.67072700000006</ele>
        <time>2023-10-21T13:01:25Z</time>
      </trkpt>
      <trkpt lat="50.671752998605371" lon="6.289496999233961">
        <ele>539.85286699999995</ele>
        <time>2023-10-21T13:01:31Z</time>
      </trkpt>
      <trkpt lat="50.671761967241764" lon="6.289645023643971">
        <ele>540.02411400000005</ele>
        <time>2023-10-21T13:01:38Z</time>
      </trkpt>
      <trkpt lat="50.671789040789008" lon="6.289794975891709">
        <ele>540.20371499999999</ele>
        <time>2023-10-21T13:01:45Z</time>
      </trkpt>
      <trkpt lat="50.671884007751942" lon="6.290054982528091">
        <ele>540.54938300000003</ele>
        <time>2023-10-21T13:02:25Z</time>
      </trkpt>
      <trkpt lat="50.671927006915212" lon="6.290210969746113">
        <ele>540.74531899999999</ele>
        <time>2023-10-21T13:02:32Z</time>
      </trkpt>
      <trkpt lat="50.671961959451437" lon="6.290348013862968">
        <ele>540.91545099999996</ele>
        <time>2023-10-21T13:02:38Z</time>
      </trkpt>
      <trkpt lat="50.672013005241752" lon="6.290465025231242">
        <ele>541.07900700000005</ele>
        <time>2023-10-21T13:02:44Z</time>
      </trkpt>
      <trkpt lat="50.672044018283486" lon="6.290611959993839">
        <ele>541.38269500000001</ele>
        <time>2023-10-21T13:02:51Z</time>
      </trkpt>
      <trkpt lat="50.672061033546925" lon="6.290752021595836">
        <ele>541.68758700000001</ele>
        <time>2023-10-21T13:02:58Z</time>
      </trkpt>
      <trkpt lat="50.67211702466011" lon="6.290888981893659">
        <ele>542.03627600000004</ele>
        <time>2023-10-21T13:03:05Z</time>
      </trkpt>
      <trkpt lat="50.672102021053433" lon="6.291029965505004">
        <ele>542.34207800000001</ele>
        <time>2023-10-21T13:03:12Z</time>
      </trkpt>
      <trkpt lat="50.672093974426389" lon="6.29119198769331">
        <ele>542.68962799999997</ele>
        <time>2023-10-21T13:03:20Z</time>
      </trkpt>
      <trkpt lat="50.672094980254769" lon="6.29134202376008">
        <ele>543.01047900000003</ele>
        <time>2023-10-21T13:03:27Z</time>
      </trkpt>
      <trkpt lat="50.672099003568292" lon="6.291497005149722">
        <ele>543.34228099999996</ele>
        <time>2023-10-21T13:03:34Z</time>
      </trkpt>
      <trkpt lat="50.672094980254769" lon="6.291657015681267">
        <ele>543.68476899999996</ele>
        <time>2023-10-21T13:03:41Z</time>
      </trkpt>
      <trkpt lat="50.672099003568292" lon="6.291805040091276">
        <ele>544.00161200000002</ele>
        <time>2023-10-21T13:03:48Z</time>
      </trkpt>
      <trkpt lat="50.672110989689827" lon="6.291960021480918">
        <ele>544.33560299999999</ele>
        <time>2023-10-21T13:03:56Z</time>
      </trkpt>
      <trkpt lat="50.672120964154601" lon="6.292107962071896">
        <ele>544.653952</ele>
        <time>2023-10-21T13:04:03Z</time>
      </trkpt>
      <trkpt lat="50.672130016610026" lon="6.292253974825144">
        <ele>544.96770300000003</ele>
        <time>2023-10-21T13:04:10Z</time>
      </trkpt>
      <trkpt lat="50.672122975811362" lon="6.292419014498591">
        <ele>545.32140900000002</ele>
        <time>2023-10-21T13:04:18Z</time>
      </trkpt>
      <trkpt lat="50.672119958326221" lon="6.292569972574711">
        <ele>545.64453900000001</ele>
        <time>2023-10-21T13:04:25Z</time>
      </trkpt>
      <trkpt lat="50.672122975811362" lon="6.29271799698472">
        <ele>545.96125600000005</ele>
        <time>2023-10-21T13:04:32Z</time>
      </trkpt>
      <trkpt lat="50.672126999124885" lon="6.292869038879871">
        <ele>546.28450999999995</ele>
        <time>2023-10-21T13:04:39Z</time>
      </trkpt>
      <trkpt lat="50.67211601883173" lon="6.293012034147978">
        <ele>546.59261500000002</ele>
        <time>2023-10-21T13:04:46Z</time>
      </trkpt>
      <trkpt lat="50.672115013003349" lon="6.293160980567336">
        <ele>546.91132700000003</ele>
        <time>2023-10-21T13:04:53Z</time>
      </trkpt>
      <trkpt lat="50.672093974426389" lon="6.293304981663823">
        <ele>547.20145500000001</ele>
        <time>2023-10-21T13:04:59Z</time>
      </trkpt>
      <trkpt lat="50.672058016061783" lon="6.293440014123917">
        <ele>547.33736699999997</ele>
        <time>2023-10-21T13:05:14Z</time>
      </trkpt>
      <trkpt lat="50.672066984698176" lon="6.293587032705545">
        <ele>547.47441200000003</ele>
        <time>2023-10-21T13:05:30Z</time>
      </trkpt>
      <trkpt lat="50.672133034095168" lon="6.293700020760298">
        <ele>547.61701000000005</ele>
        <time>2023-10-21T13:05:38Z</time>
      </trkpt>
      <trkpt lat="50.672165974974632" lon="6.293839998543263">
        <ele>547.75561900000002</ele>
        <time>2023-10-21T13:06:07Z</time>
      </trkpt>
      <trkpt lat="50.67218198440969" lon="6.293980982154608">
        <ele>547.88854100000003</ele>
        <time>2023-10-21T13:06:30Z</time>
      </trkpt>
      <trkpt lat="50.672207968309522" lon="6.294118026271462">
        <ele>548.02124800000001</ele>
        <time>2023-10-21T13:06:37Z</time>
      </trkpt>
      <trkpt lat="50.672244010493159" lon="6.294260015711188">
        <ele>548.16317000000004</ele>
        <time>2023-10-21T13:06:45Z</time>
      </trkpt>
      <trkpt lat="50.672272006049752" lon="6.294404016807675">
        <ele>548.30294300000003</ele>
        <time>2023-10-21T13:06:52Z</time>
      </trkpt>
      <trkpt lat="50.672305030748248" lon="6.294550029560924">
        <ele>548.44678199999998</ele>
        <time>2023-10-21T13:07:00Z</time>
      </trkpt>
      <trkpt lat="50.672325985506177" lon="6.294698975980282">
        <ele>548.58842500000003</ele>
        <time>2023-10-21T13:07:08Z</time>
      </trkpt>
      <trkpt lat="50.67235498689115" lon="6.29484398290515">
        <ele>548.72951899999998</ele>
        <time>2023-10-21T13:07:16Z</time>
      </trkpt>
      <trkpt lat="50.672381976619363" lon="6.294987984001637">
        <ele>548.86886900000002</ele>
        <time>2023-10-21T13:07:24Z</time>
      </trkpt>
      <trkpt lat="50.672408966347575" lon="6.295130979269743">
        <ele>549.00733000000002</ele>
        <time>2023-10-21T13:07:31Z</time>
      </trkpt>
      <trkpt lat="50.672436961904168" lon="6.295269029214978">
        <ele>549.14179000000001</ele>
        <time>2023-10-21T13:07:39Z</time>
      </trkpt>
      <trkpt lat="50.672467974945903" lon="6.295417975634337">
        <ele>549.28731400000004</ele>
        <time>2023-10-21T13:07:47Z</time>
      </trkpt>
      <trkpt lat="50.672488007694483" lon="6.295559965074062">
        <ele>549.42229799999996</ele>
        <time>2023-10-21T13:07:54Z</time>
      </trkpt>
      <trkpt lat="50.672520026564598" lon="6.295699020847678">
        <ele>549.559529</ele>
        <time>2023-10-21T13:08:12Z</time>
      </trkpt>
      <trkpt lat="50.672542992979288" lon="6.29587696865201">
        <ele>549.72810200000004</ele>
        <time>2023-10-21T13:08:16Z</time>
      </trkpt>
      <trkpt lat="50.672584986314178" lon="6.296016024425626">
        <ele>549.74731299999996</ele>
        <time>2023-10-21T13:08:21Z</time>
      </trkpt>
      <trkpt lat="50.672610970214009" lon="6.296152984723449">
        <ele>549.58591699999999</ele>
        <time>2023-10-21T13:08:27Z</time>
      </trkpt>
      <trkpt lat="50.672635026276112" lon="6.29630696028471">
        <ele>549.40694299999996</ele>
        <time>2023-10-21T13:08:34Z</time>
      </trkpt>
      <trkpt lat="50.672656986862421" lon="6.296464959159493">
        <ele>549.224378</ele>
        <time>2023-10-21T13:08:41Z</time>
      </trkpt>
      <trkpt lat="50.672687999904156" lon="6.296614995226264">
        <ele>549.04632200000003</ele>
        <time>2023-10-21T13:08:49Z</time>
      </trkpt>
      <trkpt lat="50.672703003510833" lon="6.296760002151132">
        <ele>548.88051599999994</ele>
        <time>2023-10-21T13:08:56Z</time>
      </trkpt>
      <trkpt lat="50.672727981582284" lon="6.296896962448955">
        <ele>548.71962299999996</ele>
        <time>2023-10-21T13:09:03Z</time>
      </trkpt>
      <trkpt lat="50.672758994624019" lon="6.297030989080668">
        <ele>548.55863699999998</ele>
        <time>2023-10-21T13:09:10Z</time>
      </trkpt>
      <trkpt lat="50.672785984352231" lon="6.297175996005535">
        <ele>548.38807999999995</ele>
        <time>2023-10-21T13:09:17Z</time>
      </trkpt>
      <trkpt lat="50.672820014879107" lon="6.297326032072306">
        <ele>548.20829600000002</ele>
        <time>2023-10-21T13:09:25Z</time>
      </trkpt>
      <trkpt lat="50.672841975465417" lon="6.297471961006522">
        <ele>548.03893400000004</ele>
        <time>2023-10-21T13:09:33Z</time>
      </trkpt>
      <trkpt lat="50.672858990728855" lon="6.297621997073293">
        <ele>547.86696700000005</ele>
        <time>2023-10-21T13:09:41Z</time>
      </trkpt>
      <trkpt lat="50.672887992113829" lon="6.297759041190147">
        <ele>547.70395900000005</ele>
        <time>2023-10-21T13:09:48Z</time>
      </trkpt>
      <trkpt lat="50.67291297018528" lon="6.297904970124364">
        <ele>547.53328299999998</ele>
        <time>2023-10-21T13:09:55Z</time>
      </trkpt>
      <trkpt lat="50.672937026247382" lon="6.298050982877612">
        <ele>547.36306300000001</ele>
        <time>2023-10-21T13:10:03Z</time>
      </trkpt>
      <trkpt lat="50.672974996268749" lon="6.298215016722679">
        <ele>547.16599900000006</ele>
        <time>2023-10-21T13:10:10Z</time>
      </trkpt>
      <trkpt lat="50.673001985996962" lon="6.298364968970418">
        <ele>546.99002199999995</ele>
        <time>2023-10-21T13:10:18Z</time>
      </trkpt>
      <trkpt lat="50.67302000708878" lon="6.298507964238524">
        <ele>546.82548699999995</ele>
        <time>2023-10-21T13:10:26Z</time>
      </trkpt>
      <trkpt lat="50.673044985160232" lon="6.298649031668901">
        <ele>546.66025300000001</ele>
        <time>2023-10-21T13:10:32Z</time>
      </trkpt>
      <trkpt lat="50.673077004030347" lon="6.298804013058543">
        <ele>546.61862599999995</ele>
        <time>2023-10-21T13:10:40Z</time>
      </trkpt>
      <trkpt lat="50.673091001808643" lon="6.298955976963043">
        <ele>546.626757</ele>
        <time>2023-10-21T13:10:48Z</time>
      </trkpt>
      <trkpt lat="50.673102987930179" lon="6.29909897223115">
        <ele>546.63439200000005</ele>
        <time>2023-10-21T13:10:56Z</time>
      </trkpt>
      <trkpt lat="50.673136012628675" lon="6.299236016348004">
        <ele>546.64215100000001</ele>
        <time>2023-10-21T13:11:03Z</time>
      </trkpt>
      <trkpt lat="50.673157973214984" lon="6.299381023272872">
        <ele>546.65004299999998</ele>
        <time>2023-10-21T13:11:10Z</time>
      </trkpt>
      <trkpt lat="50.673178005963564" lon="6.299528041854501">
        <ele>546.65800200000001</ele>
        <time>2023-10-21T13:11:17Z</time>
      </trkpt>
      <trkpt lat="50.673207007348537" lon="6.299665002152324">
        <ele>546.66564800000003</ele>
        <time>2023-10-21T13:11:24Z</time>
      </trkpt>
      <trkpt lat="50.673224022611976" lon="6.299809003248811">
        <ele>546.67340100000001</ele>
        <time>2023-10-21T13:11:31Z</time>
      </trkpt>
      <trkpt lat="50.673245983198285" lon="6.299946969375014">
        <ele>546.68093399999998</ele>
        <time>2023-10-21T13:11:38Z</time>
      </trkpt>
      <trkpt lat="50.67323399707675" lon="6.300093987956643">
        <ele>546.68877999999995</ele>
        <time>2023-10-21T13:11:46Z</time>
      </trkpt>
      <trkpt lat="50.673265010118484" lon="6.300238994881511">
        <ele>546.69687999999996</ele>
        <time>2023-10-21T13:11:53Z</time>
      </trkpt>
      <trkpt lat="50.673294011503458" lon="6.300397999584675">
        <ele>546.70563900000002</ele>
        <time>2023-10-21T13:12:02Z</time>
      </trkpt>
      <trkpt lat="50.673302980139852" lon="6.300551975145936">
        <ele>546.71382500000004</ele>
        <time>2023-10-21T13:12:09Z</time>
      </trkpt>
      <trkpt lat="50.673305997624993" lon="6.300708968192339">
        <ele>546.72213999999997</ele>
        <time>2023-10-21T13:12:16Z</time>
      </trkpt>
      <trkpt lat="50.673370035365224" lon="6.300822040066123">
        <ele>546.73016199999995</ele>
        <time>2023-10-21T13:12:22Z</time>
      </trkpt>
      <trkpt lat="50.673395013436675" lon="6.300975009799004">
        <ele>546.73852599999998</ele>
        <time>2023-10-21T13:12:30Z</time>
      </trkpt>
      <trkpt lat="50.673410017043352" lon="6.301126973703504">
        <ele>546.746669</ele>
        <time>2023-10-21T13:12:38Z</time>
      </trkpt>
      <trkpt lat="50.673443963751197" lon="6.30126996897161">
        <ele>546.75475400000005</ele>
        <time>2023-10-21T13:12:47Z</time>
      </trkpt>
      <trkpt lat="50.67351303063333" lon="6.301360996440053">
        <ele>546.76226499999996</ele>
        <time>2023-10-21T13:12:55Z</time>
      </trkpt>
      <trkpt lat="50.67359902895987" lon="6.301428973674774">
        <ele>546.39180399999998</ele>
        <time>2023-10-21T13:13:03Z</time>
      </trkpt>
      <trkpt lat="50.673681003972888" lon="6.30150499753654">
        <ele>546.01506500000005</ele>
        <time>2023-10-21T13:13:10Z</time>
      </trkpt>
      <trkpt lat="50.673774965107441" lon="6.301557971164584">
        <ele>545.61961899999994</ele>
        <time>2023-10-21T13:13:17Z</time>
      </trkpt>
      <trkpt lat="50.673858029767871" lon="6.301635000854731">
        <ele>545.23819200000003</ele>
        <time>2023-10-21T13:13:25Z</time>
      </trkpt>
      <trkpt lat="50.673963977023959" lon="6.301670959219337">
        <ele>544.80864999999994</ele>
        <time>2023-10-21T13:13:32Z</time>
      </trkpt>
      <trkpt lat="50.674034971743822" lon="6.301801968365908">
        <ele>544.37589400000002</ele>
        <time>2023-10-21T13:13:39Z</time>
      </trkpt>
      <trkpt lat="50.674128010869026" lon="6.301862988620997">
        <ele>543.97690699999998</ele>
        <time>2023-10-21T13:13:46Z</time>
      </trkpt>
      <trkpt lat="50.674217026680708" lon="6.301927026361227">
        <ele>543.58944199999996</ele>
        <time>2023-10-21T13:13:55Z</time>
      </trkpt>
      <trkpt lat="50.674306964501739" lon="6.301972037181258">
        <ele>543.21543099999997</ele>
        <time>2023-10-21T13:14:01Z</time>
      </trkpt>
      <trkpt lat="50.674385000020266" lon="6.302076978608966">
        <ele>542.80926499999998</ele>
        <time>2023-10-21T13:14:08Z</time>
      </trkpt>
      <trkpt lat="50.674470998346806" lon="6.302145039662719">
        <ele>542.42819099999997</ele>
        <time>2023-10-21T13:14:15Z</time>
      </trkpt>
      <trkpt lat="50.674547022208571" lon="6.302220979705453">
        <ele>542.07174499999996</ele>
        <time>2023-10-21T13:14:23Z</time>
      </trkpt>
      <trkpt lat="50.674628997221589" lon="6.302291974425316">
        <ele>541.70120699999995</ele>
        <time>2023-10-21T13:14:30Z</time>
      </trkpt>
      <trkpt lat="50.674707032740116" lon="6.302365986630321">
        <ele>541.34065699999996</ele>
        <time>2023-10-21T13:14:37Z</time>
      </trkpt>
      <trkpt lat="50.674794958904386" lon="6.302426001057029">
        <ele>540.96088899999995</ele>
        <time>2023-10-21T13:14:44Z</time>
      </trkpt>
      <trkpt lat="50.674891015514731" lon="6.302494984120131">
        <ele>540.54298600000004</ele>
        <time>2023-10-21T13:14:52Z</time>
      </trkpt>
      <trkpt lat="50.674976008012891" lon="6.302559021860361">
        <ele>540.16988400000002</ele>
        <time>2023-10-21T13:14:59Z</time>
      </trkpt>
      <trkpt lat="50.675058988854289" lon="6.302646026015282">
        <ele>539.77514199999996</ele>
        <time>2023-10-21T13:15:07Z</time>
      </trkpt>
      <trkpt lat="50.675164014101028" lon="6.302711991593242">
        <ele>539.14802599999996</ele>
        <time>2023-10-21T13:15:14Z</time>
      </trkpt>
      <trkpt lat="50.67525302991271" lon="6.302753984928131">
        <ele>538.56685000000004</ele>
        <time>2023-10-21T13:15:20Z</time>
      </trkpt>
      <trkpt lat="50.675340034067631" lon="6.3028350379318">
        <ele>537.93487700000003</ele>
        <time>2023-10-21T13:15:27Z</time>
      </trkpt>
      <trkpt lat="50.675423014909029" lon="6.302909972146154">
        <ele>537.33649500000001</ele>
        <time>2023-10-21T13:15:34Z</time>
      </trkpt>
      <trkpt lat="50.675482023507357" lon="6.303021032363176">
        <ele>536.76210800000001</ele>
        <time>2023-10-21T13:15:40Z</time>
      </trkpt>
      <trkpt lat="50.675558969378471" lon="6.303107030689716">
        <ele>536.171919</ele>
        <time>2023-10-21T13:15:46Z</time>
      </trkpt>
      <trkpt lat="50.675617977976799" lon="6.303233010694385">
        <ele>535.550792</ele>
        <time>2023-10-21T13:15:54Z</time>
      </trkpt>
      <trkpt lat="50.67570498213172" lon="6.303342981263995">
        <ele>534.85333000000003</ele>
        <time>2023-10-21T13:16:02Z</time>
      </trkpt>
      <trkpt lat="50.675774971023202" lon="6.30343702621758">
        <ele>534.27828199999999</ele>
        <time>2023-10-21T13:16:10Z</time>
      </trkpt>
      <trkpt lat="50.675849989056587" lon="6.303549008443952">
        <ele>533.63226199999997</ele>
        <time>2023-10-21T13:16:17Z</time>
      </trkpt>
      <trkpt lat="50.675946967676282" lon="6.303617991507053">
        <ele>532.96659399999999</ele>
        <time>2023-10-21T13:16:25Z</time>
      </trkpt>
      <trkpt lat="50.676039000973105" lon="6.30365202203393">
        <ele>532.37544200000002</ele>
        <time>2023-10-21T13:16:31Z</time>
      </trkpt>
      <trkpt lat="50.67613497376442" lon="6.303669959306717">
        <ele>531.77061400000002</ele>
        <time>2023-10-21T13:16:39Z</time>
      </trkpt>
      <trkpt lat="50.676236981526017" lon="6.30369602702558">
        <ele>531.12420099999997</ele>
        <time>2023-10-21T13:16:46Z</time>
      </trkpt>
      <trkpt lat="50.676330020651221" lon="6.303733997046948">
        <ele>530.52317900000003</ele>
        <time>2023-10-21T13:16:54Z</time>
      </trkpt>
      <trkpt lat="50.676440997049212" lon="6.303729973733425">
        <ele>529.82854999999995</ele>
        <time>2023-10-21T13:17:01Z</time>
      </trkpt>
      <trkpt lat="50.676538981497288" lon="6.303746988996863">
        <ele>529.21174099999996</ele>
        <time>2023-10-21T13:17:09Z</time>
      </trkpt>
      <trkpt lat="50.676631014794111" lon="6.303766015917063">
        <ele>528.63125500000001</ele>
        <time>2023-10-21T13:17:16Z</time>
      </trkpt>
      <trkpt lat="50.676720030605793" lon="6.303799962624908">
        <ele>528.00282900000002</ele>
        <time>2023-10-21T13:17:23Z</time>
      </trkpt>
      <trkpt lat="50.676814997568727" lon="6.303834998980165">
        <ele>527.28848900000003</ele>
        <time>2023-10-21T13:17:31Z</time>
      </trkpt>
      <trkpt lat="50.676905019208789" lon="6.303861988708377">
        <ele>526.61766499999999</ele>
        <time>2023-10-21T13:17:38Z</time>
      </trkpt>
      <trkpt lat="50.677004009485245" lon="6.30391001701355">
        <ele>525.85929699999997</ele>
        <time>2023-10-21T13:17:45Z</time>
      </trkpt>
      <trkpt lat="50.677085984498262" lon="6.303982017561793">
        <ele>525.17216699999994</ele>
        <time>2023-10-21T13:17:52Z</time>
      </trkpt>
      <trkpt lat="50.677169971168041" lon="6.304054018110037">
        <ele>524.47220300000004</ele>
        <time>2023-10-21T13:17:59Z</time>
      </trkpt>
      <trkpt lat="50.677269967272878" lon="6.304110009223223">
        <ele>523.69521899999995</ele>
        <time>2023-10-21T13:18:07Z</time>
      </trkpt>
      <trkpt lat="50.677366023883224" lon="6.304173963144422">
        <ele>522.93210799999997</ele>
        <time>2023-10-21T13:18:14Z</time>
      </trkpt>
      <trkpt lat="50.677456967532635" lon="6.304240012541413">
        <ele>522.198758</ele>
        <time>2023-10-21T13:18:22Z</time>
      </trkpt>
      <trkpt lat="50.677551012486219" lon="6.304305978119373">
        <ele>521.44539199999997</ele>
        <time>2023-10-21T13:18:29Z</time>
      </trkpt>
      <trkpt lat="50.677643967792392" lon="6.304377978667617">
        <ele>520.68686700000001</ele>
        <time>2023-10-21T13:18:37Z</time>
      </trkpt>
      <trkpt lat="50.677730971947312" lon="6.304415026679635">
        <ele>520.02708399999995</ele>
        <time>2023-10-21T13:18:43Z</time>
      </trkpt>
      <trkpt lat="50.677825016900897" lon="6.304481998085976">
        <ele>519.27182100000005</ele>
        <time>2023-10-21T13:18:51Z</time>
      </trkpt>
      <trkpt lat="50.677898023277521" lon="6.304572019726038">
        <ele>518.59349299999997</ele>
        <time>2023-10-21T13:18:57Z</time>
      </trkpt>
      <trkpt lat="50.677979998290539" lon="6.304657012224197">
        <ele>517.87510099999997</ele>
        <time>2023-10-21T13:19:04Z</time>
      </trkpt>
      <trkpt lat="50.678057027980685" lon="6.304762959480286">
        <ele>517.126891</ele>
        <time>2023-10-21T13:19:12Z</time>
      </trkpt>
      <trkpt lat="50.678116036579013" lon="6.30487603135407">
        <ele>516.44750499999998</ele>
        <time>2023-10-21T13:19:19Z</time>
      </trkpt>
      <trkpt lat="50.678192982450128" lon="6.304969992488623">
        <ele>515.73466199999996</ele>
        <time>2023-10-21T13:19:25Z</time>
      </trkpt>
      <trkpt lat="50.678268000483513" lon="6.305082980543375">
        <ele>515.00979800000005</ele>
        <time>2023-10-21T13:19:33Z</time>
      </trkpt>
      <trkpt lat="50.678347963839769" lon="6.305197980254889">
        <ele>514.33184400000005</ele>
        <time>2023-10-21T13:19:40Z</time>
      </trkpt>
      <trkpt lat="50.678414013236761" lon="6.305297976359725">
        <ele>513.75863400000003</ele>
        <time>2023-10-21T13:19:48Z</time>
      </trkpt>
      <trkpt lat="50.678474027663469" lon="6.305401995778084">
        <ele>513.20028200000002</ele>
        <time>2023-10-21T13:19:55Z</time>
      </trkpt>
      <trkpt lat="50.678548961877823" lon="6.305487994104624">
        <ele>512.61947499999997</ele>
        <time>2023-10-21T13:20:02Z</time>
      </trkpt>
      <trkpt lat="50.678631020709872" lon="6.305558988824487">
        <ele>512.03350899999998</ele>
        <time>2023-10-21T13:20:09Z</time>
      </trkpt>
      <trkpt lat="50.678716013208032" lon="6.305614979937673">
        <ele>511.45645000000002</ele>
        <time>2023-10-21T13:20:16Z</time>
      </trkpt>
      <trkpt lat="50.678806034848094" lon="6.305664014071226">
        <ele>510.85999600000002</ele>
        <time>2023-10-21T13:20:23Z</time>
      </trkpt>
      <trkpt lat="50.678951041772962" lon="6.305767027661204">
        <ele>509.86380100000002</ele>
        <time>2023-10-21T13:20:48Z</time>
      </trkpt>
      <trkpt lat="50.679042991250753" lon="6.30582301877439">
        <ele>509.24604199999999</ele>
        <time>2023-10-21T13:20:55Z</time>
      </trkpt>
      <trkpt lat="50.679137036204338" lon="6.305861994624138">
        <ele>508.63712900000002</ele>
        <time>2023-10-21T13:21:02Z</time>
      </trkpt>
      <trkpt lat="50.679221022874117" lon="6.305939024314284">
        <ele>508.02854100000002</ele>
        <time>2023-10-21T13:21:09Z</time>
      </trkpt>
      <trkpt lat="50.679307021200657" lon="6.305988980457187">
        <ele>507.45436000000001</ele>
        <time>2023-10-21T13:21:16Z</time>
      </trkpt>
      <trkpt lat="50.679403999820352" lon="6.306030973792076">
        <ele>506.824206</ele>
        <time>2023-10-21T13:21:24Z</time>
      </trkpt>
      <trkpt lat="50.679503995925188" lon="6.306062992662191">
        <ele>506.18496599999997</ele>
        <time>2023-10-21T13:21:31Z</time>
      </trkpt>
      <trkpt lat="50.679587982594967" lon="6.306132981553674">
        <ele>505.58985100000001</ele>
        <time>2023-10-21T13:21:38Z</time>
      </trkpt>
      <trkpt lat="50.679675992578268" lon="6.30618603900075">
        <ele>504.99975599999999</ele>
        <time>2023-10-21T13:21:44Z</time>
      </trkpt>
      <trkpt lat="50.679770959541202" lon="6.306239012628794">
        <ele>504.368495</ele>
        <time>2023-10-21T13:21:51Z</time>
      </trkpt>
      <trkpt lat="50.679857963696122" lon="6.306276982650161">
        <ele>503.905148</ele>
        <time>2023-10-21T13:21:58Z</time>
      </trkpt>
      <trkpt lat="50.679944967851043" lon="6.306322999298573">
        <ele>503.74268499999999</ele>
        <time>2023-10-21T13:22:04Z</time>
      </trkpt>
      <trkpt lat="50.680039012804627" lon="6.306374967098236">
        <ele>503.56631299999998</ele>
        <time>2023-10-21T13:22:11Z</time>
      </trkpt>
      <trkpt lat="50.68013297393918" lon="6.306416960433126">
        <ele>503.393328</ele>
        <time>2023-10-21T13:22:18Z</time>
      </trkpt>
      <trkpt lat="50.680222995579243" lon="6.306457025930286">
        <ele>503.22777000000002</ele>
        <time>2023-10-21T13:22:25Z</time>
      </trkpt>
      <trkpt lat="50.680315028876066" lon="6.306502036750317">
        <ele>503.05722400000002</ele>
        <time>2023-10-21T13:22:32Z</time>
      </trkpt>
      <trkpt lat="50.680407984182239" lon="6.306549981236458">
        <ele>502.88396899999998</ele>
        <time>2023-10-21T13:22:40Z</time>
      </trkpt>
      <trkpt lat="50.680493982508779" lon="6.30659599788487">
        <ele>502.723184</ele>
        <time>2023-10-21T13:22:47Z</time>
      </trkpt>
      <trkpt lat="50.680592972785234" lon="6.306635979562998">
        <ele>502.54223500000001</ele>
        <time>2023-10-21T13:22:54Z</time>
      </trkpt>
      <trkpt lat="50.68069196306169" lon="6.306675039231777">
        <ele>502.36156</ele>
        <time>2023-10-21T13:23:01Z</time>
      </trkpt>
      <trkpt lat="50.680780978873372" lon="6.306720972061157">
        <ele>502.19573500000001</ele>
        <time>2023-10-21T13:23:08Z</time>
      </trkpt>
      <trkpt lat="50.680868988856673" lon="6.306766988709569">
        <ele>502.03159199999999</ele>
        <time>2023-10-21T13:23:15Z</time>
      </trkpt>
      <trkpt lat="50.680844010785222" lon="6.307480037212372">
        <ele>501.23040900000001</ele>
        <time>2023-10-22T08:57:57Z</time>
      </trkpt>
    </trkseg>
  </trk>

</gpx>